<?xml version="1.0" encoding="UTF-8" standalone="no" ?>
<gpx xmlns="http://www.topografix.com/GPX/1/1" xmlns:xsi="http://www.w3.org/2001/XMLSchema-instance" xsi:schemaLocation="http://www.topografix.com/GPX/1/1 http://www.topografix.com/GPX/1/1/gpx.xsd" version="1.1" creator="VisuGPX - https://www.visugpx.com">
  <metadata>
    <name>St Victor</name>
    <desc><![CDATA[2011-02-06_St Victor]]></desc>
  </metadata>
  <trk>
    <name><![CDATA[St Victor]]></name>
    <trkseg>
      <trkpt lat="45.11593" lon="4.96488">
        <ele>65.872001647949</ele>
        <time>2011-02-06T12:23:29Z</time>
      </trkpt>
      <trkpt lat="45.11595" lon="4.96484">
        <ele>65.944999694824</ele>
        <time>2011-02-06T12:23:32Z</time>
      </trkpt>
      <trkpt lat="45.11594" lon="4.96476">
        <ele>66.182998657227</ele>
        <time>2011-02-06T12:23:35Z</time>
      </trkpt>
      <trkpt lat="45.11595" lon="4.96462">
        <ele>66.601997375488</ele>
        <time>2011-02-06T12:23:39Z</time>
      </trkpt>
      <trkpt lat="45.11595" lon="4.96448">
        <ele>66.94100189209</ele>
        <time>2011-02-06T12:23:42Z</time>
      </trkpt>
      <trkpt lat="45.11596" lon="4.96421">
        <ele>67.903999328613</ele>
        <time>2011-02-06T12:23:47Z</time>
      </trkpt>
      <trkpt lat="45.11596" lon="4.96391">
        <ele>69.30899810791</ele>
        <time>2011-02-06T12:23:52Z</time>
      </trkpt>
      <trkpt lat="45.11595" lon="4.96373">
        <ele>70.38500213623</ele>
        <time>2011-02-06T12:23:55Z</time>
      </trkpt>
      <trkpt lat="45.11594" lon="4.96354">
        <ele>71.476997375488</ele>
        <time>2011-02-06T12:23:58Z</time>
      </trkpt>
      <trkpt lat="45.1159" lon="4.96324">
        <ele>73.434997558594</ele>
        <time>2011-02-06T12:24:03Z</time>
      </trkpt>
      <trkpt lat="45.11588" lon="4.96305">
        <ele>74.851997375488</ele>
        <time>2011-02-06T12:24:06Z</time>
      </trkpt>
      <trkpt lat="45.11585" lon="4.96293">
        <ele>75.849998474121</ele>
        <time>2011-02-06T12:24:08Z</time>
      </trkpt>
      <trkpt lat="45.11581" lon="4.96283">
        <ele>76.755996704102</ele>
        <time>2011-02-06T12:24:10Z</time>
      </trkpt>
      <trkpt lat="45.11568" lon="4.96262">
        <ele>79.279998779297</ele>
        <time>2011-02-06T12:24:15Z</time>
      </trkpt>
      <trkpt lat="45.11549" lon="4.96237">
        <ele>81.442001342773</ele>
        <time>2011-02-06T12:24:22Z</time>
      </trkpt>
      <trkpt lat="45.11532" lon="4.96216">
        <ele>83.806999206543</ele>
        <time>2011-02-06T12:24:28Z</time>
      </trkpt>
      <trkpt lat="45.1153" lon="4.96207">
        <ele>84.728996276855</ele>
        <time>2011-02-06T12:24:30Z</time>
      </trkpt>
      <trkpt lat="45.11534" lon="4.96197">
        <ele>86.513000488281</ele>
        <time>2011-02-06T12:24:33Z</time>
      </trkpt>
      <trkpt lat="45.11544" lon="4.96194">
        <ele>86.940002441406</ele>
        <time>2011-02-06T12:24:37Z</time>
      </trkpt>
      <trkpt lat="45.11568" lon="4.96191">
        <ele>88.40299987793</ele>
        <time>2011-02-06T12:24:45Z</time>
      </trkpt>
      <trkpt lat="45.11583" lon="4.96184">
        <ele>89.390998840332</ele>
        <time>2011-02-06T12:24:50Z</time>
      </trkpt>
      <trkpt lat="45.11594" lon="4.96177">
        <ele>90.069000244141</ele>
        <time>2011-02-06T12:24:54Z</time>
      </trkpt>
      <trkpt lat="45.11606" lon="4.9615">
        <ele>91.078002929688</ele>
        <time>2011-02-06T12:25:01Z</time>
      </trkpt>
      <trkpt lat="45.11612" lon="4.96118">
        <ele>92.055999755859</ele>
        <time>2011-02-06T12:25:08Z</time>
      </trkpt>
      <trkpt lat="45.11619" lon="4.96082">
        <ele>92.927001953125</ele>
        <time>2011-02-06T12:25:16Z</time>
      </trkpt>
      <trkpt lat="45.11631" lon="4.96078">
        <ele>93.15299987793</ele>
        <time>2011-02-06T12:25:21Z</time>
      </trkpt>
      <trkpt lat="45.11634" lon="4.96078">
        <ele>93.000999450684</ele>
        <time>2011-02-06T12:25:22Z</time>
      </trkpt>
      <trkpt lat="45.1166" lon="4.96072">
        <ele>92.519996643066</ele>
        <time>2011-02-06T12:25:28Z</time>
      </trkpt>
      <trkpt lat="45.1169" lon="4.96068">
        <ele>91.862998962402</ele>
        <time>2011-02-06T12:25:34Z</time>
      </trkpt>
      <trkpt lat="45.11699" lon="4.96066">
        <ele>91.849998474121</ele>
        <time>2011-02-06T12:25:36Z</time>
      </trkpt>
      <trkpt lat="45.11713" lon="4.96076">
        <ele>91.192001342773</ele>
        <time>2011-02-06T12:25:40Z</time>
      </trkpt>
      <trkpt lat="45.11731" lon="4.96095">
        <ele>90.56600189209</ele>
        <time>2011-02-06T12:25:45Z</time>
      </trkpt>
      <trkpt lat="45.11736" lon="4.96094">
        <ele>90.445999145508</ele>
        <time>2011-02-06T12:25:46Z</time>
      </trkpt>
      <trkpt lat="45.11756" lon="4.96091">
        <ele>90.166000366211</ele>
        <time>2011-02-06T12:25:50Z</time>
      </trkpt>
      <trkpt lat="45.11772" lon="4.96087">
        <ele>89.78800201416</ele>
        <time>2011-02-06T12:25:53Z</time>
      </trkpt>
      <trkpt lat="45.11791" lon="4.96083">
        <ele>90.200996398926</ele>
        <time>2011-02-06T12:25:57Z</time>
      </trkpt>
      <trkpt lat="45.11806" lon="4.96084">
        <ele>89.314002990723</ele>
        <time>2011-02-06T12:26:01Z</time>
      </trkpt>
      <trkpt lat="45.11809" lon="4.96093">
        <ele>88.846000671387</ele>
        <time>2011-02-06T12:26:03Z</time>
      </trkpt>
      <trkpt lat="45.11811" lon="4.96129">
        <ele>87.329002380371</ele>
        <time>2011-02-06T12:26:08Z</time>
      </trkpt>
      <trkpt lat="45.11815" lon="4.96191">
        <ele>84.792999267578</ele>
        <time>2011-02-06T12:26:14Z</time>
      </trkpt>
      <trkpt lat="45.1182" lon="4.96254">
        <ele>83.169998168945</ele>
        <time>2011-02-06T12:26:19Z</time>
      </trkpt>
      <trkpt lat="45.11831" lon="4.96292">
        <ele>81.054000854492</ele>
        <time>2011-02-06T12:26:22Z</time>
      </trkpt>
      <trkpt lat="45.1184" lon="4.96349">
        <ele>77.930999755859</ele>
        <time>2011-02-06T12:26:26Z</time>
      </trkpt>
      <trkpt lat="45.11843" lon="4.96381">
        <ele>76.431999206543</ele>
        <time>2011-02-06T12:26:28Z</time>
      </trkpt>
      <trkpt lat="45.11861" lon="4.96437">
        <ele>74.875</ele>
        <time>2011-02-06T12:26:32Z</time>
      </trkpt>
      <trkpt lat="45.11886" lon="4.96506">
        <ele>70.543998718262</ele>
        <time>2011-02-06T12:26:37Z</time>
      </trkpt>
      <trkpt lat="45.1188" lon="4.96549">
        <ele>69.852996826172</ele>
        <time>2011-02-06T12:26:40Z</time>
      </trkpt>
      <trkpt lat="45.11876" lon="4.96576">
        <ele>69.570999145508</ele>
        <time>2011-02-06T12:26:42Z</time>
      </trkpt>
      <trkpt lat="45.11853" lon="4.96659">
        <ele>67.593002319336</ele>
        <time>2011-02-06T12:26:49Z</time>
      </trkpt>
      <trkpt lat="45.11831" lon="4.96719">
        <ele>66.042999267578</ele>
        <time>2011-02-06T12:26:54Z</time>
      </trkpt>
      <trkpt lat="45.11821" lon="4.96742">
        <ele>65.41300201416</ele>
        <time>2011-02-06T12:26:56Z</time>
      </trkpt>
      <trkpt lat="45.11793" lon="4.96776">
        <ele>64.252998352051</ele>
        <time>2011-02-06T12:27:00Z</time>
      </trkpt>
      <trkpt lat="45.11777" lon="4.96785">
        <ele>64.027000427246</ele>
        <time>2011-02-06T12:27:02Z</time>
      </trkpt>
      <trkpt lat="45.11753" lon="4.96815">
        <ele>63.951999664307</ele>
        <time>2011-02-06T12:27:06Z</time>
      </trkpt>
      <trkpt lat="45.11738" lon="4.96851">
        <ele>63.401000976562</ele>
        <time>2011-02-06T12:27:10Z</time>
      </trkpt>
      <trkpt lat="45.11739" lon="4.9687">
        <ele>63.570999145508</ele>
        <time>2011-02-06T12:27:12Z</time>
      </trkpt>
      <trkpt lat="45.11749" lon="4.96882">
        <ele>63.763000488281</ele>
        <time>2011-02-06T12:27:14Z</time>
      </trkpt>
      <trkpt lat="45.11777" lon="4.96914">
        <ele>64.314002990723</ele>
        <time>2011-02-06T12:27:20Z</time>
      </trkpt>
      <trkpt lat="45.1179" lon="4.96933">
        <ele>64.146003723145</ele>
        <time>2011-02-06T12:27:23Z</time>
      </trkpt>
      <trkpt lat="45.11816" lon="4.96972">
        <ele>63.720001220703</ele>
        <time>2011-02-06T12:27:29Z</time>
      </trkpt>
      <trkpt lat="45.11856" lon="4.97028">
        <ele>64.350997924805</ele>
        <time>2011-02-06T12:27:38Z</time>
      </trkpt>
      <trkpt lat="45.11871" lon="4.97047">
        <ele>64.177001953125</ele>
        <time>2011-02-06T12:27:41Z</time>
      </trkpt>
      <trkpt lat="45.11881" lon="4.9708">
        <ele>63.830001831055</ele>
        <time>2011-02-06T12:27:45Z</time>
      </trkpt>
      <trkpt lat="45.11876" lon="4.97131">
        <ele>62.979999542236</ele>
        <time>2011-02-06T12:27:50Z</time>
      </trkpt>
      <trkpt lat="45.1188" lon="4.97184">
        <ele>62.291000366211</ele>
        <time>2011-02-06T12:27:55Z</time>
      </trkpt>
      <trkpt lat="45.11899" lon="4.97293">
        <ele>61.234001159668</ele>
        <time>2011-02-06T12:28:05Z</time>
      </trkpt>
      <trkpt lat="45.11919" lon="4.97402">
        <ele>61.556999206543</ele>
        <time>2011-02-06T12:28:15Z</time>
      </trkpt>
      <trkpt lat="45.1194" lon="4.97525">
        <ele>62.307998657227</ele>
        <time>2011-02-06T12:28:27Z</time>
      </trkpt>
      <trkpt lat="45.11951" lon="4.97584">
        <ele>63.083000183105</ele>
        <time>2011-02-06T12:28:33Z</time>
      </trkpt>
      <trkpt lat="45.11953" lon="4.97603">
        <ele>63.520999908447</ele>
        <time>2011-02-06T12:28:35Z</time>
      </trkpt>
      <trkpt lat="45.11964" lon="4.97659">
        <ele>63.615001678467</ele>
        <time>2011-02-06T12:28:41Z</time>
      </trkpt>
      <trkpt lat="45.11983" lon="4.97768">
        <ele>63.07799911499</ele>
        <time>2011-02-06T12:28:52Z</time>
      </trkpt>
      <trkpt lat="45.12" lon="4.97865">
        <ele>64.059997558594</ele>
        <time>2011-02-06T12:29:02Z</time>
      </trkpt>
      <trkpt lat="45.12019" lon="4.9796">
        <ele>64.563003540039</ele>
        <time>2011-02-06T12:29:12Z</time>
      </trkpt>
      <trkpt lat="45.1204" lon="4.98036">
        <ele>65.305000305176</ele>
        <time>2011-02-06T12:29:21Z</time>
      </trkpt>
      <trkpt lat="45.12049" lon="4.98066">
        <ele>65.84700012207</ele>
        <time>2011-02-06T12:29:26Z</time>
      </trkpt>
      <trkpt lat="45.12055" lon="4.98092">
        <ele>65.022003173828</ele>
        <time>2011-02-06T12:29:32Z</time>
      </trkpt>
      <trkpt lat="45.12063" lon="4.98128">
        <ele>65.61799621582</ele>
        <time>2011-02-06T12:29:39Z</time>
      </trkpt>
      <trkpt lat="45.12068" lon="4.98164">
        <ele>65.86499786377</ele>
        <time>2011-02-06T12:29:45Z</time>
      </trkpt>
      <trkpt lat="45.12071" lon="4.98202">
        <ele>66.046997070312</ele>
        <time>2011-02-06T12:29:51Z</time>
      </trkpt>
      <trkpt lat="45.1207" lon="4.98242">
        <ele>66.886001586914</ele>
        <time>2011-02-06T12:29:58Z</time>
      </trkpt>
      <trkpt lat="45.12067" lon="4.98274">
        <ele>66.682998657227</ele>
        <time>2011-02-06T12:30:05Z</time>
      </trkpt>
      <trkpt lat="45.12062" lon="4.9831">
        <ele>66.654998779297</ele>
        <time>2011-02-06T12:30:12Z</time>
      </trkpt>
      <trkpt lat="45.12057" lon="4.9834">
        <ele>67.337997436523</ele>
        <time>2011-02-06T12:30:19Z</time>
      </trkpt>
      <trkpt lat="45.12048" lon="4.98374">
        <ele>67.915000915527</ele>
        <time>2011-02-06T12:30:27Z</time>
      </trkpt>
      <trkpt lat="45.12039" lon="4.98389">
        <ele>68.264999389648</ele>
        <time>2011-02-06T12:30:32Z</time>
      </trkpt>
      <trkpt lat="45.12032" lon="4.98399">
        <ele>68.430000305176</ele>
        <time>2011-02-06T12:30:37Z</time>
      </trkpt>
      <trkpt lat="45.12032" lon="4.98398">
        <ele>68.417999267578</ele>
        <time>2011-02-06T12:30:39Z</time>
      </trkpt>
      <trkpt lat="45.12029" lon="4.98392">
        <ele>60.053001403809</ele>
        <time>2011-02-06T12:38:07Z</time>
      </trkpt>
      <trkpt lat="45.12029" lon="4.98392">
        <ele>60.168998718262</ele>
        <time>2011-02-06T12:38:08Z</time>
      </trkpt>
      <trkpt lat="45.12032" lon="4.98393">
        <ele>60.293998718262</ele>
        <time>2011-02-06T12:38:17Z</time>
      </trkpt>
      <trkpt lat="45.12035" lon="4.98399">
        <ele>60.073001861572</ele>
        <time>2011-02-06T12:38:22Z</time>
      </trkpt>
      <trkpt lat="45.12034" lon="4.98401">
        <ele>60.224998474121</ele>
        <time>2011-02-06T12:38:24Z</time>
      </trkpt>
      <trkpt lat="45.12032" lon="4.98409">
        <ele>60.277000427246</ele>
        <time>2011-02-06T12:38:29Z</time>
      </trkpt>
      <trkpt lat="45.1203" lon="4.98416">
        <ele>60.254001617432</ele>
        <time>2011-02-06T12:38:31Z</time>
      </trkpt>
      <trkpt lat="45.12038" lon="4.98429">
        <ele>60.265998840332</ele>
        <time>2011-02-06T12:38:35Z</time>
      </trkpt>
      <trkpt lat="45.12049" lon="4.98423">
        <ele>60.270000457764</ele>
        <time>2011-02-06T12:38:38Z</time>
      </trkpt>
      <trkpt lat="45.12053" lon="4.98406">
        <ele>60.714000701904</ele>
        <time>2011-02-06T12:38:41Z</time>
      </trkpt>
      <trkpt lat="45.12051" lon="4.98382">
        <ele>60.375999450684</ele>
        <time>2011-02-06T12:38:45Z</time>
      </trkpt>
      <trkpt lat="45.12052" lon="4.9836">
        <ele>59.708999633789</ele>
        <time>2011-02-06T12:38:48Z</time>
      </trkpt>
      <trkpt lat="45.12065" lon="4.98289">
        <ele>59.752998352051</ele>
        <time>2011-02-06T12:38:57Z</time>
      </trkpt>
      <trkpt lat="45.12069" lon="4.98258">
        <ele>58.068000793457</ele>
        <time>2011-02-06T12:39:01Z</time>
      </trkpt>
      <trkpt lat="45.1207" lon="4.98193">
        <ele>58.224998474121</ele>
        <time>2011-02-06T12:39:09Z</time>
      </trkpt>
      <trkpt lat="45.12063" lon="4.98128">
        <ele>58.492000579834</ele>
        <time>2011-02-06T12:39:17Z</time>
      </trkpt>
      <trkpt lat="45.12059" lon="4.98103">
        <ele>57.029998779297</ele>
        <time>2011-02-06T12:39:20Z</time>
      </trkpt>
      <trkpt lat="45.12043" lon="4.98036">
        <ele>56.638000488281</ele>
        <time>2011-02-06T12:39:28Z</time>
      </trkpt>
      <trkpt lat="45.12024" lon="4.97966">
        <ele>55.851001739502</ele>
        <time>2011-02-06T12:39:37Z</time>
      </trkpt>
      <trkpt lat="45.12011" lon="4.97908">
        <ele>55.131999969482</ele>
        <time>2011-02-06T12:39:44Z</time>
      </trkpt>
      <trkpt lat="45.11997" lon="4.97832">
        <ele>54.555999755859</ele>
        <time>2011-02-06T12:39:52Z</time>
      </trkpt>
      <trkpt lat="45.11984" lon="4.97757">
        <ele>53.686000823975</ele>
        <time>2011-02-06T12:40:00Z</time>
      </trkpt>
      <trkpt lat="45.11971" lon="4.97679">
        <ele>53.750999450684</ele>
        <time>2011-02-06T12:40:08Z</time>
      </trkpt>
      <trkpt lat="45.11957" lon="4.97597">
        <ele>53.622001647949</ele>
        <time>2011-02-06T12:40:17Z</time>
      </trkpt>
      <trkpt lat="45.11946" lon="4.97532">
        <ele>53.028999328613</ele>
        <time>2011-02-06T12:40:24Z</time>
      </trkpt>
      <trkpt lat="45.11929" lon="4.97431">
        <ele>51.292999267578</ele>
        <time>2011-02-06T12:40:34Z</time>
      </trkpt>
      <trkpt lat="45.11913" lon="4.9734">
        <ele>51.062999725342</ele>
        <time>2011-02-06T12:40:43Z</time>
      </trkpt>
      <trkpt lat="45.11898" lon="4.97252">
        <ele>50.518001556396</ele>
        <time>2011-02-06T12:40:52Z</time>
      </trkpt>
      <trkpt lat="45.11886" lon="4.97182">
        <ele>51.063999176025</ele>
        <time>2011-02-06T12:41:00Z</time>
      </trkpt>
      <trkpt lat="45.1188" lon="4.97148">
        <ele>51.075000762939</ele>
        <time>2011-02-06T12:41:04Z</time>
      </trkpt>
      <trkpt lat="45.11885" lon="4.97107">
        <ele>51.589000701904</ele>
        <time>2011-02-06T12:41:09Z</time>
      </trkpt>
      <trkpt lat="45.119" lon="4.97085">
        <ele>53.039001464844</ele>
        <time>2011-02-06T12:41:13Z</time>
      </trkpt>
      <trkpt lat="45.11902" lon="4.97065">
        <ele>52.958999633789</ele>
        <time>2011-02-06T12:41:16Z</time>
      </trkpt>
      <trkpt lat="45.11891" lon="4.97051">
        <ele>52.506000518799</ele>
        <time>2011-02-06T12:41:19Z</time>
      </trkpt>
      <trkpt lat="45.11855" lon="4.97013">
        <ele>52.234001159668</ele>
        <time>2011-02-06T12:41:27Z</time>
      </trkpt>
      <trkpt lat="45.11816" lon="4.9696">
        <ele>52.367000579834</ele>
        <time>2011-02-06T12:41:36Z</time>
      </trkpt>
      <trkpt lat="45.11779" lon="4.96901">
        <ele>51.818000793457</ele>
        <time>2011-02-06T12:41:45Z</time>
      </trkpt>
      <trkpt lat="45.11767" lon="4.96883">
        <ele>51.608001708984</ele>
        <time>2011-02-06T12:41:48Z</time>
      </trkpt>
      <trkpt lat="45.11761" lon="4.96852">
        <ele>51.970001220703</ele>
        <time>2011-02-06T12:41:52Z</time>
      </trkpt>
      <trkpt lat="45.11757" lon="4.9683">
        <ele>51.860000610352</ele>
        <time>2011-02-06T12:41:55Z</time>
      </trkpt>
      <trkpt lat="45.11744" lon="4.96818">
        <ele>51.536998748779</ele>
        <time>2011-02-06T12:41:58Z</time>
      </trkpt>
      <trkpt lat="45.11713" lon="4.96794">
        <ele>51.220001220703</ele>
        <time>2011-02-06T12:42:04Z</time>
      </trkpt>
      <trkpt lat="45.11674" lon="4.96732">
        <ele>50.145000457764</ele>
        <time>2011-02-06T12:42:13Z</time>
      </trkpt>
      <trkpt lat="45.11649" lon="4.96676">
        <ele>50.886001586914</ele>
        <time>2011-02-06T12:42:20Z</time>
      </trkpt>
      <trkpt lat="45.1162" lon="4.96602">
        <ele>49.293998718262</ele>
        <time>2011-02-06T12:42:29Z</time>
      </trkpt>
      <trkpt lat="45.11593" lon="4.96533">
        <ele>49.18399810791</ele>
        <time>2011-02-06T12:42:38Z</time>
      </trkpt>
      <trkpt lat="45.11585" lon="4.96512">
        <ele>48.561000823975</ele>
        <time>2011-02-06T12:42:41Z</time>
      </trkpt>
      <trkpt lat="45.11576" lon="4.96474">
        <ele>49.231998443604</ele>
        <time>2011-02-06T12:42:46Z</time>
      </trkpt>
      <trkpt lat="45.11577" lon="4.96467">
        <ele>49.287998199463</ele>
        <time>2011-02-06T12:42:47Z</time>
      </trkpt>
      <trkpt lat="45.11578" lon="4.96453">
        <ele>49.28099822998</ele>
        <time>2011-02-06T12:42:49Z</time>
      </trkpt>
      <trkpt lat="45.11573" lon="4.96442">
        <ele>49.35599899292</ele>
        <time>2011-02-06T12:42:53Z</time>
      </trkpt>
      <trkpt lat="45.11572" lon="4.96441">
        <ele>49.237998962402</ele>
        <time>2011-02-06T12:42:56Z</time>
      </trkpt>
      <trkpt lat="45.11566" lon="4.96446">
        <ele>48.888000488281</ele>
        <time>2011-02-06T12:43:08Z</time>
      </trkpt>
      <trkpt lat="45.11558" lon="4.96434">
        <ele>48.687999725342</ele>
        <time>2011-02-06T12:43:12Z</time>
      </trkpt>
      <trkpt lat="45.11558" lon="4.9642">
        <ele>49.238998413086</ele>
        <time>2011-02-06T12:43:15Z</time>
      </trkpt>
      <trkpt lat="45.11563" lon="4.96419">
        <ele>49.872001647949</ele>
        <time>2011-02-06T12:43:18Z</time>
      </trkpt>
      <trkpt lat="45.11564" lon="4.9642">
        <ele>49.756000518799</ele>
        <time>2011-02-06T12:43:20Z</time>
      </trkpt>
      <trkpt lat="45.11562" lon="4.9643">
        <ele>46.442001342773</ele>
        <time>2011-02-06T12:47:10Z</time>
      </trkpt>
      <trkpt lat="45.11558" lon="4.96439">
        <ele>45.830001831055</ele>
        <time>2011-02-06T12:47:14Z</time>
      </trkpt>
      <trkpt lat="45.11563" lon="4.96448">
        <ele>45.47200012207</ele>
        <time>2011-02-06T12:47:17Z</time>
      </trkpt>
      <trkpt lat="45.11572" lon="4.96451">
        <ele>45.936000823975</ele>
        <time>2011-02-06T12:47:21Z</time>
      </trkpt>
      <trkpt lat="45.11575" lon="4.96448">
        <ele>46.080001831055</ele>
        <time>2011-02-06T12:47:25Z</time>
      </trkpt>
      <trkpt lat="45.11579" lon="4.96458">
        <ele>46.039001464844</ele>
        <time>2011-02-06T12:47:30Z</time>
      </trkpt>
      <trkpt lat="45.11579" lon="4.96476">
        <ele>45.708000183105</ele>
        <time>2011-02-06T12:47:34Z</time>
      </trkpt>
      <trkpt lat="45.11571" lon="4.96482">
        <ele>45.248001098633</ele>
        <time>2011-02-06T12:47:38Z</time>
      </trkpt>
      <trkpt lat="45.11565" lon="4.96474">
        <ele>45.138000488281</ele>
        <time>2011-02-06T12:47:40Z</time>
      </trkpt>
      <trkpt lat="45.11549" lon="4.96445">
        <ele>45.013999938965</ele>
        <time>2011-02-06T12:47:45Z</time>
      </trkpt>
      <trkpt lat="45.11537" lon="4.96426">
        <ele>45.130001068115</ele>
        <time>2011-02-06T12:47:48Z</time>
      </trkpt>
      <trkpt lat="45.11533" lon="4.96419">
        <ele>45.187000274658</ele>
        <time>2011-02-06T12:47:49Z</time>
      </trkpt>
      <trkpt lat="45.11507" lon="4.96379">
        <ele>45.574001312256</ele>
        <time>2011-02-06T12:47:55Z</time>
      </trkpt>
      <trkpt lat="45.11463" lon="4.96311">
        <ele>46.465000152588</ele>
        <time>2011-02-06T12:48:05Z</time>
      </trkpt>
      <trkpt lat="45.11428" lon="4.96253">
        <ele>46.931999206543</ele>
        <time>2011-02-06T12:48:13Z</time>
      </trkpt>
      <trkpt lat="45.114" lon="4.96198">
        <ele>47.303001403809</ele>
        <time>2011-02-06T12:48:20Z</time>
      </trkpt>
      <trkpt lat="45.11372" lon="4.96138">
        <ele>46.583999633789</ele>
        <time>2011-02-06T12:48:27Z</time>
      </trkpt>
      <trkpt lat="45.11335" lon="4.96067">
        <ele>45.944000244141</ele>
        <time>2011-02-06T12:48:35Z</time>
      </trkpt>
      <trkpt lat="45.11287" lon="4.95987">
        <ele>44.777000427246</ele>
        <time>2011-02-06T12:48:44Z</time>
      </trkpt>
      <trkpt lat="45.11249" lon="4.95921">
        <ele>44.012001037598</ele>
        <time>2011-02-06T12:48:51Z</time>
      </trkpt>
      <trkpt lat="45.112" lon="4.95851">
        <ele>43.050998687744</ele>
        <time>2011-02-06T12:48:59Z</time>
      </trkpt>
      <trkpt lat="45.1115" lon="4.95773">
        <ele>42.831001281738</ele>
        <time>2011-02-06T12:49:08Z</time>
      </trkpt>
      <trkpt lat="45.11113" lon="4.95701">
        <ele>42.911998748779</ele>
        <time>2011-02-06T12:49:16Z</time>
      </trkpt>
      <trkpt lat="45.11085" lon="4.95665">
        <ele>43.279998779297</ele>
        <time>2011-02-06T12:49:21Z</time>
      </trkpt>
      <trkpt lat="45.11035" lon="4.95616">
        <ele>43.419998168945</ele>
        <time>2011-02-06T12:49:29Z</time>
      </trkpt>
      <trkpt lat="45.10995" lon="4.95561">
        <ele>42.915000915527</ele>
        <time>2011-02-06T12:49:36Z</time>
      </trkpt>
      <trkpt lat="45.10971" lon="4.95513">
        <ele>42.481998443604</ele>
        <time>2011-02-06T12:49:41Z</time>
      </trkpt>
      <trkpt lat="45.10947" lon="4.95438">
        <ele>42.647998809814</ele>
        <time>2011-02-06T12:49:48Z</time>
      </trkpt>
      <trkpt lat="45.10927" lon="4.95352">
        <ele>43.201999664307</ele>
        <time>2011-02-06T12:49:56Z</time>
      </trkpt>
      <trkpt lat="45.10899" lon="4.95272">
        <ele>40.695999145508</ele>
        <time>2011-02-06T12:50:04Z</time>
      </trkpt>
      <trkpt lat="45.10877" lon="4.95209">
        <ele>41.034999847412</ele>
        <time>2011-02-06T12:50:11Z</time>
      </trkpt>
      <trkpt lat="45.10859" lon="4.95155">
        <ele>42.847999572754</ele>
        <time>2011-02-06T12:50:18Z</time>
      </trkpt>
      <trkpt lat="45.10851" lon="4.95113">
        <ele>44.550998687744</ele>
        <time>2011-02-06T12:50:24Z</time>
      </trkpt>
      <trkpt lat="45.10847" lon="4.95066">
        <ele>46.571998596191</ele>
        <time>2011-02-06T12:50:31Z</time>
      </trkpt>
      <trkpt lat="45.10851" lon="4.95006">
        <ele>49.582000732422</ele>
        <time>2011-02-06T12:50:40Z</time>
      </trkpt>
      <trkpt lat="45.10855" lon="4.94939">
        <ele>53.34700012207</ele>
        <time>2011-02-06T12:50:50Z</time>
      </trkpt>
      <trkpt lat="45.10857" lon="4.94897">
        <ele>55.42200088501</ele>
        <time>2011-02-06T12:50:56Z</time>
      </trkpt>
      <trkpt lat="45.10859" lon="4.94864">
        <ele>57.234001159668</ele>
        <time>2011-02-06T12:51:01Z</time>
      </trkpt>
      <trkpt lat="45.10868" lon="4.94835">
        <ele>58.166000366211</ele>
        <time>2011-02-06T12:51:07Z</time>
      </trkpt>
      <trkpt lat="45.10873" lon="4.94813">
        <ele>59.034000396729</ele>
        <time>2011-02-06T12:51:12Z</time>
      </trkpt>
      <trkpt lat="45.10872" lon="4.94808">
        <ele>59.026000976562</ele>
        <time>2011-02-06T12:51:13Z</time>
      </trkpt>
      <trkpt lat="45.10876" lon="4.94784">
        <ele>59.986000061035</ele>
        <time>2011-02-06T12:51:17Z</time>
      </trkpt>
      <trkpt lat="45.10896" lon="4.94716">
        <ele>59.312999725342</ele>
        <time>2011-02-06T12:51:27Z</time>
      </trkpt>
      <trkpt lat="45.1092" lon="4.9463">
        <ele>59.444000244141</ele>
        <time>2011-02-06T12:51:38Z</time>
      </trkpt>
      <trkpt lat="45.10929" lon="4.94569">
        <ele>60.087001800537</ele>
        <time>2011-02-06T12:51:45Z</time>
      </trkpt>
      <trkpt lat="45.10928" lon="4.94503">
        <ele>58.298000335693</ele>
        <time>2011-02-06T12:51:52Z</time>
      </trkpt>
      <trkpt lat="45.10921" lon="4.94377">
        <ele>58.787998199463</ele>
        <time>2011-02-06T12:52:05Z</time>
      </trkpt>
      <trkpt lat="45.10914" lon="4.94321">
        <ele>59.119998931885</ele>
        <time>2011-02-06T12:52:11Z</time>
      </trkpt>
      <trkpt lat="45.10894" lon="4.9428">
        <ele>58.985000610352</ele>
        <time>2011-02-06T12:52:16Z</time>
      </trkpt>
      <trkpt lat="45.10888" lon="4.94273">
        <ele>58.763000488281</ele>
        <time>2011-02-06T12:52:17Z</time>
      </trkpt>
      <trkpt lat="45.10845" lon="4.94223">
        <ele>57.304000854492</ele>
        <time>2011-02-06T12:52:24Z</time>
      </trkpt>
      <trkpt lat="45.10806" lon="4.94178">
        <ele>57.175998687744</ele>
        <time>2011-02-06T12:52:30Z</time>
      </trkpt>
      <trkpt lat="45.10757" lon="4.94115">
        <ele>57.359001159668</ele>
        <time>2011-02-06T12:52:38Z</time>
      </trkpt>
      <trkpt lat="45.10731" lon="4.94066">
        <ele>58.414001464844</ele>
        <time>2011-02-06T12:52:44Z</time>
      </trkpt>
      <trkpt lat="45.10707" lon="4.94006">
        <ele>59.221000671387</ele>
        <time>2011-02-06T12:52:51Z</time>
      </trkpt>
      <trkpt lat="45.10692" lon="4.93935">
        <ele>60.06600189209</ele>
        <time>2011-02-06T12:52:59Z</time>
      </trkpt>
      <trkpt lat="45.1068" lon="4.93844">
        <ele>61.527000427246</ele>
        <time>2011-02-06T12:53:09Z</time>
      </trkpt>
      <trkpt lat="45.10671" lon="4.93763">
        <ele>59.714000701904</ele>
        <time>2011-02-06T12:53:17Z</time>
      </trkpt>
      <trkpt lat="45.10662" lon="4.93679">
        <ele>58.712001800537</ele>
        <time>2011-02-06T12:53:24Z</time>
      </trkpt>
      <trkpt lat="45.10651" lon="4.93597">
        <ele>56.473999023438</ele>
        <time>2011-02-06T12:53:30Z</time>
      </trkpt>
      <trkpt lat="45.10637" lon="4.93524">
        <ele>52.541000366211</ele>
        <time>2011-02-06T12:53:35Z</time>
      </trkpt>
      <trkpt lat="45.10634" lon="4.93509">
        <ele>52.339000701904</ele>
        <time>2011-02-06T12:53:36Z</time>
      </trkpt>
      <trkpt lat="45.10619" lon="4.93433">
        <ele>48.849998474121</ele>
        <time>2011-02-06T12:53:41Z</time>
      </trkpt>
      <trkpt lat="45.106" lon="4.93336">
        <ele>45.657001495361</ele>
        <time>2011-02-06T12:53:48Z</time>
      </trkpt>
      <trkpt lat="45.10574" lon="4.93205">
        <ele>43.192001342773</ele>
        <time>2011-02-06T12:53:58Z</time>
      </trkpt>
      <trkpt lat="45.10557" lon="4.93116">
        <ele>40.94100189209</ele>
        <time>2011-02-06T12:54:05Z</time>
      </trkpt>
      <trkpt lat="45.10544" lon="4.93048">
        <ele>40.29700088501</ele>
        <time>2011-02-06T12:54:11Z</time>
      </trkpt>
      <trkpt lat="45.10538" lon="4.93016">
        <ele>39.029998779297</ele>
        <time>2011-02-06T12:54:14Z</time>
      </trkpt>
      <trkpt lat="45.10518" lon="4.92911">
        <ele>38.629001617432</ele>
        <time>2011-02-06T12:54:24Z</time>
      </trkpt>
      <trkpt lat="45.10503" lon="4.92836">
        <ele>38.32799911499</ele>
        <time>2011-02-06T12:54:31Z</time>
      </trkpt>
      <trkpt lat="45.10484" lon="4.92745">
        <ele>38.319000244141</ele>
        <time>2011-02-06T12:54:40Z</time>
      </trkpt>
      <trkpt lat="45.10472" lon="4.9269">
        <ele>36.685001373291</ele>
        <time>2011-02-06T12:54:46Z</time>
      </trkpt>
      <trkpt lat="45.10471" lon="4.92681">
        <ele>36.72200012207</ele>
        <time>2011-02-06T12:54:47Z</time>
      </trkpt>
      <trkpt lat="45.10459" lon="4.92604">
        <ele>37.766998291016</ele>
        <time>2011-02-06T12:54:55Z</time>
      </trkpt>
      <trkpt lat="45.10447" lon="4.92539">
        <ele>37.125</ele>
        <time>2011-02-06T12:55:02Z</time>
      </trkpt>
      <trkpt lat="45.10434" lon="4.92467">
        <ele>35.673000335693</ele>
        <time>2011-02-06T12:55:09Z</time>
      </trkpt>
      <trkpt lat="45.10418" lon="4.92382">
        <ele>34.603000640869</ele>
        <time>2011-02-06T12:55:16Z</time>
      </trkpt>
      <trkpt lat="45.10398" lon="4.92265">
        <ele>34.742000579834</ele>
        <time>2011-02-06T12:55:26Z</time>
      </trkpt>
      <trkpt lat="45.10381" lon="4.92166">
        <ele>33.372001647949</ele>
        <time>2011-02-06T12:55:35Z</time>
      </trkpt>
      <trkpt lat="45.10362" lon="4.92061">
        <ele>33.750999450684</ele>
        <time>2011-02-06T12:55:45Z</time>
      </trkpt>
      <trkpt lat="45.10352" lon="4.92004">
        <ele>34.085998535156</ele>
        <time>2011-02-06T12:55:51Z</time>
      </trkpt>
      <trkpt lat="45.10331" lon="4.91887">
        <ele>35.444000244141</ele>
        <time>2011-02-06T12:56:04Z</time>
      </trkpt>
      <trkpt lat="45.10316" lon="4.918">
        <ele>35.904998779297</ele>
        <time>2011-02-06T12:56:14Z</time>
      </trkpt>
      <trkpt lat="45.10311" lon="4.91775">
        <ele>36.404998779297</ele>
        <time>2011-02-06T12:56:17Z</time>
      </trkpt>
      <trkpt lat="45.10294" lon="4.91753">
        <ele>36.206001281738</ele>
        <time>2011-02-06T12:56:21Z</time>
      </trkpt>
      <trkpt lat="45.10281" lon="4.91752">
        <ele>35.703998565674</ele>
        <time>2011-02-06T12:56:23Z</time>
      </trkpt>
      <trkpt lat="45.10209" lon="4.91763">
        <ele>35.438999176025</ele>
        <time>2011-02-06T12:56:33Z</time>
      </trkpt>
      <trkpt lat="45.10138" lon="4.91775">
        <ele>35.044998168945</ele>
        <time>2011-02-06T12:56:42Z</time>
      </trkpt>
      <trkpt lat="45.10056" lon="4.91788">
        <ele>35.209999084473</ele>
        <time>2011-02-06T12:56:52Z</time>
      </trkpt>
      <trkpt lat="45.09962" lon="4.91807">
        <ele>35.979000091553</ele>
        <time>2011-02-06T12:57:04Z</time>
      </trkpt>
      <trkpt lat="45.09869" lon="4.91826">
        <ele>36.490001678467</ele>
        <time>2011-02-06T12:57:16Z</time>
      </trkpt>
      <trkpt lat="45.09789" lon="4.91842">
        <ele>37.062000274658</ele>
        <time>2011-02-06T12:57:26Z</time>
      </trkpt>
      <trkpt lat="45.09698" lon="4.91859">
        <ele>38.907001495361</ele>
        <time>2011-02-06T12:57:38Z</time>
      </trkpt>
      <trkpt lat="45.09621" lon="4.91872">
        <ele>40.75899887085</ele>
        <time>2011-02-06T12:57:48Z</time>
      </trkpt>
      <trkpt lat="45.09538" lon="4.91885">
        <ele>42.18399810791</ele>
        <time>2011-02-06T12:57:59Z</time>
      </trkpt>
      <trkpt lat="45.09488" lon="4.91886">
        <ele>43.639999389648</ele>
        <time>2011-02-06T12:58:06Z</time>
      </trkpt>
      <trkpt lat="45.09441" lon="4.91872">
        <ele>44.698001861572</ele>
        <time>2011-02-06T12:58:13Z</time>
      </trkpt>
      <trkpt lat="45.09397" lon="4.91856">
        <ele>46.848999023438</ele>
        <time>2011-02-06T12:58:21Z</time>
      </trkpt>
      <trkpt lat="45.09357" lon="4.91842">
        <ele>49.228000640869</ele>
        <time>2011-02-06T12:58:29Z</time>
      </trkpt>
      <trkpt lat="45.09294" lon="4.91818">
        <ele>52.611999511719</ele>
        <time>2011-02-06T12:58:41Z</time>
      </trkpt>
      <trkpt lat="45.09246" lon="4.91803">
        <ele>55.363998413086</ele>
        <time>2011-02-06T12:58:50Z</time>
      </trkpt>
      <trkpt lat="45.09196" lon="4.91807">
        <ele>58.169998168945</ele>
        <time>2011-02-06T12:58:59Z</time>
      </trkpt>
      <trkpt lat="45.09145" lon="4.91826">
        <ele>61.701999664307</ele>
        <time>2011-02-06T12:59:09Z</time>
      </trkpt>
      <trkpt lat="45.09098" lon="4.91843">
        <ele>64.75700378418</ele>
        <time>2011-02-06T12:59:19Z</time>
      </trkpt>
      <trkpt lat="45.09058" lon="4.91858">
        <ele>67.289001464844</ele>
        <time>2011-02-06T12:59:28Z</time>
      </trkpt>
      <trkpt lat="45.0901" lon="4.91871">
        <ele>69.850997924805</ele>
        <time>2011-02-06T12:59:39Z</time>
      </trkpt>
      <trkpt lat="45.08957" lon="4.91882">
        <ele>71.545997619629</ele>
        <time>2011-02-06T12:59:50Z</time>
      </trkpt>
      <trkpt lat="45.089" lon="4.91895">
        <ele>73.291999816895</ele>
        <time>2011-02-06T13:00:01Z</time>
      </trkpt>
      <trkpt lat="45.08842" lon="4.91903">
        <ele>75.516998291016</ele>
        <time>2011-02-06T13:00:12Z</time>
      </trkpt>
      <trkpt lat="45.08785" lon="4.91907">
        <ele>77.611999511719</ele>
        <time>2011-02-06T13:00:23Z</time>
      </trkpt>
      <trkpt lat="45.08728" lon="4.91913">
        <ele>79.204002380371</ele>
        <time>2011-02-06T13:00:34Z</time>
      </trkpt>
      <trkpt lat="45.08662" lon="4.91917">
        <ele>81.388999938965</ele>
        <time>2011-02-06T13:00:46Z</time>
      </trkpt>
      <trkpt lat="45.08601" lon="4.91924">
        <ele>83.929000854492</ele>
        <time>2011-02-06T13:00:58Z</time>
      </trkpt>
      <trkpt lat="45.08562" lon="4.91936">
        <ele>85.375</ele>
        <time>2011-02-06T13:01:06Z</time>
      </trkpt>
      <trkpt lat="45.08496" lon="4.91964">
        <ele>87.820999145508</ele>
        <time>2011-02-06T13:01:19Z</time>
      </trkpt>
      <trkpt lat="45.08444" lon="4.91987">
        <ele>87.876998901367</ele>
        <time>2011-02-06T13:01:28Z</time>
      </trkpt>
      <trkpt lat="45.084" lon="4.92005">
        <ele>87.524002075195</ele>
        <time>2011-02-06T13:01:35Z</time>
      </trkpt>
      <trkpt lat="45.08376" lon="4.92015">
        <ele>87.516998291016</ele>
        <time>2011-02-06T13:01:39Z</time>
      </trkpt>
      <trkpt lat="45.08328" lon="4.92029">
        <ele>86.71900177002</ele>
        <time>2011-02-06T13:01:46Z</time>
      </trkpt>
      <trkpt lat="45.08284" lon="4.9203">
        <ele>86.814002990723</ele>
        <time>2011-02-06T13:01:52Z</time>
      </trkpt>
      <trkpt lat="45.0825" lon="4.92028">
        <ele>87.807998657227</ele>
        <time>2011-02-06T13:01:57Z</time>
      </trkpt>
      <trkpt lat="45.08217" lon="4.92009">
        <ele>89.283996582031</ele>
        <time>2011-02-06T13:02:03Z</time>
      </trkpt>
      <trkpt lat="45.08208" lon="4.91999">
        <ele>90.106002807617</ele>
        <time>2011-02-06T13:02:05Z</time>
      </trkpt>
      <trkpt lat="45.08186" lon="4.91956">
        <ele>91.267997741699</ele>
        <time>2011-02-06T13:02:12Z</time>
      </trkpt>
      <trkpt lat="45.08178" lon="4.91936">
        <ele>91.66300201416</ele>
        <time>2011-02-06T13:02:15Z</time>
      </trkpt>
      <trkpt lat="45.0816" lon="4.9189">
        <ele>92.045997619629</ele>
        <time>2011-02-06T13:02:22Z</time>
      </trkpt>
      <trkpt lat="45.08157" lon="4.91883">
        <ele>92.045997619629</ele>
        <time>2011-02-06T13:02:23Z</time>
      </trkpt>
      <trkpt lat="45.08152" lon="4.91845">
        <ele>90.769996643066</ele>
        <time>2011-02-06T13:02:27Z</time>
      </trkpt>
      <trkpt lat="45.08158" lon="4.91779">
        <ele>89.113998413086</ele>
        <time>2011-02-06T13:02:33Z</time>
      </trkpt>
      <trkpt lat="45.08166" lon="4.91732">
        <ele>86.550003051758</ele>
        <time>2011-02-06T13:02:37Z</time>
      </trkpt>
      <trkpt lat="45.08179" lon="4.91655">
        <ele>83.27799987793</ele>
        <time>2011-02-06T13:02:43Z</time>
      </trkpt>
      <trkpt lat="45.08181" lon="4.91627">
        <ele>82.113998413086</ele>
        <time>2011-02-06T13:02:45Z</time>
      </trkpt>
      <trkpt lat="45.08172" lon="4.91571">
        <ele>79.700996398926</ele>
        <time>2011-02-06T13:02:49Z</time>
      </trkpt>
      <trkpt lat="45.08159" lon="4.91546">
        <ele>78.626998901367</ele>
        <time>2011-02-06T13:02:51Z</time>
      </trkpt>
      <trkpt lat="45.08142" lon="4.91526">
        <ele>77.642997741699</ele>
        <time>2011-02-06T13:02:53Z</time>
      </trkpt>
      <trkpt lat="45.08072" lon="4.91456">
        <ele>69.998001098633</ele>
        <time>2011-02-06T13:03:00Z</time>
      </trkpt>
      <trkpt lat="45.08011" lon="4.91386">
        <ele>65.921997070312</ele>
        <time>2011-02-06T13:03:06Z</time>
      </trkpt>
      <trkpt lat="45.0797" lon="4.91334">
        <ele>63.354000091553</ele>
        <time>2011-02-06T13:03:10Z</time>
      </trkpt>
      <trkpt lat="45.07923" lon="4.9126">
        <ele>60.504001617432</ele>
        <time>2011-02-06T13:03:15Z</time>
      </trkpt>
      <trkpt lat="45.07896" lon="4.91212">
        <ele>58.45299911499</ele>
        <time>2011-02-06T13:03:18Z</time>
      </trkpt>
      <trkpt lat="45.07857" lon="4.91152">
        <ele>56.13399887085</ele>
        <time>2011-02-06T13:03:22Z</time>
      </trkpt>
      <trkpt lat="45.07812" lon="4.91106">
        <ele>54.254001617432</ele>
        <time>2011-02-06T13:03:26Z</time>
      </trkpt>
      <trkpt lat="45.07771" lon="4.91057">
        <ele>53.146999359131</ele>
        <time>2011-02-06T13:03:30Z</time>
      </trkpt>
      <trkpt lat="45.07719" lon="4.9098">
        <ele>51.300998687744</ele>
        <time>2011-02-06T13:03:36Z</time>
      </trkpt>
      <trkpt lat="45.0768" lon="4.90915">
        <ele>51.091999053955</ele>
        <time>2011-02-06T13:03:41Z</time>
      </trkpt>
      <trkpt lat="45.07654" lon="4.90846">
        <ele>48.562000274658</ele>
        <time>2011-02-06T13:03:46Z</time>
      </trkpt>
      <trkpt lat="45.07622" lon="4.90743">
        <ele>46.733001708984</ele>
        <time>2011-02-06T13:03:53Z</time>
      </trkpt>
      <trkpt lat="45.07619" lon="4.90728">
        <ele>46.486000061035</ele>
        <time>2011-02-06T13:03:54Z</time>
      </trkpt>
      <trkpt lat="45.07615" lon="4.90667">
        <ele>46.645000457764</ele>
        <time>2011-02-06T13:03:58Z</time>
      </trkpt>
      <trkpt lat="45.07626" lon="4.90566">
        <ele>41.928001403809</ele>
        <time>2011-02-06T13:04:05Z</time>
      </trkpt>
      <trkpt lat="45.07629" lon="4.90551">
        <ele>41.556999206543</ele>
        <time>2011-02-06T13:04:06Z</time>
      </trkpt>
      <trkpt lat="45.07656" lon="4.90479">
        <ele>38.618000030518</ele>
        <time>2011-02-06T13:04:11Z</time>
      </trkpt>
      <trkpt lat="45.07705" lon="4.90363">
        <ele>32.638000488281</ele>
        <time>2011-02-06T13:04:19Z</time>
      </trkpt>
      <trkpt lat="45.07718" lon="4.90285">
        <ele>30.454000473023</ele>
        <time>2011-02-06T13:04:24Z</time>
      </trkpt>
      <trkpt lat="45.07719" lon="4.90269">
        <ele>30.239999771118</ele>
        <time>2011-02-06T13:04:25Z</time>
      </trkpt>
      <trkpt lat="45.07722" lon="4.90161">
        <ele>28.170999526977</ele>
        <time>2011-02-06T13:04:32Z</time>
      </trkpt>
      <trkpt lat="45.07727" lon="4.90072">
        <ele>25.826000213623</ele>
        <time>2011-02-06T13:04:38Z</time>
      </trkpt>
      <trkpt lat="45.07747" lon="4.89989">
        <ele>24.77799987793</ele>
        <time>2011-02-06T13:04:44Z</time>
      </trkpt>
      <trkpt lat="45.07773" lon="4.89933">
        <ele>23.406999588013</ele>
        <time>2011-02-06T13:04:49Z</time>
      </trkpt>
      <trkpt lat="45.07808" lon="4.89873">
        <ele>21.514999389648</ele>
        <time>2011-02-06T13:04:55Z</time>
      </trkpt>
      <trkpt lat="45.07854" lon="4.89793">
        <ele>20.305000305176</ele>
        <time>2011-02-06T13:05:04Z</time>
      </trkpt>
      <trkpt lat="45.07869" lon="4.89767">
        <ele>19.930999755859</ele>
        <time>2011-02-06T13:05:07Z</time>
      </trkpt>
      <trkpt lat="45.0788" lon="4.89715">
        <ele>19.676000595093</ele>
        <time>2011-02-06T13:05:12Z</time>
      </trkpt>
      <trkpt lat="45.07885" lon="4.89636">
        <ele>18.041000366211</ele>
        <time>2011-02-06T13:05:19Z</time>
      </trkpt>
      <trkpt lat="45.07891" lon="4.89559">
        <ele>18.834999084473</ele>
        <time>2011-02-06T13:05:26Z</time>
      </trkpt>
      <trkpt lat="45.07891" lon="4.89487">
        <ele>17.760000228882</ele>
        <time>2011-02-06T13:05:33Z</time>
      </trkpt>
      <trkpt lat="45.07884" lon="4.8942">
        <ele>17.745000839233</ele>
        <time>2011-02-06T13:05:40Z</time>
      </trkpt>
      <trkpt lat="45.07863" lon="4.89345">
        <ele>18.075000762939</ele>
        <time>2011-02-06T13:05:48Z</time>
      </trkpt>
      <trkpt lat="45.0784" lon="4.8928">
        <ele>18.000999450684</ele>
        <time>2011-02-06T13:05:55Z</time>
      </trkpt>
      <trkpt lat="45.07804" lon="4.89193">
        <ele>18.403999328613</ele>
        <time>2011-02-06T13:06:04Z</time>
      </trkpt>
      <trkpt lat="45.07786" lon="4.89135">
        <ele>16.319000244141</ele>
        <time>2011-02-06T13:06:09Z</time>
      </trkpt>
      <trkpt lat="45.07777" lon="4.89107">
        <ele>15.628999710083</ele>
        <time>2011-02-06T13:06:11Z</time>
      </trkpt>
      <trkpt lat="45.07757" lon="4.89052">
        <ele>12.633999824524</ele>
        <time>2011-02-06T13:06:15Z</time>
      </trkpt>
      <trkpt lat="45.07742" lon="4.89028">
        <ele>11.904999732971</ele>
        <time>2011-02-06T13:06:17Z</time>
      </trkpt>
      <trkpt lat="45.07701" lon="4.88983">
        <ele>10.689999580383</ele>
        <time>2011-02-06T13:06:22Z</time>
      </trkpt>
      <trkpt lat="45.07656" lon="4.88957">
        <ele>9.2449998855591</ele>
        <time>2011-02-06T13:06:27Z</time>
      </trkpt>
      <trkpt lat="45.07629" lon="4.88949">
        <ele>7.6770000457764</ele>
        <time>2011-02-06T13:06:30Z</time>
      </trkpt>
      <trkpt lat="45.07594" lon="4.88947">
        <ele>7.1690001487732</ele>
        <time>2011-02-06T13:06:34Z</time>
      </trkpt>
      <trkpt lat="45.07568" lon="4.8895">
        <ele>7.1409997940064</ele>
        <time>2011-02-06T13:06:37Z</time>
      </trkpt>
      <trkpt lat="45.07544" lon="4.88945">
        <ele>6.8940000534058</ele>
        <time>2011-02-06T13:06:40Z</time>
      </trkpt>
      <trkpt lat="45.07509" lon="4.88945">
        <ele>5.9130001068115</ele>
        <time>2011-02-06T13:06:44Z</time>
      </trkpt>
      <trkpt lat="45.07491" lon="4.88937">
        <ele>5.6500000953674</ele>
        <time>2011-02-06T13:06:46Z</time>
      </trkpt>
      <trkpt lat="45.07438" lon="4.88904">
        <ele>5.0209999084473</ele>
        <time>2011-02-06T13:06:52Z</time>
      </trkpt>
      <trkpt lat="45.07408" lon="4.88868">
        <ele>4.2210001945496</ele>
        <time>2011-02-06T13:06:56Z</time>
      </trkpt>
      <trkpt lat="45.07391" lon="4.88835">
        <ele>4.3819999694824</ele>
        <time>2011-02-06T13:06:59Z</time>
      </trkpt>
      <trkpt lat="45.07375" lon="4.88771">
        <ele>3.2709999084473</ele>
        <time>2011-02-06T13:07:04Z</time>
      </trkpt>
      <trkpt lat="45.07361" lon="4.8865">
        <ele>1.5499999523163</ele>
        <time>2011-02-06T13:07:13Z</time>
      </trkpt>
      <trkpt lat="45.0735" lon="4.88586">
        <ele>0.072999998927116</ele>
        <time>2011-02-06T13:07:18Z</time>
      </trkpt>
      <trkpt lat="45.07328" lon="4.88517">
        <ele>-0.74800002574921</ele>
        <time>2011-02-06T13:07:24Z</time>
      </trkpt>
      <trkpt lat="45.073" lon="4.88426">
        <ele>-1.6629999876022</ele>
        <time>2011-02-06T13:07:32Z</time>
      </trkpt>
      <trkpt lat="45.07276" lon="4.88359">
        <ele>-3.1380000114441</ele>
        <time>2011-02-06T13:07:38Z</time>
      </trkpt>
      <trkpt lat="45.07228" lon="4.88277">
        <ele>-4.2950000762939</ele>
        <time>2011-02-06T13:07:46Z</time>
      </trkpt>
      <trkpt lat="45.07153" lon="4.88153">
        <ele>-6.0929999351502</ele>
        <time>2011-02-06T13:07:58Z</time>
      </trkpt>
      <trkpt lat="45.07122" lon="4.88101">
        <ele>-8.3100004196167</ele>
        <time>2011-02-06T13:08:03Z</time>
      </trkpt>
      <trkpt lat="45.0709" lon="4.88034">
        <ele>-7.6680002212524</ele>
        <time>2011-02-06T13:08:09Z</time>
      </trkpt>
      <trkpt lat="45.07053" lon="4.8793">
        <ele>-7.6659998893738</ele>
        <time>2011-02-06T13:08:18Z</time>
      </trkpt>
      <trkpt lat="45.07027" lon="4.87843">
        <ele>-8.3079996109009</ele>
        <time>2011-02-06T13:08:26Z</time>
      </trkpt>
      <trkpt lat="45.06998" lon="4.87741">
        <ele>-9.1730003356934</ele>
        <time>2011-02-06T13:08:35Z</time>
      </trkpt>
      <trkpt lat="45.06962" lon="4.87608">
        <ele>-10.88300037384</ele>
        <time>2011-02-06T13:08:46Z</time>
      </trkpt>
      <trkpt lat="45.06939" lon="4.8755">
        <ele>-12.092000007629</ele>
        <time>2011-02-06T13:08:51Z</time>
      </trkpt>
      <trkpt lat="45.06907" lon="4.87498">
        <ele>-13.041000366211</ele>
        <time>2011-02-06T13:08:56Z</time>
      </trkpt>
      <trkpt lat="45.06876" lon="4.87472">
        <ele>-14.597999572754</ele>
        <time>2011-02-06T13:09:00Z</time>
      </trkpt>
      <trkpt lat="45.06866" lon="4.87462">
        <ele>-15.388999938965</ele>
        <time>2011-02-06T13:09:02Z</time>
      </trkpt>
      <trkpt lat="45.06858" lon="4.87451">
        <ele>-15.239000320435</ele>
        <time>2011-02-06T13:09:04Z</time>
      </trkpt>
      <trkpt lat="45.0685" lon="4.87413">
        <ele>-15.012000083923</ele>
        <time>2011-02-06T13:09:08Z</time>
      </trkpt>
      <trkpt lat="45.0685" lon="4.87391">
        <ele>-14.779000282288</ele>
        <time>2011-02-06T13:09:10Z</time>
      </trkpt>
      <trkpt lat="45.06864" lon="4.87306">
        <ele>-14.770999908447</ele>
        <time>2011-02-06T13:09:18Z</time>
      </trkpt>
      <trkpt lat="45.06885" lon="4.8722">
        <ele>-15.635000228882</ele>
        <time>2011-02-06T13:09:26Z</time>
      </trkpt>
      <trkpt lat="45.06919" lon="4.87142">
        <ele>-15.986000061035</ele>
        <time>2011-02-06T13:09:34Z</time>
      </trkpt>
      <trkpt lat="45.06963" lon="4.87063">
        <ele>-15.918000221252</ele>
        <time>2011-02-06T13:09:43Z</time>
      </trkpt>
      <trkpt lat="45.0699" lon="4.86999">
        <ele>-14.734999656677</ele>
        <time>2011-02-06T13:09:50Z</time>
      </trkpt>
      <trkpt lat="45.07006" lon="4.86929">
        <ele>-15.718999862671</ele>
        <time>2011-02-06T13:09:57Z</time>
      </trkpt>
      <trkpt lat="45.07027" lon="4.86823">
        <ele>-15.897000312805</ele>
        <time>2011-02-06T13:10:07Z</time>
      </trkpt>
      <trkpt lat="45.07032" lon="4.86749">
        <ele>-18.243999481201</ele>
        <time>2011-02-06T13:10:13Z</time>
      </trkpt>
      <trkpt lat="45.07035" lon="4.86723">
        <ele>-19.114999771118</ele>
        <time>2011-02-06T13:10:15Z</time>
      </trkpt>
      <trkpt lat="45.07042" lon="4.86697">
        <ele>-20.025999069214</ele>
        <time>2011-02-06T13:10:17Z</time>
      </trkpt>
      <trkpt lat="45.07077" lon="4.86625">
        <ele>-21.506000518799</ele>
        <time>2011-02-06T13:10:23Z</time>
      </trkpt>
      <trkpt lat="45.07082" lon="4.86613">
        <ele>-21.847999572754</ele>
        <time>2011-02-06T13:10:24Z</time>
      </trkpt>
      <trkpt lat="45.07097" lon="4.86559">
        <ele>-24.127000808716</ele>
        <time>2011-02-06T13:10:28Z</time>
      </trkpt>
      <trkpt lat="45.07092" lon="4.86516">
        <ele>-25.912000656128</ele>
        <time>2011-02-06T13:10:31Z</time>
      </trkpt>
      <trkpt lat="45.07081" lon="4.86491">
        <ele>-26.965999603271</ele>
        <time>2011-02-06T13:10:33Z</time>
      </trkpt>
      <trkpt lat="45.07063" lon="4.86439">
        <ele>-27.635000228882</ele>
        <time>2011-02-06T13:10:37Z</time>
      </trkpt>
      <trkpt lat="45.07058" lon="4.86399">
        <ele>-27.542999267578</ele>
        <time>2011-02-06T13:10:40Z</time>
      </trkpt>
      <trkpt lat="45.07039" lon="4.86369">
        <ele>-27.260999679565</ele>
        <time>2011-02-06T13:10:43Z</time>
      </trkpt>
      <trkpt lat="45.07034" lon="4.86344">
        <ele>-27.474000930786</ele>
        <time>2011-02-06T13:10:45Z</time>
      </trkpt>
      <trkpt lat="45.07043" lon="4.86322">
        <ele>-28.341999053955</ele>
        <time>2011-02-06T13:10:47Z</time>
      </trkpt>
      <trkpt lat="45.07071" lon="4.86259">
        <ele>-28.618000030518</ele>
        <time>2011-02-06T13:10:53Z</time>
      </trkpt>
      <trkpt lat="45.0708" lon="4.86188">
        <ele>-28.745000839233</ele>
        <time>2011-02-06T13:10:59Z</time>
      </trkpt>
      <trkpt lat="45.07079" lon="4.86117">
        <ele>-29.04700088501</ele>
        <time>2011-02-06T13:11:05Z</time>
      </trkpt>
      <trkpt lat="45.07074" lon="4.86035">
        <ele>-30.315000534058</ele>
        <time>2011-02-06T13:11:12Z</time>
      </trkpt>
      <trkpt lat="45.07069" lon="4.85931">
        <ele>-30.45299911499</ele>
        <time>2011-02-06T13:11:21Z</time>
      </trkpt>
      <trkpt lat="45.07077" lon="4.85856">
        <ele>-29.70299911499</ele>
        <time>2011-02-06T13:11:28Z</time>
      </trkpt>
      <trkpt lat="45.07092" lon="4.85808">
        <ele>-29.336999893189</ele>
        <time>2011-02-06T13:11:33Z</time>
      </trkpt>
      <trkpt lat="45.07087" lon="4.85786">
        <ele>-29.466999053955</ele>
        <time>2011-02-06T13:11:35Z</time>
      </trkpt>
      <trkpt lat="45.07086" lon="4.85761">
        <ele>-29.811000823975</ele>
        <time>2011-02-06T13:11:37Z</time>
      </trkpt>
      <trkpt lat="45.0709" lon="4.85667">
        <ele>-32.986999511719</ele>
        <time>2011-02-06T13:11:44Z</time>
      </trkpt>
      <trkpt lat="45.07095" lon="4.85571">
        <ele>-34.001998901367</ele>
        <time>2011-02-06T13:11:51Z</time>
      </trkpt>
      <trkpt lat="45.07101" lon="4.85481">
        <ele>-34.756999969482</ele>
        <time>2011-02-06T13:11:58Z</time>
      </trkpt>
      <trkpt lat="45.07095" lon="4.85391">
        <ele>-35.272998809814</ele>
        <time>2011-02-06T13:12:05Z</time>
      </trkpt>
      <trkpt lat="45.07092" lon="4.85285">
        <ele>-36.158000946045</ele>
        <time>2011-02-06T13:12:13Z</time>
      </trkpt>
      <trkpt lat="45.07087" lon="4.85152">
        <ele>-37.131999969482</ele>
        <time>2011-02-06T13:12:23Z</time>
      </trkpt>
      <trkpt lat="45.0708" lon="4.8505">
        <ele>-38.123001098633</ele>
        <time>2011-02-06T13:12:31Z</time>
      </trkpt>
      <trkpt lat="45.07087" lon="4.84986">
        <ele>-38.567001342773</ele>
        <time>2011-02-06T13:12:36Z</time>
      </trkpt>
      <trkpt lat="45.07084" lon="4.84928">
        <ele>-41.012001037598</ele>
        <time>2011-02-06T13:12:40Z</time>
      </trkpt>
      <trkpt lat="45.07071" lon="4.84858">
        <ele>-41.973999023438</ele>
        <time>2011-02-06T13:12:45Z</time>
      </trkpt>
      <trkpt lat="45.07056" lon="4.84799">
        <ele>-39.515998840332</ele>
        <time>2011-02-06T13:12:50Z</time>
      </trkpt>
      <trkpt lat="45.07054" lon="4.84777">
        <ele>-38.90299987793</ele>
        <time>2011-02-06T13:12:52Z</time>
      </trkpt>
      <trkpt lat="45.07047" lon="4.84724">
        <ele>-38.132999420166</ele>
        <time>2011-02-06T13:12:57Z</time>
      </trkpt>
      <trkpt lat="45.07045" lon="4.84713">
        <ele>-38.104999542236</ele>
        <time>2011-02-06T13:12:58Z</time>
      </trkpt>
      <trkpt lat="45.0703" lon="4.84702">
        <ele>-38.54700088501</ele>
        <time>2011-02-06T13:13:01Z</time>
      </trkpt>
      <trkpt lat="45.07023" lon="4.84704">
        <ele>-38.695999145508</ele>
        <time>2011-02-06T13:13:02Z</time>
      </trkpt>
      <trkpt lat="45.06973" lon="4.84716">
        <ele>-38.81600189209</ele>
        <time>2011-02-06T13:13:08Z</time>
      </trkpt>
      <trkpt lat="45.06903" lon="4.84731">
        <ele>-40.359001159668</ele>
        <time>2011-02-06T13:13:16Z</time>
      </trkpt>
      <trkpt lat="45.06842" lon="4.84743">
        <ele>-40.65599822998</ele>
        <time>2011-02-06T13:13:23Z</time>
      </trkpt>
      <trkpt lat="45.06784" lon="4.84755">
        <ele>-41.224998474121</ele>
        <time>2011-02-06T13:13:30Z</time>
      </trkpt>
      <trkpt lat="45.06778" lon="4.84756">
        <ele>-41.207000732422</ele>
        <time>2011-02-06T13:13:31Z</time>
      </trkpt>
      <trkpt lat="45.06766" lon="4.84751">
        <ele>-41.362998962402</ele>
        <time>2011-02-06T13:13:34Z</time>
      </trkpt>
      <trkpt lat="45.0677" lon="4.84732">
        <ele>-41.04700088501</ele>
        <time>2011-02-06T13:13:37Z</time>
      </trkpt>
      <trkpt lat="45.06797" lon="4.84634">
        <ele>-40.908000946045</ele>
        <time>2011-02-06T13:13:49Z</time>
      </trkpt>
      <trkpt lat="45.06813" lon="4.84563">
        <ele>-40.831001281738</ele>
        <time>2011-02-06T13:13:57Z</time>
      </trkpt>
      <trkpt lat="45.06837" lon="4.84474">
        <ele>-41.080001831055</ele>
        <time>2011-02-06T13:14:07Z</time>
      </trkpt>
      <trkpt lat="45.06854" lon="4.8441">
        <ele>-41.115001678467</ele>
        <time>2011-02-06T13:14:15Z</time>
      </trkpt>
      <trkpt lat="45.06866" lon="4.84367">
        <ele>-41.516998291016</ele>
        <time>2011-02-06T13:14:22Z</time>
      </trkpt>
      <trkpt lat="45.06868" lon="4.8436">
        <ele>-41.689998626709</ele>
        <time>2011-02-06T13:14:26Z</time>
      </trkpt>
      <trkpt lat="45.06871" lon="4.84345">
        <ele>-41.634998321533</ele>
        <time>2011-02-06T13:14:30Z</time>
      </trkpt>
      <trkpt lat="45.0688" lon="4.84314">
        <ele>-41.356998443604</ele>
        <time>2011-02-06T13:14:34Z</time>
      </trkpt>
      <trkpt lat="45.06894" lon="4.84262">
        <ele>-41.351001739502</ele>
        <time>2011-02-06T13:14:41Z</time>
      </trkpt>
      <trkpt lat="45.069" lon="4.84239">
        <ele>-41.562000274658</ele>
        <time>2011-02-06T13:14:47Z</time>
      </trkpt>
      <trkpt lat="45.06903" lon="4.84229">
        <ele>-41.729999542236</ele>
        <time>2011-02-06T13:14:53Z</time>
      </trkpt>
      <trkpt lat="45.06903" lon="4.84226">
        <ele>-41.598999023438</ele>
        <time>2011-02-06T13:14:57Z</time>
      </trkpt>
      <trkpt lat="45.06906" lon="4.84222">
        <ele>-41.700000762939</ele>
        <time>2011-02-06T13:15:20Z</time>
      </trkpt>
      <trkpt lat="45.06903" lon="4.84204">
        <ele>-41.501998901367</ele>
        <time>2011-02-06T13:15:23Z</time>
      </trkpt>
      <trkpt lat="45.06883" lon="4.84191">
        <ele>-40.46900177002</ele>
        <time>2011-02-06T13:15:26Z</time>
      </trkpt>
      <trkpt lat="45.06861" lon="4.84181">
        <ele>-39.92200088501</ele>
        <time>2011-02-06T13:15:29Z</time>
      </trkpt>
      <trkpt lat="45.06854" lon="4.84178">
        <ele>-39.775001525879</ele>
        <time>2011-02-06T13:15:30Z</time>
      </trkpt>
      <trkpt lat="45.0684" lon="4.8417">
        <ele>-39.263999938965</ele>
        <time>2011-02-06T13:15:32Z</time>
      </trkpt>
      <trkpt lat="45.0682" lon="4.84159">
        <ele>-38.548000335693</ele>
        <time>2011-02-06T13:15:35Z</time>
      </trkpt>
      <trkpt lat="45.06806" lon="4.84151">
        <ele>-38.380001068115</ele>
        <time>2011-02-06T13:15:37Z</time>
      </trkpt>
      <trkpt lat="45.06765" lon="4.84126">
        <ele>-36.950000762939</ele>
        <time>2011-02-06T13:15:43Z</time>
      </trkpt>
      <trkpt lat="45.06745" lon="4.84114">
        <ele>-35.686000823975</ele>
        <time>2011-02-06T13:15:46Z</time>
      </trkpt>
      <trkpt lat="45.06688" lon="4.84079">
        <ele>-33.821998596191</ele>
        <time>2011-02-06T13:15:54Z</time>
      </trkpt>
      <trkpt lat="45.06605" lon="4.84028">
        <ele>-33.734001159668</ele>
        <time>2011-02-06T13:16:05Z</time>
      </trkpt>
      <trkpt lat="45.06573" lon="4.84009">
        <ele>-35.661998748779</ele>
        <time>2011-02-06T13:16:09Z</time>
      </trkpt>
      <trkpt lat="45.0656" lon="4.83981">
        <ele>-36.412998199463</ele>
        <time>2011-02-06T13:16:12Z</time>
      </trkpt>
      <trkpt lat="45.06566" lon="4.83958">
        <ele>-36.502998352051</ele>
        <time>2011-02-06T13:16:14Z</time>
      </trkpt>
      <trkpt lat="45.06602" lon="4.83865">
        <ele>-38.540000915527</ele>
        <time>2011-02-06T13:16:23Z</time>
      </trkpt>
      <trkpt lat="45.06633" lon="4.8379">
        <ele>-38.592998504639</ele>
        <time>2011-02-06T13:16:31Z</time>
      </trkpt>
      <trkpt lat="45.06662" lon="4.83721">
        <ele>-38.550998687744</ele>
        <time>2011-02-06T13:16:39Z</time>
      </trkpt>
      <trkpt lat="45.067" lon="4.83636">
        <ele>-38.826000213623</ele>
        <time>2011-02-06T13:16:49Z</time>
      </trkpt>
      <trkpt lat="45.0674" lon="4.83549">
        <ele>-38.592998504639</ele>
        <time>2011-02-06T13:16:59Z</time>
      </trkpt>
      <trkpt lat="45.06764" lon="4.83496">
        <ele>-38.569000244141</ele>
        <time>2011-02-06T13:17:06Z</time>
      </trkpt>
      <trkpt lat="45.06772" lon="4.83478">
        <ele>-39.154998779297</ele>
        <time>2011-02-06T13:17:10Z</time>
      </trkpt>
      <trkpt lat="45.06776" lon="4.83469">
        <ele>-39.339000701904</ele>
        <time>2011-02-06T13:17:15Z</time>
      </trkpt>
      <trkpt lat="45.06782" lon="4.83453">
        <ele>-39.027000427246</ele>
        <time>2011-02-06T13:17:19Z</time>
      </trkpt>
      <trkpt lat="45.06797" lon="4.83423">
        <ele>-38.445999145508</ele>
        <time>2011-02-06T13:17:23Z</time>
      </trkpt>
      <trkpt lat="45.06837" lon="4.83352">
        <ele>-40.101001739502</ele>
        <time>2011-02-06T13:17:31Z</time>
      </trkpt>
      <trkpt lat="45.06864" lon="4.83297">
        <ele>-39.812999725342</ele>
        <time>2011-02-06T13:17:37Z</time>
      </trkpt>
      <trkpt lat="45.06876" lon="4.83266">
        <ele>-39.801998138428</ele>
        <time>2011-02-06T13:17:41Z</time>
      </trkpt>
      <trkpt lat="45.06883" lon="4.83241">
        <ele>-39.386001586914</ele>
        <time>2011-02-06T13:17:44Z</time>
      </trkpt>
      <trkpt lat="45.06897" lon="4.83206">
        <ele>-40.173000335693</ele>
        <time>2011-02-06T13:17:48Z</time>
      </trkpt>
      <trkpt lat="45.06925" lon="4.83148">
        <ele>-41.657001495361</ele>
        <time>2011-02-06T13:17:54Z</time>
      </trkpt>
      <trkpt lat="45.06954" lon="4.83094">
        <ele>-42.750999450684</ele>
        <time>2011-02-06T13:18:00Z</time>
      </trkpt>
      <trkpt lat="45.06993" lon="4.83033">
        <ele>-42.80899810791</ele>
        <time>2011-02-06T13:18:08Z</time>
      </trkpt>
      <trkpt lat="45.07026" lon="4.82993">
        <ele>-42.647998809814</ele>
        <time>2011-02-06T13:18:14Z</time>
      </trkpt>
      <trkpt lat="45.07048" lon="4.82964">
        <ele>-42.833999633789</ele>
        <time>2011-02-06T13:18:18Z</time>
      </trkpt>
      <trkpt lat="45.07063" lon="4.8293">
        <ele>-43.03099822998</ele>
        <time>2011-02-06T13:18:22Z</time>
      </trkpt>
      <trkpt lat="45.0706" lon="4.82901">
        <ele>-42.666999816895</ele>
        <time>2011-02-06T13:18:25Z</time>
      </trkpt>
      <trkpt lat="45.07058" lon="4.82882">
        <ele>-42.485000610352</ele>
        <time>2011-02-06T13:18:27Z</time>
      </trkpt>
      <trkpt lat="45.07059" lon="4.82851">
        <ele>-41.930000305176</ele>
        <time>2011-02-06T13:18:31Z</time>
      </trkpt>
      <trkpt lat="45.07049" lon="4.82824">
        <ele>-41.553001403809</ele>
        <time>2011-02-06T13:18:35Z</time>
      </trkpt>
      <trkpt lat="45.0704" lon="4.82811">
        <ele>-41.278999328613</ele>
        <time>2011-02-06T13:18:37Z</time>
      </trkpt>
      <trkpt lat="45.07029" lon="4.82791">
        <ele>-41.833999633789</ele>
        <time>2011-02-06T13:18:41Z</time>
      </trkpt>
      <trkpt lat="45.07039" lon="4.82773">
        <ele>-41.756000518799</ele>
        <time>2011-02-06T13:18:44Z</time>
      </trkpt>
      <trkpt lat="45.0707" lon="4.82718">
        <ele>-41.187999725342</ele>
        <time>2011-02-06T13:18:51Z</time>
      </trkpt>
      <trkpt lat="45.07087" lon="4.82671">
        <ele>-41.122001647949</ele>
        <time>2011-02-06T13:18:56Z</time>
      </trkpt>
      <trkpt lat="45.07114" lon="4.82591">
        <ele>-41.358001708984</ele>
        <time>2011-02-06T13:19:04Z</time>
      </trkpt>
      <trkpt lat="45.07147" lon="4.82491">
        <ele>-41.568000793457</ele>
        <time>2011-02-06T13:19:14Z</time>
      </trkpt>
      <trkpt lat="45.07176" lon="4.82401">
        <ele>-40.578998565674</ele>
        <time>2011-02-06T13:19:23Z</time>
      </trkpt>
      <trkpt lat="45.07207" lon="4.82311">
        <ele>-40.216999053955</ele>
        <time>2011-02-06T13:19:32Z</time>
      </trkpt>
      <trkpt lat="45.07232" lon="4.82234">
        <ele>-38.59400177002</ele>
        <time>2011-02-06T13:19:40Z</time>
      </trkpt>
      <trkpt lat="45.07235" lon="4.82225">
        <ele>-38.49100112915</ele>
        <time>2011-02-06T13:19:41Z</time>
      </trkpt>
      <trkpt lat="45.07253" lon="4.82195">
        <ele>-37.804000854492</ele>
        <time>2011-02-06T13:19:45Z</time>
      </trkpt>
      <trkpt lat="45.07255" lon="4.82179">
        <ele>-38.201000213623</ele>
        <time>2011-02-06T13:19:47Z</time>
      </trkpt>
      <trkpt lat="45.07245" lon="4.82169">
        <ele>-38.181999206543</ele>
        <time>2011-02-06T13:19:49Z</time>
      </trkpt>
      <trkpt lat="45.07238" lon="4.82167">
        <ele>-38.091999053955</ele>
        <time>2011-02-06T13:19:50Z</time>
      </trkpt>
      <trkpt lat="45.07201" lon="4.82137">
        <ele>-38.44100189209</ele>
        <time>2011-02-06T13:19:56Z</time>
      </trkpt>
      <trkpt lat="45.07168" lon="4.82105">
        <ele>-38.821998596191</ele>
        <time>2011-02-06T13:20:01Z</time>
      </trkpt>
      <trkpt lat="45.07128" lon="4.82062">
        <ele>-38.64400100708</ele>
        <time>2011-02-06T13:20:08Z</time>
      </trkpt>
      <trkpt lat="45.07074" lon="4.82002">
        <ele>-38.042999267578</ele>
        <time>2011-02-06T13:20:17Z</time>
      </trkpt>
      <trkpt lat="45.0703" lon="4.81945">
        <ele>-37.018001556396</ele>
        <time>2011-02-06T13:20:25Z</time>
      </trkpt>
      <trkpt lat="45.07003" lon="4.81895">
        <ele>-36.472999572754</ele>
        <time>2011-02-06T13:20:31Z</time>
      </trkpt>
      <trkpt lat="45.06985" lon="4.81841">
        <ele>-36.051998138428</ele>
        <time>2011-02-06T13:20:37Z</time>
      </trkpt>
      <trkpt lat="45.06965" lon="4.81769">
        <ele>-35.25899887085</ele>
        <time>2011-02-06T13:20:45Z</time>
      </trkpt>
      <trkpt lat="45.06936" lon="4.8167">
        <ele>-34.963001251221</ele>
        <time>2011-02-06T13:20:55Z</time>
      </trkpt>
      <trkpt lat="45.06913" lon="4.8159">
        <ele>-34.908000946045</ele>
        <time>2011-02-06T13:21:03Z</time>
      </trkpt>
      <trkpt lat="45.06889" lon="4.81508">
        <ele>-34.312999725342</ele>
        <time>2011-02-06T13:21:11Z</time>
      </trkpt>
      <trkpt lat="45.06886" lon="4.81499">
        <ele>-34.173999786377</ele>
        <time>2011-02-06T13:21:12Z</time>
      </trkpt>
      <trkpt lat="45.06853" lon="4.81392">
        <ele>-32.903999328613</ele>
        <time>2011-02-06T13:21:23Z</time>
      </trkpt>
      <trkpt lat="45.06818" lon="4.81301">
        <ele>-31.927000045776</ele>
        <time>2011-02-06T13:21:33Z</time>
      </trkpt>
      <trkpt lat="45.06797" lon="4.8126">
        <ele>-31.556999206543</ele>
        <time>2011-02-06T13:21:38Z</time>
      </trkpt>
      <trkpt lat="45.06776" lon="4.812">
        <ele>-30.625999450684</ele>
        <time>2011-02-06T13:21:45Z</time>
      </trkpt>
      <trkpt lat="45.06774" lon="4.81191">
        <ele>-30.569000244141</ele>
        <time>2011-02-06T13:21:46Z</time>
      </trkpt>
      <trkpt lat="45.06749" lon="4.81126">
        <ele>-29.381000518799</ele>
        <time>2011-02-06T13:21:54Z</time>
      </trkpt>
      <trkpt lat="45.06736" lon="4.8109">
        <ele>-29.065999984741</ele>
        <time>2011-02-06T13:21:58Z</time>
      </trkpt>
      <trkpt lat="45.06726" lon="4.81041">
        <ele>-28.858999252319</ele>
        <time>2011-02-06T13:22:03Z</time>
      </trkpt>
      <trkpt lat="45.06715" lon="4.80949">
        <ele>-29.885000228882</ele>
        <time>2011-02-06T13:22:11Z</time>
      </trkpt>
      <trkpt lat="45.0671" lon="4.8088">
        <ele>-30.892000198364</ele>
        <time>2011-02-06T13:22:17Z</time>
      </trkpt>
      <trkpt lat="45.06713" lon="4.80836">
        <ele>-30.895999908447</ele>
        <time>2011-02-06T13:22:21Z</time>
      </trkpt>
      <trkpt lat="45.06701" lon="4.80809">
        <ele>-31.395999908447</ele>
        <time>2011-02-06T13:22:24Z</time>
      </trkpt>
      <trkpt lat="45.06697" lon="4.80788">
        <ele>-31.075000762939</ele>
        <time>2011-02-06T13:22:26Z</time>
      </trkpt>
      <trkpt lat="45.06688" lon="4.80683">
        <ele>-31.351999282837</ele>
        <time>2011-02-06T13:22:35Z</time>
      </trkpt>
      <trkpt lat="45.06688" lon="4.8062">
        <ele>-32.937000274658</ele>
        <time>2011-02-06T13:22:40Z</time>
      </trkpt>
      <trkpt lat="45.06688" lon="4.80518">
        <ele>-33.80899810791</ele>
        <time>2011-02-06T13:22:48Z</time>
      </trkpt>
      <trkpt lat="45.06688" lon="4.80429">
        <ele>-34.178001403809</ele>
        <time>2011-02-06T13:22:55Z</time>
      </trkpt>
      <trkpt lat="45.06688" lon="4.80329">
        <ele>-33.708999633789</ele>
        <time>2011-02-06T13:23:03Z</time>
      </trkpt>
      <trkpt lat="45.0669" lon="4.80241">
        <ele>-34.201999664307</ele>
        <time>2011-02-06T13:23:10Z</time>
      </trkpt>
      <trkpt lat="45.06693" lon="4.80105">
        <ele>-33.854999542236</ele>
        <time>2011-02-06T13:23:21Z</time>
      </trkpt>
      <trkpt lat="45.06695" lon="4.79974">
        <ele>-33.463001251221</ele>
        <time>2011-02-06T13:23:32Z</time>
      </trkpt>
      <trkpt lat="45.06696" lon="4.79866">
        <ele>-33.667999267578</ele>
        <time>2011-02-06T13:23:41Z</time>
      </trkpt>
      <trkpt lat="45.0669" lon="4.79774">
        <ele>-33.104000091553</ele>
        <time>2011-02-06T13:23:49Z</time>
      </trkpt>
      <trkpt lat="45.06673" lon="4.79723">
        <ele>-32.448001861572</ele>
        <time>2011-02-06T13:23:54Z</time>
      </trkpt>
      <trkpt lat="45.06639" lon="4.79649">
        <ele>-30.604999542236</ele>
        <time>2011-02-06T13:24:02Z</time>
      </trkpt>
      <trkpt lat="45.0661" lon="4.7958">
        <ele>-29.232000350952</ele>
        <time>2011-02-06T13:24:10Z</time>
      </trkpt>
      <trkpt lat="45.0658" lon="4.7949">
        <ele>-28.792999267578</ele>
        <time>2011-02-06T13:24:19Z</time>
      </trkpt>
      <trkpt lat="45.06548" lon="4.79394">
        <ele>-28.125999450684</ele>
        <time>2011-02-06T13:24:29Z</time>
      </trkpt>
      <trkpt lat="45.06527" lon="4.79348">
        <ele>-27.663000106811</ele>
        <time>2011-02-06T13:24:34Z</time>
      </trkpt>
      <trkpt lat="45.06491" lon="4.79308">
        <ele>-27.031999588013</ele>
        <time>2011-02-06T13:24:40Z</time>
      </trkpt>
      <trkpt lat="45.06458" lon="4.79265">
        <ele>-26.586999893189</ele>
        <time>2011-02-06T13:24:46Z</time>
      </trkpt>
      <trkpt lat="45.06435" lon="4.7921">
        <ele>-26.615999221802</ele>
        <time>2011-02-06T13:24:52Z</time>
      </trkpt>
      <trkpt lat="45.06432" lon="4.792">
        <ele>-26.583999633789</ele>
        <time>2011-02-06T13:24:53Z</time>
      </trkpt>
      <trkpt lat="45.0643" lon="4.79144">
        <ele>-26.221000671387</ele>
        <time>2011-02-06T13:24:58Z</time>
      </trkpt>
      <trkpt lat="45.06434" lon="4.79123">
        <ele>-26.357000350952</ele>
        <time>2011-02-06T13:25:00Z</time>
      </trkpt>
      <trkpt lat="45.06466" lon="4.79037">
        <ele>-26.25</ele>
        <time>2011-02-06T13:25:09Z</time>
      </trkpt>
      <trkpt lat="45.06485" lon="4.78967">
        <ele>-25.781000137329</ele>
        <time>2011-02-06T13:25:16Z</time>
      </trkpt>
      <trkpt lat="45.06499" lon="4.78897">
        <ele>-25.225999832153</ele>
        <time>2011-02-06T13:25:23Z</time>
      </trkpt>
      <trkpt lat="45.06514" lon="4.78827">
        <ele>-24.479000091553</ele>
        <time>2011-02-06T13:25:30Z</time>
      </trkpt>
      <trkpt lat="45.06536" lon="4.78762">
        <ele>-23.92200088501</ele>
        <time>2011-02-06T13:25:37Z</time>
      </trkpt>
      <trkpt lat="45.06565" lon="4.7871">
        <ele>-22.951999664307</ele>
        <time>2011-02-06T13:25:44Z</time>
      </trkpt>
      <trkpt lat="45.06603" lon="4.78637">
        <ele>-21.802000045776</ele>
        <time>2011-02-06T13:25:54Z</time>
      </trkpt>
      <trkpt lat="45.06621" lon="4.78578">
        <ele>-21.069999694824</ele>
        <time>2011-02-06T13:26:01Z</time>
      </trkpt>
      <trkpt lat="45.06638" lon="4.78508">
        <ele>-20.346000671387</ele>
        <time>2011-02-06T13:26:09Z</time>
      </trkpt>
      <trkpt lat="45.06637" lon="4.78444">
        <ele>-19.736000061035</ele>
        <time>2011-02-06T13:26:16Z</time>
      </trkpt>
      <trkpt lat="45.06628" lon="4.78384">
        <ele>-18.298999786377</ele>
        <time>2011-02-06T13:26:23Z</time>
      </trkpt>
      <trkpt lat="45.06627" lon="4.78369">
        <ele>-18.093999862671</ele>
        <time>2011-02-06T13:26:25Z</time>
      </trkpt>
      <trkpt lat="45.06629" lon="4.78306">
        <ele>-16.867000579834</ele>
        <time>2011-02-06T13:26:34Z</time>
      </trkpt>
      <trkpt lat="45.06628" lon="4.78235">
        <ele>-15.347999572754</ele>
        <time>2011-02-06T13:26:44Z</time>
      </trkpt>
      <trkpt lat="45.06624" lon="4.78205">
        <ele>-14.911999702454</ele>
        <time>2011-02-06T13:26:48Z</time>
      </trkpt>
      <trkpt lat="45.06615" lon="4.78177">
        <ele>-14.572999954224</ele>
        <time>2011-02-06T13:26:52Z</time>
      </trkpt>
      <trkpt lat="45.06612" lon="4.78142">
        <ele>-13.96399974823</ele>
        <time>2011-02-06T13:26:57Z</time>
      </trkpt>
      <trkpt lat="45.06621" lon="4.78133">
        <ele>-13.8140001297</ele>
        <time>2011-02-06T13:26:59Z</time>
      </trkpt>
      <trkpt lat="45.06635" lon="4.78121">
        <ele>-13.454999923706</ele>
        <time>2011-02-06T13:27:02Z</time>
      </trkpt>
      <trkpt lat="45.06681" lon="4.78098">
        <ele>-11.208000183106</ele>
        <time>2011-02-06T13:27:11Z</time>
      </trkpt>
      <trkpt lat="45.06693" lon="4.78093">
        <ele>-11.612999916077</ele>
        <time>2011-02-06T13:27:13Z</time>
      </trkpt>
      <trkpt lat="45.06718" lon="4.78097">
        <ele>-11.897999763489</ele>
        <time>2011-02-06T13:27:17Z</time>
      </trkpt>
      <trkpt lat="45.06728" lon="4.7812">
        <ele>-11.60000038147</ele>
        <time>2011-02-06T13:27:20Z</time>
      </trkpt>
      <trkpt lat="45.0673" lon="4.78128">
        <ele>-11.173999786377</ele>
        <time>2011-02-06T13:27:21Z</time>
      </trkpt>
      <trkpt lat="45.06739" lon="4.78173">
        <ele>-9.8079996109009</ele>
        <time>2011-02-06T13:27:27Z</time>
      </trkpt>
      <trkpt lat="45.06746" lon="4.78214">
        <ele>-7.6360001564026</ele>
        <time>2011-02-06T13:27:34Z</time>
      </trkpt>
      <trkpt lat="45.06754" lon="4.78247">
        <ele>-5.5359997749329</ele>
        <time>2011-02-06T13:27:41Z</time>
      </trkpt>
      <trkpt lat="45.06759" lon="4.78271">
        <ele>-4.3949999809265</ele>
        <time>2011-02-06T13:27:47Z</time>
      </trkpt>
      <trkpt lat="45.06773" lon="4.78296">
        <ele>-2.9639999866486</ele>
        <time>2011-02-06T13:27:55Z</time>
      </trkpt>
      <trkpt lat="45.06789" lon="4.78311">
        <ele>-1.4110000133514</ele>
        <time>2011-02-06T13:28:02Z</time>
      </trkpt>
      <trkpt lat="45.06811" lon="4.78331">
        <ele>0.60900002717972</ele>
        <time>2011-02-06T13:28:10Z</time>
      </trkpt>
      <trkpt lat="45.06834" lon="4.78343">
        <ele>2.5130000114441</ele>
        <time>2011-02-06T13:28:17Z</time>
      </trkpt>
      <trkpt lat="45.06868" lon="4.78351">
        <ele>4.8730001449585</ele>
        <time>2011-02-06T13:28:26Z</time>
      </trkpt>
      <trkpt lat="45.06897" lon="4.78356">
        <ele>7.2750000953674</ele>
        <time>2011-02-06T13:28:35Z</time>
      </trkpt>
      <trkpt lat="45.06908" lon="4.78371">
        <ele>8.9469995498657</ele>
        <time>2011-02-06T13:28:41Z</time>
      </trkpt>
      <trkpt lat="45.06909" lon="4.78393">
        <ele>10.751999855042</ele>
        <time>2011-02-06T13:28:47Z</time>
      </trkpt>
      <trkpt lat="45.06898" lon="4.78411">
        <ele>12.02499961853</ele>
        <time>2011-02-06T13:28:53Z</time>
      </trkpt>
      <trkpt lat="45.06879" lon="4.78436">
        <ele>13.862999916077</ele>
        <time>2011-02-06T13:29:02Z</time>
      </trkpt>
      <trkpt lat="45.06874" lon="4.78459">
        <ele>15.336000442505</ele>
        <time>2011-02-06T13:29:08Z</time>
      </trkpt>
      <trkpt lat="45.06877" lon="4.78491">
        <ele>16.856000900269</ele>
        <time>2011-02-06T13:29:16Z</time>
      </trkpt>
      <trkpt lat="45.06884" lon="4.78532">
        <ele>18.981000900269</ele>
        <time>2011-02-06T13:29:26Z</time>
      </trkpt>
      <trkpt lat="45.06887" lon="4.78556">
        <ele>20.200000762939</ele>
        <time>2011-02-06T13:29:32Z</time>
      </trkpt>
      <trkpt lat="45.06894" lon="4.78593">
        <ele>22.301000595093</ele>
        <time>2011-02-06T13:29:41Z</time>
      </trkpt>
      <trkpt lat="45.06899" lon="4.78629">
        <ele>24.433000564575</ele>
        <time>2011-02-06T13:29:50Z</time>
      </trkpt>
      <trkpt lat="45.06904" lon="4.78657">
        <ele>25.913999557495</ele>
        <time>2011-02-06T13:29:57Z</time>
      </trkpt>
      <trkpt lat="45.0691" lon="4.7869">
        <ele>27.690999984741</ele>
        <time>2011-02-06T13:30:05Z</time>
      </trkpt>
      <trkpt lat="45.06918" lon="4.78713">
        <ele>28.825000762939</ele>
        <time>2011-02-06T13:30:11Z</time>
      </trkpt>
      <trkpt lat="45.06936" lon="4.78743">
        <ele>31.243999481201</ele>
        <time>2011-02-06T13:30:20Z</time>
      </trkpt>
      <trkpt lat="45.06949" lon="4.78761">
        <ele>32.409999847412</ele>
        <time>2011-02-06T13:30:26Z</time>
      </trkpt>
      <trkpt lat="45.06956" lon="4.7878">
        <ele>33.298000335693</ele>
        <time>2011-02-06T13:30:31Z</time>
      </trkpt>
      <trkpt lat="45.06951" lon="4.78803">
        <ele>34.554000854492</ele>
        <time>2011-02-06T13:30:36Z</time>
      </trkpt>
      <trkpt lat="45.06952" lon="4.78826">
        <ele>35.981998443604</ele>
        <time>2011-02-06T13:30:41Z</time>
      </trkpt>
      <trkpt lat="45.06959" lon="4.78852">
        <ele>37.951000213623</ele>
        <time>2011-02-06T13:30:48Z</time>
      </trkpt>
      <trkpt lat="45.06973" lon="4.78878">
        <ele>39.293998718262</ele>
        <time>2011-02-06T13:30:56Z</time>
      </trkpt>
      <trkpt lat="45.0697" lon="4.78901">
        <ele>40.65299987793</ele>
        <time>2011-02-06T13:31:01Z</time>
      </trkpt>
      <trkpt lat="45.06953" lon="4.78924">
        <ele>42.798000335693</ele>
        <time>2011-02-06T13:31:08Z</time>
      </trkpt>
      <trkpt lat="45.06938" lon="4.78949">
        <ele>44.541999816895</ele>
        <time>2011-02-06T13:31:15Z</time>
      </trkpt>
      <trkpt lat="45.06932" lon="4.78979">
        <ele>45.728000640869</ele>
        <time>2011-02-06T13:31:22Z</time>
      </trkpt>
      <trkpt lat="45.06934" lon="4.79019">
        <ele>47.46900177002</ele>
        <time>2011-02-06T13:31:31Z</time>
      </trkpt>
      <trkpt lat="45.06937" lon="4.79046">
        <ele>48.735000610352</ele>
        <time>2011-02-06T13:31:37Z</time>
      </trkpt>
      <trkpt lat="45.06944" lon="4.79067">
        <ele>49.674999237061</ele>
        <time>2011-02-06T13:31:42Z</time>
      </trkpt>
      <trkpt lat="45.06959" lon="4.79084">
        <ele>51.675998687744</ele>
        <time>2011-02-06T13:31:48Z</time>
      </trkpt>
      <trkpt lat="45.06983" lon="4.79103">
        <ele>53.525001525879</ele>
        <time>2011-02-06T13:31:56Z</time>
      </trkpt>
      <trkpt lat="45.07003" lon="4.7912">
        <ele>55.134998321533</ele>
        <time>2011-02-06T13:32:04Z</time>
      </trkpt>
      <trkpt lat="45.07014" lon="4.7912">
        <ele>55.75</ele>
        <time>2011-02-06T13:32:08Z</time>
      </trkpt>
      <trkpt lat="45.07019" lon="4.79105">
        <ele>56.443000793457</ele>
        <time>2011-02-06T13:32:13Z</time>
      </trkpt>
      <trkpt lat="45.0701" lon="4.79091">
        <ele>56.763999938965</ele>
        <time>2011-02-06T13:32:17Z</time>
      </trkpt>
      <trkpt lat="45.06981" lon="4.79066">
        <ele>58.13399887085</ele>
        <time>2011-02-06T13:32:26Z</time>
      </trkpt>
      <trkpt lat="45.06969" lon="4.79041">
        <ele>59.880001068115</ele>
        <time>2011-02-06T13:32:32Z</time>
      </trkpt>
      <trkpt lat="45.06965" lon="4.79015">
        <ele>61.735000610352</ele>
        <time>2011-02-06T13:32:38Z</time>
      </trkpt>
      <trkpt lat="45.0697" lon="4.78986">
        <ele>63.409000396729</ele>
        <time>2011-02-06T13:32:45Z</time>
      </trkpt>
      <trkpt lat="45.06986" lon="4.78959">
        <ele>65.541999816895</ele>
        <time>2011-02-06T13:32:53Z</time>
      </trkpt>
      <trkpt lat="45.07008" lon="4.78937">
        <ele>67.373001098633</ele>
        <time>2011-02-06T13:33:01Z</time>
      </trkpt>
      <trkpt lat="45.07029" lon="4.78925">
        <ele>68.964996337891</ele>
        <time>2011-02-06T13:33:08Z</time>
      </trkpt>
      <trkpt lat="45.07036" lon="4.78909">
        <ele>69.674003601074</ele>
        <time>2011-02-06T13:33:12Z</time>
      </trkpt>
      <trkpt lat="45.07036" lon="4.78892">
        <ele>69.83699798584</ele>
        <time>2011-02-06T13:33:15Z</time>
      </trkpt>
      <trkpt lat="45.07021" lon="4.78847">
        <ele>71.241996765137</ele>
        <time>2011-02-06T13:33:24Z</time>
      </trkpt>
      <trkpt lat="45.07013" lon="4.78807">
        <ele>73.013999938965</ele>
        <time>2011-02-06T13:33:33Z</time>
      </trkpt>
      <trkpt lat="45.07017" lon="4.78771">
        <ele>74.921997070312</ele>
        <time>2011-02-06T13:33:41Z</time>
      </trkpt>
      <trkpt lat="45.07022" lon="4.78726">
        <ele>77.557998657227</ele>
        <time>2011-02-06T13:33:51Z</time>
      </trkpt>
      <trkpt lat="45.07016" lon="4.78696">
        <ele>78.899002075195</ele>
        <time>2011-02-06T13:33:58Z</time>
      </trkpt>
      <trkpt lat="45.06998" lon="4.78662">
        <ele>80.911003112793</ele>
        <time>2011-02-06T13:34:07Z</time>
      </trkpt>
      <trkpt lat="45.06992" lon="4.78635">
        <ele>82.013000488281</ele>
        <time>2011-02-06T13:34:13Z</time>
      </trkpt>
      <trkpt lat="45.06993" lon="4.78604">
        <ele>83.747001647949</ele>
        <time>2011-02-06T13:34:20Z</time>
      </trkpt>
      <trkpt lat="45.07001" lon="4.78575">
        <ele>85.638999938965</ele>
        <time>2011-02-06T13:34:27Z</time>
      </trkpt>
      <trkpt lat="45.07016" lon="4.78554">
        <ele>87.63200378418</ele>
        <time>2011-02-06T13:34:34Z</time>
      </trkpt>
      <trkpt lat="45.07032" lon="4.78539">
        <ele>88.901000976562</ele>
        <time>2011-02-06T13:34:41Z</time>
      </trkpt>
      <trkpt lat="45.07055" lon="4.78517">
        <ele>90.802001953125</ele>
        <time>2011-02-06T13:34:51Z</time>
      </trkpt>
      <trkpt lat="45.07067" lon="4.78495">
        <ele>91.824996948242</ele>
        <time>2011-02-06T13:34:58Z</time>
      </trkpt>
      <trkpt lat="45.07069" lon="4.78467">
        <ele>92.552001953125</ele>
        <time>2011-02-06T13:35:04Z</time>
      </trkpt>
      <trkpt lat="45.07069" lon="4.78434">
        <ele>94.113998413086</ele>
        <time>2011-02-06T13:35:11Z</time>
      </trkpt>
      <trkpt lat="45.07082" lon="4.78404">
        <ele>95.900001525879</ele>
        <time>2011-02-06T13:35:19Z</time>
      </trkpt>
      <trkpt lat="45.07101" lon="4.78374">
        <ele>97.533996582031</ele>
        <time>2011-02-06T13:35:28Z</time>
      </trkpt>
      <trkpt lat="45.07121" lon="4.78367">
        <ele>99.045997619629</ele>
        <time>2011-02-06T13:35:34Z</time>
      </trkpt>
      <trkpt lat="45.07151" lon="4.78367">
        <ele>100.86599731445</ele>
        <time>2011-02-06T13:35:44Z</time>
      </trkpt>
      <trkpt lat="45.07172" lon="4.78369">
        <ele>102.47599792481</ele>
        <time>2011-02-06T13:35:51Z</time>
      </trkpt>
      <trkpt lat="45.07198" lon="4.78374">
        <ele>104.30100250244</ele>
        <time>2011-02-06T13:36:00Z</time>
      </trkpt>
      <trkpt lat="45.07221" lon="4.78381">
        <ele>106.06400299072</ele>
        <time>2011-02-06T13:36:08Z</time>
      </trkpt>
      <trkpt lat="45.07245" lon="4.78389">
        <ele>107.6669998169</ele>
        <time>2011-02-06T13:36:16Z</time>
      </trkpt>
      <trkpt lat="45.07267" lon="4.78406">
        <ele>109.32299804688</ele>
        <time>2011-02-06T13:36:24Z</time>
      </trkpt>
      <trkpt lat="45.07289" lon="4.78428">
        <ele>111.31099700928</ele>
        <time>2011-02-06T13:36:32Z</time>
      </trkpt>
      <trkpt lat="45.07306" lon="4.78443">
        <ele>112.88400268555</ele>
        <time>2011-02-06T13:36:39Z</time>
      </trkpt>
      <trkpt lat="45.07316" lon="4.78446">
        <ele>114.71199798584</ele>
        <time>2011-02-06T13:36:45Z</time>
      </trkpt>
      <trkpt lat="45.07328" lon="4.78447">
        <ele>116.25900268555</ele>
        <time>2011-02-06T13:36:51Z</time>
      </trkpt>
      <trkpt lat="45.07344" lon="4.78445">
        <ele>118.39199829102</ele>
        <time>2011-02-06T13:36:59Z</time>
      </trkpt>
      <trkpt lat="45.07357" lon="4.78445">
        <ele>119.74600219727</ele>
        <time>2011-02-06T13:37:05Z</time>
      </trkpt>
      <trkpt lat="45.07368" lon="4.78448">
        <ele>121.22100067139</ele>
        <time>2011-02-06T13:37:11Z</time>
      </trkpt>
      <trkpt lat="45.07378" lon="4.7845">
        <ele>122.69799804688</ele>
        <time>2011-02-06T13:37:17Z</time>
      </trkpt>
      <trkpt lat="45.07382" lon="4.78462">
        <ele>124.2679977417</ele>
        <time>2011-02-06T13:37:22Z</time>
      </trkpt>
      <trkpt lat="45.0737" lon="4.78464">
        <ele>124.94300079346</ele>
        <time>2011-02-06T13:37:27Z</time>
      </trkpt>
      <trkpt lat="45.07349" lon="4.78465">
        <ele>125.01399993897</ele>
        <time>2011-02-06T13:37:33Z</time>
      </trkpt>
      <trkpt lat="45.07323" lon="4.78468">
        <ele>126.08000183106</ele>
        <time>2011-02-06T13:37:40Z</time>
      </trkpt>
      <trkpt lat="45.07307" lon="4.78467">
        <ele>127.56600189209</ele>
        <time>2011-02-06T13:37:46Z</time>
      </trkpt>
      <trkpt lat="45.07293" lon="4.78462">
        <ele>128.99600219727</ele>
        <time>2011-02-06T13:37:52Z</time>
      </trkpt>
      <trkpt lat="45.07275" lon="4.78455">
        <ele>131.11599731445</ele>
        <time>2011-02-06T13:38:00Z</time>
      </trkpt>
      <trkpt lat="45.07265" lon="4.7845">
        <ele>132.4940032959</ele>
        <time>2011-02-06T13:38:05Z</time>
      </trkpt>
      <trkpt lat="45.07251" lon="4.78453">
        <ele>133.90699768066</ele>
        <time>2011-02-06T13:38:11Z</time>
      </trkpt>
      <trkpt lat="45.07236" lon="4.78452">
        <ele>135.94500732422</ele>
        <time>2011-02-06T13:38:18Z</time>
      </trkpt>
      <trkpt lat="45.07224" lon="4.78452">
        <ele>137.42900085449</ele>
        <time>2011-02-06T13:38:24Z</time>
      </trkpt>
      <trkpt lat="45.07214" lon="4.78454">
        <ele>138.46499633789</ele>
        <time>2011-02-06T13:38:29Z</time>
      </trkpt>
      <trkpt lat="45.072" lon="4.78459">
        <ele>139.64999389648</ele>
        <time>2011-02-06T13:38:35Z</time>
      </trkpt>
      <trkpt lat="45.07184" lon="4.78465">
        <ele>141.08700561523</ele>
        <time>2011-02-06T13:38:41Z</time>
      </trkpt>
      <trkpt lat="45.07175" lon="4.78474">
        <ele>142.33099365234</ele>
        <time>2011-02-06T13:38:46Z</time>
      </trkpt>
      <trkpt lat="45.07174" lon="4.78487">
        <ele>143.41799926758</ele>
        <time>2011-02-06T13:38:51Z</time>
      </trkpt>
      <trkpt lat="45.07179" lon="4.78505">
        <ele>144.90199279785</ele>
        <time>2011-02-06T13:38:58Z</time>
      </trkpt>
      <trkpt lat="45.07185" lon="4.78521">
        <ele>146.93600463867</ele>
        <time>2011-02-06T13:39:05Z</time>
      </trkpt>
      <trkpt lat="45.07188" lon="4.78539">
        <ele>148.375</ele>
        <time>2011-02-06T13:39:12Z</time>
      </trkpt>
      <trkpt lat="45.07184" lon="4.78559">
        <ele>149.75999450684</ele>
        <time>2011-02-06T13:39:19Z</time>
      </trkpt>
      <trkpt lat="45.07179" lon="4.78575">
        <ele>150.35200500488</ele>
        <time>2011-02-06T13:39:24Z</time>
      </trkpt>
      <trkpt lat="45.07175" lon="4.78605">
        <ele>152.03300476074</ele>
        <time>2011-02-06T13:39:33Z</time>
      </trkpt>
      <trkpt lat="45.07181" lon="4.78631">
        <ele>152.07499694824</ele>
        <time>2011-02-06T13:39:39Z</time>
      </trkpt>
      <trkpt lat="45.07182" lon="4.78658">
        <ele>151.24000549316</ele>
        <time>2011-02-06T13:39:44Z</time>
      </trkpt>
      <trkpt lat="45.0718" lon="4.7868">
        <ele>152.49099731445</ele>
        <time>2011-02-06T13:39:50Z</time>
      </trkpt>
      <trkpt lat="45.07177" lon="4.78702">
        <ele>154.45700073242</ele>
        <time>2011-02-06T13:39:58Z</time>
      </trkpt>
      <trkpt lat="45.07174" lon="4.78721">
        <ele>155.87199401856</ele>
        <time>2011-02-06T13:40:05Z</time>
      </trkpt>
      <trkpt lat="45.07173" lon="4.78741">
        <ele>157.37899780273</ele>
        <time>2011-02-06T13:40:12Z</time>
      </trkpt>
      <trkpt lat="45.07176" lon="4.78755">
        <ele>158.51899719238</ele>
        <time>2011-02-06T13:40:17Z</time>
      </trkpt>
      <trkpt lat="45.07178" lon="4.78767">
        <ele>158.50300598144</ele>
        <time>2011-02-06T13:40:20Z</time>
      </trkpt>
      <trkpt lat="45.07191" lon="4.78777">
        <ele>159.02799987793</ele>
        <time>2011-02-06T13:40:25Z</time>
      </trkpt>
      <trkpt lat="45.07214" lon="4.78787">
        <ele>159.34100341797</ele>
        <time>2011-02-06T13:40:32Z</time>
      </trkpt>
      <trkpt lat="45.07225" lon="4.78804">
        <ele>160.15100097656</ele>
        <time>2011-02-06T13:40:37Z</time>
      </trkpt>
      <trkpt lat="45.0723" lon="4.78825">
        <ele>161.42999267578</ele>
        <time>2011-02-06T13:40:43Z</time>
      </trkpt>
      <trkpt lat="45.0723" lon="4.78843">
        <ele>162.79200744629</ele>
        <time>2011-02-06T13:40:49Z</time>
      </trkpt>
      <trkpt lat="45.07232" lon="4.78858">
        <ele>164.55999755859</ele>
        <time>2011-02-06T13:40:55Z</time>
      </trkpt>
      <trkpt lat="45.07237" lon="4.7887">
        <ele>166.17100524902</ele>
        <time>2011-02-06T13:41:01Z</time>
      </trkpt>
      <trkpt lat="45.07246" lon="4.78876">
        <ele>167.40600585938</ele>
        <time>2011-02-06T13:41:07Z</time>
      </trkpt>
      <trkpt lat="45.0726" lon="4.78878">
        <ele>168.96899414062</ele>
        <time>2011-02-06T13:41:14Z</time>
      </trkpt>
      <trkpt lat="45.07272" lon="4.7888">
        <ele>170.42799377441</ele>
        <time>2011-02-06T13:41:20Z</time>
      </trkpt>
      <trkpt lat="45.07286" lon="4.78885">
        <ele>172.19799804688</ele>
        <time>2011-02-06T13:41:27Z</time>
      </trkpt>
      <trkpt lat="45.073" lon="4.78888">
        <ele>173.29699707031</ele>
        <time>2011-02-06T13:41:34Z</time>
      </trkpt>
      <trkpt lat="45.0731" lon="4.7889">
        <ele>174.70700073242</ele>
        <time>2011-02-06T13:41:39Z</time>
      </trkpt>
      <trkpt lat="45.07323" lon="4.78892">
        <ele>176.19999694824</ele>
        <time>2011-02-06T13:41:46Z</time>
      </trkpt>
      <trkpt lat="45.07339" lon="4.78893">
        <ele>177.40800476074</ele>
        <time>2011-02-06T13:41:53Z</time>
      </trkpt>
      <trkpt lat="45.07362" lon="4.78894">
        <ele>179.13499450684</ele>
        <time>2011-02-06T13:42:03Z</time>
      </trkpt>
      <trkpt lat="45.07389" lon="4.78892">
        <ele>180.71600341797</ele>
        <time>2011-02-06T13:42:13Z</time>
      </trkpt>
      <trkpt lat="45.07415" lon="4.78889">
        <ele>182.7140045166</ele>
        <time>2011-02-06T13:42:22Z</time>
      </trkpt>
      <trkpt lat="45.07438" lon="4.78885">
        <ele>184.57400512695</ele>
        <time>2011-02-06T13:42:30Z</time>
      </trkpt>
      <trkpt lat="45.07459" lon="4.78882">
        <ele>186</ele>
        <time>2011-02-06T13:42:38Z</time>
      </trkpt>
      <trkpt lat="45.07478" lon="4.78877">
        <ele>188.04100036621</ele>
        <time>2011-02-06T13:42:47Z</time>
      </trkpt>
      <trkpt lat="45.07494" lon="4.78869">
        <ele>189.65199279785</ele>
        <time>2011-02-06T13:42:55Z</time>
      </trkpt>
      <trkpt lat="45.07506" lon="4.78858">
        <ele>191.02299499512</ele>
        <time>2011-02-06T13:43:02Z</time>
      </trkpt>
      <trkpt lat="45.07521" lon="4.78853">
        <ele>192.59100341797</ele>
        <time>2011-02-06T13:43:09Z</time>
      </trkpt>
      <trkpt lat="45.07535" lon="4.78845">
        <ele>194.5299987793</ele>
        <time>2011-02-06T13:43:16Z</time>
      </trkpt>
      <trkpt lat="45.07546" lon="4.7883">
        <ele>196.58399963379</ele>
        <time>2011-02-06T13:43:23Z</time>
      </trkpt>
      <trkpt lat="45.0755" lon="4.7881">
        <ele>197.96099853516</ele>
        <time>2011-02-06T13:43:29Z</time>
      </trkpt>
      <trkpt lat="45.07553" lon="4.78784">
        <ele>199.8809967041</ele>
        <time>2011-02-06T13:43:37Z</time>
      </trkpt>
      <trkpt lat="45.07563" lon="4.78769">
        <ele>201.17999267578</ele>
        <time>2011-02-06T13:43:42Z</time>
      </trkpt>
      <trkpt lat="45.07576" lon="4.78767">
        <ele>201.91600036621</ele>
        <time>2011-02-06T13:43:47Z</time>
      </trkpt>
      <trkpt lat="45.076" lon="4.78775">
        <ele>203.62300109863</ele>
        <time>2011-02-06T13:43:56Z</time>
      </trkpt>
      <trkpt lat="45.07629" lon="4.78784">
        <ele>205.35699462891</ele>
        <time>2011-02-06T13:44:06Z</time>
      </trkpt>
      <trkpt lat="45.07647" lon="4.78785">
        <ele>206.48699951172</ele>
        <time>2011-02-06T13:44:12Z</time>
      </trkpt>
      <trkpt lat="45.07673" lon="4.78788">
        <ele>207.04400634766</ele>
        <time>2011-02-06T13:44:19Z</time>
      </trkpt>
      <trkpt lat="45.07719" lon="4.78792">
        <ele>208.01400756836</ele>
        <time>2011-02-06T13:44:31Z</time>
      </trkpt>
      <trkpt lat="45.07758" lon="4.78797">
        <ele>209.64900207519</ele>
        <time>2011-02-06T13:44:41Z</time>
      </trkpt>
      <trkpt lat="45.07797" lon="4.78803">
        <ele>211.0890045166</ele>
        <time>2011-02-06T13:44:52Z</time>
      </trkpt>
      <trkpt lat="45.07819" lon="4.78799">
        <ele>212.99200439453</ele>
        <time>2011-02-06T13:44:59Z</time>
      </trkpt>
      <trkpt lat="45.0784" lon="4.7879">
        <ele>214.48599243164</ele>
        <time>2011-02-06T13:45:07Z</time>
      </trkpt>
      <trkpt lat="45.07863" lon="4.78787">
        <ele>215.96899414062</ele>
        <time>2011-02-06T13:45:15Z</time>
      </trkpt>
      <trkpt lat="45.07895" lon="4.7879">
        <ele>218.58500671387</ele>
        <time>2011-02-06T13:45:26Z</time>
      </trkpt>
      <trkpt lat="45.0792" lon="4.78789">
        <ele>220.67900085449</ele>
        <time>2011-02-06T13:45:35Z</time>
      </trkpt>
      <trkpt lat="45.07941" lon="4.78788">
        <ele>221.7380065918</ele>
        <time>2011-02-06T13:45:42Z</time>
      </trkpt>
      <trkpt lat="45.07969" lon="4.78793">
        <ele>222.80999755859</ele>
        <time>2011-02-06T13:45:50Z</time>
      </trkpt>
      <trkpt lat="45.07991" lon="4.78798">
        <ele>224.15199279785</ele>
        <time>2011-02-06T13:45:57Z</time>
      </trkpt>
      <trkpt lat="45.08016" lon="4.78804">
        <ele>225.57600402832</ele>
        <time>2011-02-06T13:46:05Z</time>
      </trkpt>
      <trkpt lat="45.08035" lon="4.78808">
        <ele>226.57800292969</ele>
        <time>2011-02-06T13:46:11Z</time>
      </trkpt>
      <trkpt lat="45.08052" lon="4.78804">
        <ele>228.44000244141</ele>
        <time>2011-02-06T13:46:17Z</time>
      </trkpt>
      <trkpt lat="45.08064" lon="4.7879">
        <ele>228.91000366211</ele>
        <time>2011-02-06T13:46:22Z</time>
      </trkpt>
      <trkpt lat="45.0807" lon="4.78783">
        <ele>228.72700500488</ele>
        <time>2011-02-06T13:46:24Z</time>
      </trkpt>
      <trkpt lat="45.08094" lon="4.78774">
        <ele>227.75799560547</ele>
        <time>2011-02-06T13:46:29Z</time>
      </trkpt>
      <trkpt lat="45.08118" lon="4.78773">
        <ele>226.51300048828</ele>
        <time>2011-02-06T13:46:33Z</time>
      </trkpt>
      <trkpt lat="45.08147" lon="4.78781">
        <ele>223.25500488281</ele>
        <time>2011-02-06T13:46:38Z</time>
      </trkpt>
      <trkpt lat="45.08154" lon="4.78782">
        <ele>222.07899475098</ele>
        <time>2011-02-06T13:46:40Z</time>
      </trkpt>
      <trkpt lat="45.08161" lon="4.78765">
        <ele>221.09199523926</ele>
        <time>2011-02-06T13:46:44Z</time>
      </trkpt>
      <trkpt lat="45.08164" lon="4.78719">
        <ele>219.46600341797</ele>
        <time>2011-02-06T13:46:49Z</time>
      </trkpt>
      <trkpt lat="45.08164" lon="4.78707">
        <ele>218.94099426269</ele>
        <time>2011-02-06T13:46:50Z</time>
      </trkpt>
      <trkpt lat="45.08154" lon="4.78622">
        <ele>216.64399719238</ele>
        <time>2011-02-06T13:46:57Z</time>
      </trkpt>
      <trkpt lat="45.08143" lon="4.78587">
        <ele>215.35099792481</ele>
        <time>2011-02-06T13:47:00Z</time>
      </trkpt>
      <trkpt lat="45.08118" lon="4.78515">
        <ele>213.52900695801</ele>
        <time>2011-02-06T13:47:06Z</time>
      </trkpt>
      <trkpt lat="45.08096" lon="4.78436">
        <ele>212.60099792481</ele>
        <time>2011-02-06T13:47:12Z</time>
      </trkpt>
      <trkpt lat="45.08091" lon="4.78425">
        <ele>212.78199768066</ele>
        <time>2011-02-06T13:47:13Z</time>
      </trkpt>
      <trkpt lat="45.08082" lon="4.78377">
        <ele>213.89399719238</ele>
        <time>2011-02-06T13:47:17Z</time>
      </trkpt>
      <trkpt lat="45.08081" lon="4.78277">
        <ele>213.40400695801</ele>
        <time>2011-02-06T13:47:25Z</time>
      </trkpt>
      <trkpt lat="45.08089" lon="4.78189">
        <ele>213.21499633789</ele>
        <time>2011-02-06T13:47:32Z</time>
      </trkpt>
      <trkpt lat="45.08103" lon="4.7811">
        <ele>213.77099609375</ele>
        <time>2011-02-06T13:47:39Z</time>
      </trkpt>
      <trkpt lat="45.08121" lon="4.78063">
        <ele>214.04499816894</ele>
        <time>2011-02-06T13:47:44Z</time>
      </trkpt>
      <trkpt lat="45.08146" lon="4.78018">
        <ele>214.4049987793</ele>
        <time>2011-02-06T13:47:50Z</time>
      </trkpt>
      <trkpt lat="45.08166" lon="4.77975">
        <ele>215.07099914551</ele>
        <time>2011-02-06T13:47:56Z</time>
      </trkpt>
      <trkpt lat="45.08183" lon="4.77928">
        <ele>216.34100341797</ele>
        <time>2011-02-06T13:48:03Z</time>
      </trkpt>
      <trkpt lat="45.08193" lon="4.77888">
        <ele>217.69900512695</ele>
        <time>2011-02-06T13:48:10Z</time>
      </trkpt>
      <trkpt lat="45.08203" lon="4.77834">
        <ele>218.62399291992</ele>
        <time>2011-02-06T13:48:19Z</time>
      </trkpt>
      <trkpt lat="45.08205" lon="4.77816">
        <ele>219.01600646973</ele>
        <time>2011-02-06T13:48:22Z</time>
      </trkpt>
      <trkpt lat="45.08205" lon="4.77773">
        <ele>219.90100097656</ele>
        <time>2011-02-06T13:48:29Z</time>
      </trkpt>
      <trkpt lat="45.08202" lon="4.77754">
        <ele>220.14799499512</ele>
        <time>2011-02-06T13:48:32Z</time>
      </trkpt>
      <trkpt lat="45.08191" lon="4.77711">
        <ele>221.66499328613</ele>
        <time>2011-02-06T13:48:40Z</time>
      </trkpt>
      <trkpt lat="45.08187" lon="4.77697">
        <ele>222.0299987793</ele>
        <time>2011-02-06T13:48:43Z</time>
      </trkpt>
      <trkpt lat="45.08191" lon="4.7767">
        <ele>222.83099365234</ele>
        <time>2011-02-06T13:48:48Z</time>
      </trkpt>
      <trkpt lat="45.08194" lon="4.77665">
        <ele>223.00999450684</ele>
        <time>2011-02-06T13:48:49Z</time>
      </trkpt>
      <trkpt lat="45.08209" lon="4.77641">
        <ele>223.64700317383</ele>
        <time>2011-02-06T13:48:54Z</time>
      </trkpt>
      <trkpt lat="45.08221" lon="4.77613">
        <ele>224.20199584961</ele>
        <time>2011-02-06T13:48:59Z</time>
      </trkpt>
      <trkpt lat="45.08228" lon="4.77588">
        <ele>224.85000610352</ele>
        <time>2011-02-06T13:49:03Z</time>
      </trkpt>
      <trkpt lat="45.08229" lon="4.77557">
        <ele>225.48399353027</ele>
        <time>2011-02-06T13:49:08Z</time>
      </trkpt>
      <trkpt lat="45.08229" lon="4.77551">
        <ele>225.62300109863</ele>
        <time>2011-02-06T13:49:09Z</time>
      </trkpt>
      <trkpt lat="45.08212" lon="4.77505">
        <ele>226.73699951172</ele>
        <time>2011-02-06T13:49:17Z</time>
      </trkpt>
      <trkpt lat="45.08188" lon="4.77455">
        <ele>228.13499450684</ele>
        <time>2011-02-06T13:49:26Z</time>
      </trkpt>
      <trkpt lat="45.08183" lon="4.77443">
        <ele>228.56199645996</ele>
        <time>2011-02-06T13:49:28Z</time>
      </trkpt>
      <trkpt lat="45.08178" lon="4.77411">
        <ele>229.2799987793</ele>
        <time>2011-02-06T13:49:33Z</time>
      </trkpt>
      <trkpt lat="45.08189" lon="4.77376">
        <ele>230.47099304199</ele>
        <time>2011-02-06T13:49:39Z</time>
      </trkpt>
      <trkpt lat="45.08204" lon="4.77373">
        <ele>231.31900024414</ele>
        <time>2011-02-06T13:49:42Z</time>
      </trkpt>
      <trkpt lat="45.08216" lon="4.77383">
        <ele>231.61799621582</ele>
        <time>2011-02-06T13:49:45Z</time>
      </trkpt>
      <trkpt lat="45.08241" lon="4.77417">
        <ele>233.30599975586</ele>
        <time>2011-02-06T13:49:53Z</time>
      </trkpt>
      <trkpt lat="45.0826" lon="4.7743">
        <ele>235.05599975586</ele>
        <time>2011-02-06T13:49:59Z</time>
      </trkpt>
      <trkpt lat="45.08282" lon="4.77437">
        <ele>235.95899963379</ele>
        <time>2011-02-06T13:50:05Z</time>
      </trkpt>
      <trkpt lat="45.08307" lon="4.77442">
        <ele>236.89799499512</ele>
        <time>2011-02-06T13:50:11Z</time>
      </trkpt>
      <trkpt lat="45.08326" lon="4.77437">
        <ele>237.3809967041</ele>
        <time>2011-02-06T13:50:16Z</time>
      </trkpt>
      <trkpt lat="45.08333" lon="4.77432">
        <ele>237.53999328613</ele>
        <time>2011-02-06T13:50:18Z</time>
      </trkpt>
      <trkpt lat="45.08341" lon="4.77429">
        <ele>237.52799987793</ele>
        <time>2011-02-06T13:50:20Z</time>
      </trkpt>
      <trkpt lat="45.08361" lon="4.7742">
        <ele>238.17199707031</ele>
        <time>2011-02-06T13:50:25Z</time>
      </trkpt>
      <trkpt lat="45.08393" lon="4.77423">
        <ele>239.62800598144</ele>
        <time>2011-02-06T13:50:33Z</time>
      </trkpt>
      <trkpt lat="45.08419" lon="4.77431">
        <ele>240.38400268555</ele>
        <time>2011-02-06T13:50:40Z</time>
      </trkpt>
      <trkpt lat="45.08438" lon="4.77436">
        <ele>241.13000488281</ele>
        <time>2011-02-06T13:50:45Z</time>
      </trkpt>
      <trkpt lat="45.08467" lon="4.77445">
        <ele>241.68200683594</ele>
        <time>2011-02-06T13:50:52Z</time>
      </trkpt>
      <trkpt lat="45.08485" lon="4.77448">
        <ele>241.65199279785</ele>
        <time>2011-02-06T13:50:56Z</time>
      </trkpt>
      <trkpt lat="45.08521" lon="4.77449">
        <ele>241.0890045166</ele>
        <time>2011-02-06T13:51:02Z</time>
      </trkpt>
      <trkpt lat="45.08527" lon="4.77449">
        <ele>241.10800170898</ele>
        <time>2011-02-06T13:51:03Z</time>
      </trkpt>
      <trkpt lat="45.08559" lon="4.77463">
        <ele>240.93600463867</ele>
        <time>2011-02-06T13:51:08Z</time>
      </trkpt>
      <trkpt lat="45.0857" lon="4.77475">
        <ele>240.99499511719</ele>
        <time>2011-02-06T13:51:10Z</time>
      </trkpt>
      <trkpt lat="45.08619" lon="4.77527">
        <ele>238.93400573731</ele>
        <time>2011-02-06T13:51:19Z</time>
      </trkpt>
      <trkpt lat="45.08652" lon="4.77534">
        <ele>238.38299560547</ele>
        <time>2011-02-06T13:51:24Z</time>
      </trkpt>
      <trkpt lat="45.08691" lon="4.77529">
        <ele>237.56599426269</ele>
        <time>2011-02-06T13:51:30Z</time>
      </trkpt>
      <trkpt lat="45.0872" lon="4.77504">
        <ele>236.67300415039</ele>
        <time>2011-02-06T13:51:35Z</time>
      </trkpt>
      <trkpt lat="45.08734" lon="4.77467">
        <ele>236.12899780273</ele>
        <time>2011-02-06T13:51:39Z</time>
      </trkpt>
      <trkpt lat="45.08749" lon="4.7739">
        <ele>234.75700378418</ele>
        <time>2011-02-06T13:51:46Z</time>
      </trkpt>
      <trkpt lat="45.08745" lon="4.77342">
        <ele>233.82099914551</ele>
        <time>2011-02-06T13:51:50Z</time>
      </trkpt>
      <trkpt lat="45.08731" lon="4.7731">
        <ele>233.49800109863</ele>
        <time>2011-02-06T13:51:53Z</time>
      </trkpt>
      <trkpt lat="45.08717" lon="4.77296">
        <ele>233.11500549316</ele>
        <time>2011-02-06T13:51:55Z</time>
      </trkpt>
      <trkpt lat="45.08701" lon="4.77285">
        <ele>232.60600280762</ele>
        <time>2011-02-06T13:51:57Z</time>
      </trkpt>
      <trkpt lat="45.08677" lon="4.77244">
        <ele>231.89300537109</ele>
        <time>2011-02-06T13:52:01Z</time>
      </trkpt>
      <trkpt lat="45.08681" lon="4.77217">
        <ele>231.44099426269</ele>
        <time>2011-02-06T13:52:03Z</time>
      </trkpt>
      <trkpt lat="45.08692" lon="4.77196">
        <ele>231.29400634766</ele>
        <time>2011-02-06T13:52:05Z</time>
      </trkpt>
      <trkpt lat="45.08727" lon="4.77153">
        <ele>230.24000549316</ele>
        <time>2011-02-06T13:52:10Z</time>
      </trkpt>
      <trkpt lat="45.08764" lon="4.77141">
        <ele>230.56100463867</ele>
        <time>2011-02-06T13:52:14Z</time>
      </trkpt>
      <trkpt lat="45.08783" lon="4.77146">
        <ele>229.51499938965</ele>
        <time>2011-02-06T13:52:16Z</time>
      </trkpt>
      <trkpt lat="45.08871" lon="4.77186">
        <ele>227.57800292969</ele>
        <time>2011-02-06T13:52:26Z</time>
      </trkpt>
      <trkpt lat="45.08926" lon="4.77211">
        <ele>227.69999694824</ele>
        <time>2011-02-06T13:52:33Z</time>
      </trkpt>
      <trkpt lat="45.08973" lon="4.77228">
        <ele>228.53700256348</ele>
        <time>2011-02-06T13:52:40Z</time>
      </trkpt>
      <trkpt lat="45.08991" lon="4.77228">
        <ele>228.95599365234</ele>
        <time>2011-02-06T13:52:43Z</time>
      </trkpt>
      <trkpt lat="45.09002" lon="4.77225">
        <ele>229.04100036621</ele>
        <time>2011-02-06T13:52:45Z</time>
      </trkpt>
      <trkpt lat="45.0902" lon="4.77212">
        <ele>229.31399536133</ele>
        <time>2011-02-06T13:52:49Z</time>
      </trkpt>
      <trkpt lat="45.09027" lon="4.77203">
        <ele>229.58599853516</ele>
        <time>2011-02-06T13:52:51Z</time>
      </trkpt>
      <trkpt lat="45.09036" lon="4.77181">
        <ele>229.82000732422</ele>
        <time>2011-02-06T13:52:55Z</time>
      </trkpt>
      <trkpt lat="45.0904" lon="4.77158">
        <ele>230.38800048828</ele>
        <time>2011-02-06T13:52:59Z</time>
      </trkpt>
      <trkpt lat="45.09045" lon="4.77106">
        <ele>231.83799743652</ele>
        <time>2011-02-06T13:53:08Z</time>
      </trkpt>
      <trkpt lat="45.09061" lon="4.77057">
        <ele>233.53900146484</ele>
        <time>2011-02-06T13:53:17Z</time>
      </trkpt>
      <trkpt lat="45.09083" lon="4.77006">
        <ele>235.41600036621</ele>
        <time>2011-02-06T13:53:27Z</time>
      </trkpt>
      <trkpt lat="45.09102" lon="4.76961">
        <ele>237.10299682617</ele>
        <time>2011-02-06T13:53:36Z</time>
      </trkpt>
      <trkpt lat="45.09123" lon="4.76917">
        <ele>238.7440032959</ele>
        <time>2011-02-06T13:53:45Z</time>
      </trkpt>
      <trkpt lat="45.09141" lon="4.76864">
        <ele>240.58399963379</ele>
        <time>2011-02-06T13:53:55Z</time>
      </trkpt>
      <trkpt lat="45.09145" lon="4.76826">
        <ele>241.77299499512</ele>
        <time>2011-02-06T13:54:02Z</time>
      </trkpt>
      <trkpt lat="45.09148" lon="4.76781">
        <ele>242.81300354004</ele>
        <time>2011-02-06T13:54:10Z</time>
      </trkpt>
      <trkpt lat="45.0915" lon="4.76775">
        <ele>242.99899291992</ele>
        <time>2011-02-06T13:54:11Z</time>
      </trkpt>
      <trkpt lat="45.09168" lon="4.76724">
        <ele>244.53799438477</ele>
        <time>2011-02-06T13:54:21Z</time>
      </trkpt>
      <trkpt lat="45.09184" lon="4.76689">
        <ele>245.54499816894</ele>
        <time>2011-02-06T13:54:28Z</time>
      </trkpt>
      <trkpt lat="45.09189" lon="4.76649">
        <ele>247.15699768066</ele>
        <time>2011-02-06T13:54:35Z</time>
      </trkpt>
      <trkpt lat="45.09182" lon="4.76621">
        <ele>247.78999328613</ele>
        <time>2011-02-06T13:54:40Z</time>
      </trkpt>
      <trkpt lat="45.09177" lon="4.76611">
        <ele>248.25900268555</ele>
        <time>2011-02-06T13:54:42Z</time>
      </trkpt>
      <trkpt lat="45.09148" lon="4.76564">
        <ele>249.4640045166</ele>
        <time>2011-02-06T13:54:52Z</time>
      </trkpt>
      <trkpt lat="45.09131" lon="4.76534">
        <ele>250.60099792481</ele>
        <time>2011-02-06T13:54:58Z</time>
      </trkpt>
      <trkpt lat="45.09126" lon="4.76502">
        <ele>251.52799987793</ele>
        <time>2011-02-06T13:55:03Z</time>
      </trkpt>
      <trkpt lat="45.09131" lon="4.76479">
        <ele>252.31199645996</ele>
        <time>2011-02-06T13:55:07Z</time>
      </trkpt>
      <trkpt lat="45.09145" lon="4.7646">
        <ele>253.59599304199</ele>
        <time>2011-02-06T13:55:12Z</time>
      </trkpt>
      <trkpt lat="45.09151" lon="4.76455">
        <ele>253.86500549316</ele>
        <time>2011-02-06T13:55:14Z</time>
      </trkpt>
      <trkpt lat="45.09177" lon="4.76449">
        <ele>255.26100158691</ele>
        <time>2011-02-06T13:55:21Z</time>
      </trkpt>
      <trkpt lat="45.09201" lon="4.76456">
        <ele>256.39599609375</ele>
        <time>2011-02-06T13:55:28Z</time>
      </trkpt>
      <trkpt lat="45.09228" lon="4.76466">
        <ele>257.63101196289</ele>
        <time>2011-02-06T13:55:36Z</time>
      </trkpt>
      <trkpt lat="45.09253" lon="4.76459">
        <ele>259.02899169922</ele>
        <time>2011-02-06T13:55:43Z</time>
      </trkpt>
      <trkpt lat="45.09287" lon="4.76434">
        <ele>260.40798950195</ele>
        <time>2011-02-06T13:55:53Z</time>
      </trkpt>
      <trkpt lat="45.09318" lon="4.76411">
        <ele>261.69000244141</ele>
        <time>2011-02-06T13:56:02Z</time>
      </trkpt>
      <trkpt lat="45.09335" lon="4.76389">
        <ele>262.77301025391</ele>
        <time>2011-02-06T13:56:08Z</time>
      </trkpt>
      <trkpt lat="45.09341" lon="4.76365">
        <ele>263.28601074219</ele>
        <time>2011-02-06T13:56:13Z</time>
      </trkpt>
      <trkpt lat="45.0934" lon="4.76334">
        <ele>264.35800170898</ele>
        <time>2011-02-06T13:56:19Z</time>
      </trkpt>
      <trkpt lat="45.0934" lon="4.76305">
        <ele>265.01400756836</ele>
        <time>2011-02-06T13:56:24Z</time>
      </trkpt>
      <trkpt lat="45.09349" lon="4.76282">
        <ele>266.06399536133</ele>
        <time>2011-02-06T13:56:29Z</time>
      </trkpt>
      <trkpt lat="45.09363" lon="4.76271">
        <ele>266.85501098633</ele>
        <time>2011-02-06T13:56:34Z</time>
      </trkpt>
      <trkpt lat="45.09386" lon="4.76265">
        <ele>268.33499145508</ele>
        <time>2011-02-06T13:56:41Z</time>
      </trkpt>
      <trkpt lat="45.09409" lon="4.76258">
        <ele>269.36999511719</ele>
        <time>2011-02-06T13:56:48Z</time>
      </trkpt>
      <trkpt lat="45.09438" lon="4.76239">
        <ele>270.37100219727</ele>
        <time>2011-02-06T13:56:56Z</time>
      </trkpt>
      <trkpt lat="45.0946" lon="4.76207">
        <ele>271.8330078125</ele>
        <time>2011-02-06T13:57:04Z</time>
      </trkpt>
      <trkpt lat="45.09479" lon="4.7616">
        <ele>274.57299804688</ele>
        <time>2011-02-06T13:57:13Z</time>
      </trkpt>
      <trkpt lat="45.09497" lon="4.76107">
        <ele>276.05599975586</ele>
        <time>2011-02-06T13:57:23Z</time>
      </trkpt>
      <trkpt lat="45.09514" lon="4.76057">
        <ele>277.23498535156</ele>
        <time>2011-02-06T13:57:32Z</time>
      </trkpt>
      <trkpt lat="45.0953" lon="4.76014">
        <ele>278.46701049805</ele>
        <time>2011-02-06T13:57:40Z</time>
      </trkpt>
      <trkpt lat="45.09559" lon="4.75973">
        <ele>279.69799804688</ele>
        <time>2011-02-06T13:57:50Z</time>
      </trkpt>
      <trkpt lat="45.09582" lon="4.75955">
        <ele>280.01800537109</ele>
        <time>2011-02-06T13:57:56Z</time>
      </trkpt>
      <trkpt lat="45.09623" lon="4.75942">
        <ele>280.92199707031</ele>
        <time>2011-02-06T13:58:05Z</time>
      </trkpt>
      <trkpt lat="45.09669" lon="4.75942">
        <ele>282.41000366211</ele>
        <time>2011-02-06T13:58:15Z</time>
      </trkpt>
      <trkpt lat="45.09714" lon="4.75951">
        <ele>283.66000366211</ele>
        <time>2011-02-06T13:58:25Z</time>
      </trkpt>
      <trkpt lat="45.09759" lon="4.75962">
        <ele>285.41101074219</ele>
        <time>2011-02-06T13:58:35Z</time>
      </trkpt>
      <trkpt lat="45.0979" lon="4.75973">
        <ele>286.44900512695</ele>
        <time>2011-02-06T13:58:42Z</time>
      </trkpt>
      <trkpt lat="45.09817" lon="4.75989">
        <ele>288.05499267578</ele>
        <time>2011-02-06T13:58:49Z</time>
      </trkpt>
      <trkpt lat="45.09858" lon="4.76018">
        <ele>289.4469909668</ele>
        <time>2011-02-06T13:59:00Z</time>
      </trkpt>
      <trkpt lat="45.09895" lon="4.76044">
        <ele>289.66500854492</ele>
        <time>2011-02-06T13:59:09Z</time>
      </trkpt>
      <trkpt lat="45.09928" lon="4.76067">
        <ele>289.84201049805</ele>
        <time>2011-02-06T13:59:16Z</time>
      </trkpt>
      <trkpt lat="45.09969" lon="4.76091">
        <ele>289.32598876953</ele>
        <time>2011-02-06T13:59:23Z</time>
      </trkpt>
      <trkpt lat="45.10009" lon="4.76099">
        <ele>289.05099487305</ele>
        <time>2011-02-06T13:59:29Z</time>
      </trkpt>
      <trkpt lat="45.10055" lon="4.76099">
        <ele>289.29400634766</ele>
        <time>2011-02-06T13:59:36Z</time>
      </trkpt>
      <trkpt lat="45.10097" lon="4.76082">
        <ele>289.76300048828</ele>
        <time>2011-02-06T13:59:43Z</time>
      </trkpt>
      <trkpt lat="45.10134" lon="4.7606">
        <ele>290.81799316406</ele>
        <time>2011-02-06T13:59:50Z</time>
      </trkpt>
      <trkpt lat="45.10162" lon="4.76036">
        <ele>291.94799804688</ele>
        <time>2011-02-06T13:59:56Z</time>
      </trkpt>
      <trkpt lat="45.10202" lon="4.75989">
        <ele>293.00500488281</ele>
        <time>2011-02-06T14:00:06Z</time>
      </trkpt>
      <trkpt lat="45.10236" lon="4.75949">
        <ele>294.05499267578</ele>
        <time>2011-02-06T14:00:15Z</time>
      </trkpt>
      <trkpt lat="45.10267" lon="4.75907">
        <ele>294.93301391602</ele>
        <time>2011-02-06T14:00:24Z</time>
      </trkpt>
      <trkpt lat="45.10277" lon="4.75887">
        <ele>295.60400390625</ele>
        <time>2011-02-06T14:00:28Z</time>
      </trkpt>
      <trkpt lat="45.10297" lon="4.75829">
        <ele>296.30599975586</ele>
        <time>2011-02-06T14:00:38Z</time>
      </trkpt>
      <trkpt lat="45.10314" lon="4.7578">
        <ele>297.25601196289</ele>
        <time>2011-02-06T14:00:47Z</time>
      </trkpt>
      <trkpt lat="45.10338" lon="4.75739">
        <ele>297.81900024414</ele>
        <time>2011-02-06T14:00:55Z</time>
      </trkpt>
      <trkpt lat="45.10369" lon="4.75678">
        <ele>298.54800415039</ele>
        <time>2011-02-06T14:01:05Z</time>
      </trkpt>
      <trkpt lat="45.10395" lon="4.75616">
        <ele>299.3630065918</ele>
        <time>2011-02-06T14:01:14Z</time>
      </trkpt>
      <trkpt lat="45.10424" lon="4.75542">
        <ele>299.72698974609</ele>
        <time>2011-02-06T14:01:24Z</time>
      </trkpt>
      <trkpt lat="45.10453" lon="4.75464">
        <ele>299.57501220703</ele>
        <time>2011-02-06T14:01:34Z</time>
      </trkpt>
      <trkpt lat="45.10475" lon="4.75415">
        <ele>300.34298706055</ele>
        <time>2011-02-06T14:01:41Z</time>
      </trkpt>
      <trkpt lat="45.10499" lon="4.75375">
        <ele>299.77801513672</ele>
        <time>2011-02-06T14:01:47Z</time>
      </trkpt>
      <trkpt lat="45.10537" lon="4.75331">
        <ele>298.65200805664</ele>
        <time>2011-02-06T14:01:54Z</time>
      </trkpt>
      <trkpt lat="45.10547" lon="4.75316">
        <ele>298.36599731445</ele>
        <time>2011-02-06T14:01:56Z</time>
      </trkpt>
      <trkpt lat="45.10564" lon="4.75266">
        <ele>297.24499511719</ele>
        <time>2011-02-06T14:02:01Z</time>
      </trkpt>
      <trkpt lat="45.10584" lon="4.75173">
        <ele>296.45001220703</ele>
        <time>2011-02-06T14:02:10Z</time>
      </trkpt>
      <trkpt lat="45.10612" lon="4.75105">
        <ele>296.10101318359</ele>
        <time>2011-02-06T14:02:17Z</time>
      </trkpt>
      <trkpt lat="45.10657" lon="4.74998">
        <ele>294.58499145508</ele>
        <time>2011-02-06T14:02:28Z</time>
      </trkpt>
      <trkpt lat="45.10684" lon="4.74923">
        <ele>293.62799072266</ele>
        <time>2011-02-06T14:02:36Z</time>
      </trkpt>
      <trkpt lat="45.10707" lon="4.74843">
        <ele>294.54000854492</ele>
        <time>2011-02-06T14:02:45Z</time>
      </trkpt>
      <trkpt lat="45.10722" lon="4.74792">
        <ele>294.94900512695</ele>
        <time>2011-02-06T14:02:52Z</time>
      </trkpt>
      <trkpt lat="45.10746" lon="4.74711">
        <ele>296.6780090332</ele>
        <time>2011-02-06T14:03:04Z</time>
      </trkpt>
      <trkpt lat="45.10767" lon="4.74641">
        <ele>298.71701049805</ele>
        <time>2011-02-06T14:03:15Z</time>
      </trkpt>
      <trkpt lat="45.10778" lon="4.746">
        <ele>300.25299072266</ele>
        <time>2011-02-06T14:03:23Z</time>
      </trkpt>
      <trkpt lat="45.10786" lon="4.74562">
        <ele>302.43499755859</ele>
        <time>2011-02-06T14:03:31Z</time>
      </trkpt>
      <trkpt lat="45.10791" lon="4.74528">
        <ele>303.53900146484</ele>
        <time>2011-02-06T14:03:38Z</time>
      </trkpt>
      <trkpt lat="45.10792" lon="4.74477">
        <ele>305.35900878906</ele>
        <time>2011-02-06T14:03:47Z</time>
      </trkpt>
      <trkpt lat="45.10792" lon="4.74434">
        <ele>306.8210144043</ele>
        <time>2011-02-06T14:03:55Z</time>
      </trkpt>
      <trkpt lat="45.10792" lon="4.74402">
        <ele>307.5710144043</ele>
        <time>2011-02-06T14:04:01Z</time>
      </trkpt>
      <trkpt lat="45.10793" lon="4.74358">
        <ele>307.80801391602</ele>
        <time>2011-02-06T14:04:08Z</time>
      </trkpt>
      <trkpt lat="45.1079" lon="4.74294">
        <ele>307.93399047852</ele>
        <time>2011-02-06T14:04:16Z</time>
      </trkpt>
      <trkpt lat="45.10792" lon="4.74233">
        <ele>308.22799682617</ele>
        <time>2011-02-06T14:04:23Z</time>
      </trkpt>
      <trkpt lat="45.10804" lon="4.74154">
        <ele>307.99798583984</ele>
        <time>2011-02-06T14:04:32Z</time>
      </trkpt>
      <trkpt lat="45.1082" lon="4.74081">
        <ele>308.29800415039</ele>
        <time>2011-02-06T14:04:41Z</time>
      </trkpt>
      <trkpt lat="45.10833" lon="4.7403">
        <ele>309.06100463867</ele>
        <time>2011-02-06T14:04:48Z</time>
      </trkpt>
      <trkpt lat="45.10849" lon="4.73973">
        <ele>311.0950012207</ele>
        <time>2011-02-06T14:04:57Z</time>
      </trkpt>
      <trkpt lat="45.10863" lon="4.73916">
        <ele>312.23999023438</ele>
        <time>2011-02-06T14:05:06Z</time>
      </trkpt>
      <trkpt lat="45.10874" lon="4.73875">
        <ele>312.51501464844</ele>
        <time>2011-02-06T14:05:12Z</time>
      </trkpt>
      <trkpt lat="45.10895" lon="4.7382">
        <ele>311.13400268555</ele>
        <time>2011-02-06T14:05:19Z</time>
      </trkpt>
      <trkpt lat="45.10917" lon="4.73764">
        <ele>310.26501464844</ele>
        <time>2011-02-06T14:05:26Z</time>
      </trkpt>
      <trkpt lat="45.1092" lon="4.73755">
        <ele>310.22799682617</ele>
        <time>2011-02-06T14:05:27Z</time>
      </trkpt>
      <trkpt lat="45.10943" lon="4.73698">
        <ele>309.97601318359</ele>
        <time>2011-02-06T14:05:34Z</time>
      </trkpt>
      <trkpt lat="45.10952" lon="4.73673">
        <ele>309.4289855957</ele>
        <time>2011-02-06T14:05:37Z</time>
      </trkpt>
      <trkpt lat="45.10986" lon="4.73599">
        <ele>309.41500854492</ele>
        <time>2011-02-06T14:05:46Z</time>
      </trkpt>
      <trkpt lat="45.11015" lon="4.73549">
        <ele>309.2200012207</ele>
        <time>2011-02-06T14:05:53Z</time>
      </trkpt>
      <trkpt lat="45.11052" lon="4.73507">
        <ele>309.95199584961</ele>
        <time>2011-02-06T14:06:01Z</time>
      </trkpt>
      <trkpt lat="45.11083" lon="4.73476">
        <ele>310.39999389648</ele>
        <time>2011-02-06T14:06:08Z</time>
      </trkpt>
      <trkpt lat="45.1112" lon="4.7344">
        <ele>310.86801147461</ele>
        <time>2011-02-06T14:06:17Z</time>
      </trkpt>
      <trkpt lat="45.11155" lon="4.73407">
        <ele>312.06799316406</ele>
        <time>2011-02-06T14:06:27Z</time>
      </trkpt>
      <trkpt lat="45.11186" lon="4.73377">
        <ele>313.00399780273</ele>
        <time>2011-02-06T14:06:37Z</time>
      </trkpt>
      <trkpt lat="45.1122" lon="4.73344">
        <ele>315.07699584961</ele>
        <time>2011-02-06T14:06:48Z</time>
      </trkpt>
      <trkpt lat="45.11245" lon="4.73319">
        <ele>316.35598754883</ele>
        <time>2011-02-06T14:06:56Z</time>
      </trkpt>
      <trkpt lat="45.11277" lon="4.73288">
        <ele>317.84201049805</ele>
        <time>2011-02-06T14:07:06Z</time>
      </trkpt>
      <trkpt lat="45.11306" lon="4.7326">
        <ele>319.41198730469</ele>
        <time>2011-02-06T14:07:15Z</time>
      </trkpt>
      <trkpt lat="45.11339" lon="4.73229">
        <ele>320.78500366211</ele>
        <time>2011-02-06T14:07:25Z</time>
      </trkpt>
      <trkpt lat="45.1137" lon="4.73198">
        <ele>321.64999389648</ele>
        <time>2011-02-06T14:07:34Z</time>
      </trkpt>
      <trkpt lat="45.11401" lon="4.73168">
        <ele>322.78698730469</ele>
        <time>2011-02-06T14:07:43Z</time>
      </trkpt>
      <trkpt lat="45.1144" lon="4.73133">
        <ele>324.21899414062</ele>
        <time>2011-02-06T14:07:54Z</time>
      </trkpt>
      <trkpt lat="45.11473" lon="4.73106">
        <ele>325.09201049805</ele>
        <time>2011-02-06T14:08:03Z</time>
      </trkpt>
      <trkpt lat="45.1152" lon="4.7307">
        <ele>325.84100341797</ele>
        <time>2011-02-06T14:08:15Z</time>
      </trkpt>
      <trkpt lat="45.11565" lon="4.73034">
        <ele>326.25601196289</ele>
        <time>2011-02-06T14:08:26Z</time>
      </trkpt>
      <trkpt lat="45.11608" lon="4.73001">
        <ele>327.20001220703</ele>
        <time>2011-02-06T14:08:36Z</time>
      </trkpt>
      <trkpt lat="45.11661" lon="4.72959">
        <ele>328.34899902344</ele>
        <time>2011-02-06T14:08:48Z</time>
      </trkpt>
      <trkpt lat="45.11689" lon="4.72925">
        <ele>329.01400756836</ele>
        <time>2011-02-06T14:08:56Z</time>
      </trkpt>
      <trkpt lat="45.11712" lon="4.72885">
        <ele>330.12200927734</ele>
        <time>2011-02-06T14:09:04Z</time>
      </trkpt>
      <trkpt lat="45.11738" lon="4.72841">
        <ele>331.95199584961</ele>
        <time>2011-02-06T14:09:14Z</time>
      </trkpt>
      <trkpt lat="45.11767" lon="4.72794">
        <ele>333.59399414062</ele>
        <time>2011-02-06T14:09:25Z</time>
      </trkpt>
      <trkpt lat="45.11784" lon="4.72767">
        <ele>334.14300537109</ele>
        <time>2011-02-06T14:09:31Z</time>
      </trkpt>
      <trkpt lat="45.11796" lon="4.72723">
        <ele>334.88900756836</ele>
        <time>2011-02-06T14:09:38Z</time>
      </trkpt>
      <trkpt lat="45.11806" lon="4.72672">
        <ele>334.6669921875</ele>
        <time>2011-02-06T14:09:45Z</time>
      </trkpt>
      <trkpt lat="45.11822" lon="4.72599">
        <ele>334.33700561523</ele>
        <time>2011-02-06T14:09:54Z</time>
      </trkpt>
      <trkpt lat="45.11826" lon="4.72582">
        <ele>333.79901123047</ele>
        <time>2011-02-06T14:09:56Z</time>
      </trkpt>
      <trkpt lat="45.11829" lon="4.72564">
        <ele>333.42498779297</ele>
        <time>2011-02-06T14:09:58Z</time>
      </trkpt>
      <trkpt lat="45.11845" lon="4.72497">
        <ele>333.66500854492</ele>
        <time>2011-02-06T14:10:06Z</time>
      </trkpt>
      <trkpt lat="45.1186" lon="4.72431">
        <ele>334.03399658203</ele>
        <time>2011-02-06T14:10:14Z</time>
      </trkpt>
      <trkpt lat="45.11869" lon="4.72372">
        <ele>336.07501220703</ele>
        <time>2011-02-06T14:10:22Z</time>
      </trkpt>
      <trkpt lat="45.11869" lon="4.72324">
        <ele>337.43701171875</ele>
        <time>2011-02-06T14:10:30Z</time>
      </trkpt>
      <trkpt lat="45.11863" lon="4.72275">
        <ele>338.93798828125</ele>
        <time>2011-02-06T14:10:38Z</time>
      </trkpt>
      <trkpt lat="45.11851" lon="4.72232">
        <ele>339.08700561523</ele>
        <time>2011-02-06T14:10:45Z</time>
      </trkpt>
      <trkpt lat="45.11837" lon="4.72202">
        <ele>339.58099365234</ele>
        <time>2011-02-06T14:10:50Z</time>
      </trkpt>
      <trkpt lat="45.11812" lon="4.72164">
        <ele>340.32400512695</ele>
        <time>2011-02-06T14:10:57Z</time>
      </trkpt>
      <trkpt lat="45.11782" lon="4.72128">
        <ele>341.78201293945</ele>
        <time>2011-02-06T14:11:05Z</time>
      </trkpt>
      <trkpt lat="45.1175" lon="4.72092">
        <ele>343.57699584961</ele>
        <time>2011-02-06T14:11:14Z</time>
      </trkpt>
      <trkpt lat="45.11724" lon="4.72058">
        <ele>344.73498535156</ele>
        <time>2011-02-06T14:11:22Z</time>
      </trkpt>
      <trkpt lat="45.11714" lon="4.72031">
        <ele>345.90301513672</ele>
        <time>2011-02-06T14:11:27Z</time>
      </trkpt>
      <trkpt lat="45.11705" lon="4.71972">
        <ele>347.65399169922</ele>
        <time>2011-02-06T14:11:37Z</time>
      </trkpt>
      <trkpt lat="45.11702" lon="4.71917">
        <ele>349.06201171875</ele>
        <time>2011-02-06T14:11:46Z</time>
      </trkpt>
      <trkpt lat="45.11704" lon="4.71886">
        <ele>350.20599365234</ele>
        <time>2011-02-06T14:11:52Z</time>
      </trkpt>
      <trkpt lat="45.11708" lon="4.71848">
        <ele>352.01400756836</ele>
        <time>2011-02-06T14:12:00Z</time>
      </trkpt>
      <trkpt lat="45.11713" lon="4.7181">
        <ele>353.53799438477</ele>
        <time>2011-02-06T14:12:08Z</time>
      </trkpt>
      <trkpt lat="45.11714" lon="4.71773">
        <ele>355.00100708008</ele>
        <time>2011-02-06T14:12:16Z</time>
      </trkpt>
      <trkpt lat="45.11713" lon="4.71728">
        <ele>356.28201293945</ele>
        <time>2011-02-06T14:12:25Z</time>
      </trkpt>
      <trkpt lat="45.11711" lon="4.71674">
        <ele>356.97100830078</ele>
        <time>2011-02-06T14:12:34Z</time>
      </trkpt>
      <trkpt lat="45.1171" lon="4.7163">
        <ele>357.51400756836</ele>
        <time>2011-02-06T14:12:41Z</time>
      </trkpt>
      <trkpt lat="45.11709" lon="4.71577">
        <ele>359.375</ele>
        <time>2011-02-06T14:12:50Z</time>
      </trkpt>
      <trkpt lat="45.11708" lon="4.71552">
        <ele>359.89199829102</ele>
        <time>2011-02-06T14:12:55Z</time>
      </trkpt>
      <trkpt lat="45.11707" lon="4.7151">
        <ele>361.03399658203</ele>
        <time>2011-02-06T14:13:03Z</time>
      </trkpt>
      <trkpt lat="45.11703" lon="4.71474">
        <ele>362.28601074219</ele>
        <time>2011-02-06T14:13:10Z</time>
      </trkpt>
      <trkpt lat="45.117" lon="4.71457">
        <ele>362.65200805664</ele>
        <time>2011-02-06T14:13:13Z</time>
      </trkpt>
      <trkpt lat="45.11686" lon="4.71399">
        <ele>363.39300537109</ele>
        <time>2011-02-06T14:13:23Z</time>
      </trkpt>
      <trkpt lat="45.11672" lon="4.71346">
        <ele>364.86499023438</ele>
        <time>2011-02-06T14:13:32Z</time>
      </trkpt>
      <trkpt lat="45.11657" lon="4.71285">
        <ele>366.14001464844</ele>
        <time>2011-02-06T14:13:42Z</time>
      </trkpt>
      <trkpt lat="45.1164" lon="4.71221">
        <ele>367.50601196289</ele>
        <time>2011-02-06T14:13:52Z</time>
      </trkpt>
      <trkpt lat="45.1162" lon="4.71149">
        <ele>369.11199951172</ele>
        <time>2011-02-06T14:14:03Z</time>
      </trkpt>
      <trkpt lat="45.11602" lon="4.71107">
        <ele>369.46899414062</ele>
        <time>2011-02-06T14:14:10Z</time>
      </trkpt>
      <trkpt lat="45.11576" lon="4.71058">
        <ele>368.0299987793</ele>
        <time>2011-02-06T14:14:18Z</time>
      </trkpt>
      <trkpt lat="45.11562" lon="4.71017">
        <ele>366.72500610352</ele>
        <time>2011-02-06T14:14:23Z</time>
      </trkpt>
      <trkpt lat="45.1156" lon="4.71008">
        <ele>366.5</ele>
        <time>2011-02-06T14:14:24Z</time>
      </trkpt>
      <trkpt lat="45.11555" lon="4.70936">
        <ele>365.26098632812</ele>
        <time>2011-02-06T14:14:31Z</time>
      </trkpt>
      <trkpt lat="45.11556" lon="4.7088">
        <ele>363.4169921875</ele>
        <time>2011-02-06T14:14:36Z</time>
      </trkpt>
      <trkpt lat="45.11558" lon="4.70846">
        <ele>362.96099853516</ele>
        <time>2011-02-06T14:14:39Z</time>
      </trkpt>
      <trkpt lat="45.11549" lon="4.70764">
        <ele>360.18499755859</ele>
        <time>2011-02-06T14:14:46Z</time>
      </trkpt>
      <trkpt lat="45.11531" lon="4.70709">
        <ele>358.89401245117</ele>
        <time>2011-02-06T14:14:51Z</time>
      </trkpt>
      <trkpt lat="45.11498" lon="4.70647">
        <ele>357.02499389648</ele>
        <time>2011-02-06T14:14:57Z</time>
      </trkpt>
      <trkpt lat="45.11443" lon="4.70534">
        <ele>353.83599853516</ele>
        <time>2011-02-06T14:15:07Z</time>
      </trkpt>
      <trkpt lat="45.11419" lon="4.70471">
        <ele>352.42001342773</ele>
        <time>2011-02-06T14:15:12Z</time>
      </trkpt>
      <trkpt lat="45.11391" lon="4.70378">
        <ele>349.91198730469</ele>
        <time>2011-02-06T14:15:19Z</time>
      </trkpt>
      <trkpt lat="45.1137" lon="4.70297">
        <ele>348.31399536133</ele>
        <time>2011-02-06T14:15:25Z</time>
      </trkpt>
      <trkpt lat="45.11365" lon="4.70227">
        <ele>346.49200439453</ele>
        <time>2011-02-06T14:15:30Z</time>
      </trkpt>
      <trkpt lat="45.11364" lon="4.70199">
        <ele>345.94400024414</ele>
        <time>2011-02-06T14:15:32Z</time>
      </trkpt>
      <trkpt lat="45.11357" lon="4.7016">
        <ele>344.33700561523</ele>
        <time>2011-02-06T14:15:35Z</time>
      </trkpt>
      <trkpt lat="45.11343" lon="4.70118">
        <ele>343.20901489258</ele>
        <time>2011-02-06T14:15:39Z</time>
      </trkpt>
      <trkpt lat="45.11326" lon="4.70116">
        <ele>342.43099975586</ele>
        <time>2011-02-06T14:15:42Z</time>
      </trkpt>
      <trkpt lat="45.11322" lon="4.70121">
        <ele>342.24700927734</ele>
        <time>2011-02-06T14:15:43Z</time>
      </trkpt>
      <trkpt lat="45.11312" lon="4.70131">
        <ele>342.29400634766</ele>
        <time>2011-02-06T14:15:45Z</time>
      </trkpt>
      <trkpt lat="45.11275" lon="4.70158">
        <ele>341.9289855957</ele>
        <time>2011-02-06T14:15:51Z</time>
      </trkpt>
      <trkpt lat="45.11268" lon="4.70163">
        <ele>341.875</ele>
        <time>2011-02-06T14:15:52Z</time>
      </trkpt>
      <trkpt lat="45.11236" lon="4.7017">
        <ele>340.86499023438</ele>
        <time>2011-02-06T14:15:56Z</time>
      </trkpt>
      <trkpt lat="45.11211" lon="4.70157">
        <ele>339.38598632812</ele>
        <time>2011-02-06T14:15:59Z</time>
      </trkpt>
      <trkpt lat="45.11153" lon="4.70139">
        <ele>337.29598999023</ele>
        <time>2011-02-06T14:16:05Z</time>
      </trkpt>
      <trkpt lat="45.111" lon="4.70149">
        <ele>335.02200317383</ele>
        <time>2011-02-06T14:16:10Z</time>
      </trkpt>
      <trkpt lat="45.11059" lon="4.70171">
        <ele>332.81900024414</ele>
        <time>2011-02-06T14:16:14Z</time>
      </trkpt>
      <trkpt lat="45.11049" lon="4.70179">
        <ele>332.53601074219</ele>
        <time>2011-02-06T14:16:15Z</time>
      </trkpt>
      <trkpt lat="45.11009" lon="4.70215">
        <ele>330.5830078125</ele>
        <time>2011-02-06T14:16:19Z</time>
      </trkpt>
      <trkpt lat="45.10962" lon="4.70268">
        <ele>328.03298950195</ele>
        <time>2011-02-06T14:16:24Z</time>
      </trkpt>
      <trkpt lat="45.10928" lon="4.7032">
        <ele>325.76901245117</ele>
        <time>2011-02-06T14:16:28Z</time>
      </trkpt>
      <trkpt lat="45.1091" lon="4.70345">
        <ele>323.76599121094</ele>
        <time>2011-02-06T14:16:30Z</time>
      </trkpt>
      <trkpt lat="45.10877" lon="4.70375">
        <ele>322.45300292969</ele>
        <time>2011-02-06T14:16:33Z</time>
      </trkpt>
      <trkpt lat="45.10828" lon="4.70399">
        <ele>320.61999511719</ele>
        <time>2011-02-06T14:16:37Z</time>
      </trkpt>
      <trkpt lat="45.10787" lon="4.70396">
        <ele>318.91299438477</ele>
        <time>2011-02-06T14:16:40Z</time>
      </trkpt>
      <trkpt lat="45.10764" lon="4.70374">
        <ele>318.14898681641</ele>
        <time>2011-02-06T14:16:42Z</time>
      </trkpt>
      <trkpt lat="45.10754" lon="4.7036">
        <ele>317.90301513672</ele>
        <time>2011-02-06T14:16:43Z</time>
      </trkpt>
      <trkpt lat="45.10696" lon="4.70314">
        <ele>314.92300415039</ele>
        <time>2011-02-06T14:16:48Z</time>
      </trkpt>
      <trkpt lat="45.1067" lon="4.7032">
        <ele>313.8450012207</ele>
        <time>2011-02-06T14:16:50Z</time>
      </trkpt>
      <trkpt lat="45.10658" lon="4.70328">
        <ele>313.63500976562</ele>
        <time>2011-02-06T14:16:51Z</time>
      </trkpt>
      <trkpt lat="45.10598" lon="4.70355">
        <ele>313.20901489258</ele>
        <time>2011-02-06T14:16:56Z</time>
      </trkpt>
      <trkpt lat="45.10573" lon="4.70351">
        <ele>312.7380065918</ele>
        <time>2011-02-06T14:16:58Z</time>
      </trkpt>
      <trkpt lat="45.1049" lon="4.7032">
        <ele>311.91101074219</ele>
        <time>2011-02-06T14:17:05Z</time>
      </trkpt>
      <trkpt lat="45.10468" lon="4.70306">
        <ele>311.48400878906</ele>
        <time>2011-02-06T14:17:07Z</time>
      </trkpt>
      <trkpt lat="45.10457" lon="4.703">
        <ele>311.31900024414</ele>
        <time>2011-02-06T14:17:08Z</time>
      </trkpt>
      <trkpt lat="45.10411" lon="4.70291">
        <ele>310.21600341797</ele>
        <time>2011-02-06T14:17:12Z</time>
      </trkpt>
      <trkpt lat="45.10378" lon="4.70306">
        <ele>309.79598999023</ele>
        <time>2011-02-06T14:17:15Z</time>
      </trkpt>
      <trkpt lat="45.10349" lon="4.70337">
        <ele>310.14599609375</ele>
        <time>2011-02-06T14:17:18Z</time>
      </trkpt>
      <trkpt lat="45.10315" lon="4.70383">
        <ele>310.23699951172</ele>
        <time>2011-02-06T14:17:22Z</time>
      </trkpt>
      <trkpt lat="45.10276" lon="4.70409">
        <ele>310.41799926758</ele>
        <time>2011-02-06T14:17:26Z</time>
      </trkpt>
      <trkpt lat="45.10265" lon="4.70412">
        <ele>310.35400390625</ele>
        <time>2011-02-06T14:17:27Z</time>
      </trkpt>
      <trkpt lat="45.10184" lon="4.70426">
        <ele>310.56600952148</ele>
        <time>2011-02-06T14:17:35Z</time>
      </trkpt>
      <trkpt lat="45.10115" lon="4.7042">
        <ele>310.59600830078</ele>
        <time>2011-02-06T14:17:42Z</time>
      </trkpt>
      <trkpt lat="45.10038" lon="4.70402">
        <ele>310.15399169922</ele>
        <time>2011-02-06T14:17:50Z</time>
      </trkpt>
      <trkpt lat="45.09965" lon="4.70386">
        <ele>310.6960144043</ele>
        <time>2011-02-06T14:17:58Z</time>
      </trkpt>
      <trkpt lat="45.09892" lon="4.7037">
        <ele>312.01699829102</ele>
        <time>2011-02-06T14:18:07Z</time>
      </trkpt>
      <trkpt lat="45.09847" lon="4.70365">
        <ele>312.57598876953</ele>
        <time>2011-02-06T14:18:13Z</time>
      </trkpt>
      <trkpt lat="45.09839" lon="4.70384">
        <ele>312.51400756836</ele>
        <time>2011-02-06T14:18:16Z</time>
      </trkpt>
      <trkpt lat="45.09841" lon="4.70393">
        <ele>312.09899902344</ele>
        <time>2011-02-06T14:18:17Z</time>
      </trkpt>
      <trkpt lat="45.09846" lon="4.70422">
        <ele>310.72198486328</ele>
        <time>2011-02-06T14:18:20Z</time>
      </trkpt>
      <trkpt lat="45.09854" lon="4.70466">
        <ele>308.61801147461</ele>
        <time>2011-02-06T14:18:24Z</time>
      </trkpt>
      <trkpt lat="45.09865" lon="4.70529">
        <ele>305.86801147461</ele>
        <time>2011-02-06T14:18:29Z</time>
      </trkpt>
      <trkpt lat="45.0989" lon="4.70598">
        <ele>300.63800048828</ele>
        <time>2011-02-06T14:18:34Z</time>
      </trkpt>
      <trkpt lat="45.09914" lon="4.70647">
        <ele>297.62200927734</ele>
        <time>2011-02-06T14:18:38Z</time>
      </trkpt>
      <trkpt lat="45.0992" lon="4.70693">
        <ele>294.03698730469</ele>
        <time>2011-02-06T14:18:42Z</time>
      </trkpt>
      <trkpt lat="45.09919" lon="4.70705">
        <ele>293.74099731445</ele>
        <time>2011-02-06T14:18:43Z</time>
      </trkpt>
      <trkpt lat="45.09905" lon="4.70779">
        <ele>291.01501464844</ele>
        <time>2011-02-06T14:18:49Z</time>
      </trkpt>
      <trkpt lat="45.09903" lon="4.70791">
        <ele>290.71099853516</ele>
        <time>2011-02-06T14:18:50Z</time>
      </trkpt>
      <trkpt lat="45.09899" lon="4.70818">
        <ele>290.04699707031</ele>
        <time>2011-02-06T14:18:52Z</time>
      </trkpt>
      <trkpt lat="45.09896" lon="4.70831">
        <ele>289.39199829102</ele>
        <time>2011-02-06T14:18:53Z</time>
      </trkpt>
      <trkpt lat="45.09885" lon="4.70891">
        <ele>286.75201416016</ele>
        <time>2011-02-06T14:18:57Z</time>
      </trkpt>
      <trkpt lat="45.09885" lon="4.70955">
        <ele>282.23599243164</ele>
        <time>2011-02-06T14:19:01Z</time>
      </trkpt>
      <trkpt lat="45.09884" lon="4.70971">
        <ele>281.49398803711</ele>
        <time>2011-02-06T14:19:02Z</time>
      </trkpt>
      <trkpt lat="45.09896" lon="4.71013">
        <ele>284.7919921875</ele>
        <time>2011-02-06T14:19:06Z</time>
      </trkpt>
      <trkpt lat="45.09903" lon="4.71029">
        <ele>287.17999267578</ele>
        <time>2011-02-06T14:19:08Z</time>
      </trkpt>
      <trkpt lat="45.09909" lon="4.7105">
        <ele>288.7080078125</ele>
        <time>2011-02-06T14:19:11Z</time>
      </trkpt>
      <trkpt lat="45.09919" lon="4.71059">
        <ele>290.03500366211</ele>
        <time>2011-02-06T14:19:14Z</time>
      </trkpt>
      <trkpt lat="45.09927" lon="4.71059">
        <ele>291.20098876953</ele>
        <time>2011-02-06T14:19:17Z</time>
      </trkpt>
      <trkpt lat="45.09929" lon="4.71058">
        <ele>291.54800415039</ele>
        <time>2011-02-06T14:19:18Z</time>
      </trkpt>
      <trkpt lat="45.09932" lon="4.71057">
        <ele>291.94198608398</ele>
        <time>2011-02-06T14:19:19Z</time>
      </trkpt>
      <trkpt lat="45.09935" lon="4.71053">
        <ele>292.53698730469</ele>
        <time>2011-02-06T14:19:21Z</time>
      </trkpt>
      <trkpt lat="45.09949" lon="4.71035">
        <ele>294.76599121094</ele>
        <time>2011-02-06T14:19:29Z</time>
      </trkpt>
      <trkpt lat="45.0996" lon="4.71033">
        <ele>296.27099609375</ele>
        <time>2011-02-06T14:19:34Z</time>
      </trkpt>
      <trkpt lat="45.09976" lon="4.71044">
        <ele>298.06298828125</ele>
        <time>2011-02-06T14:19:41Z</time>
      </trkpt>
      <trkpt lat="45.09998" lon="4.71061">
        <ele>299.35998535156</ele>
        <time>2011-02-06T14:19:49Z</time>
      </trkpt>
      <trkpt lat="45.10017" lon="4.71078">
        <ele>301.3869934082</ele>
        <time>2011-02-06T14:19:56Z</time>
      </trkpt>
      <trkpt lat="45.10027" lon="4.71096">
        <ele>302.92599487305</ele>
        <time>2011-02-06T14:20:02Z</time>
      </trkpt>
      <trkpt lat="45.10032" lon="4.71109">
        <ele>304.61401367188</ele>
        <time>2011-02-06T14:20:06Z</time>
      </trkpt>
      <trkpt lat="45.10036" lon="4.71133">
        <ele>306.78500366211</ele>
        <time>2011-02-06T14:20:13Z</time>
      </trkpt>
      <trkpt lat="45.10035" lon="4.7114">
        <ele>307.5530090332</ele>
        <time>2011-02-06T14:20:15Z</time>
      </trkpt>
      <trkpt lat="45.10034" lon="4.71144">
        <ele>307.76098632812</ele>
        <time>2011-02-06T14:20:16Z</time>
      </trkpt>
      <trkpt lat="45.10028" lon="4.71159">
        <ele>309.15798950195</ele>
        <time>2011-02-06T14:20:21Z</time>
      </trkpt>
      <trkpt lat="45.10022" lon="4.71169">
        <ele>310.52600097656</ele>
        <time>2011-02-06T14:20:26Z</time>
      </trkpt>
      <trkpt lat="45.10017" lon="4.71175">
        <ele>311.99301147461</ele>
        <time>2011-02-06T14:20:31Z</time>
      </trkpt>
      <trkpt lat="45.10009" lon="4.71186">
        <ele>314.30099487305</ele>
        <time>2011-02-06T14:20:38Z</time>
      </trkpt>
      <trkpt lat="45.10008" lon="4.71187">
        <ele>314.44000244141</ele>
        <time>2011-02-06T14:20:39Z</time>
      </trkpt>
      <trkpt lat="45.09999" lon="4.71197">
        <ele>316.11199951172</ele>
        <time>2011-02-06T14:20:46Z</time>
      </trkpt>
      <trkpt lat="45.09993" lon="4.71202">
        <ele>317.31698608398</ele>
        <time>2011-02-06T14:20:51Z</time>
      </trkpt>
      <trkpt lat="45.09985" lon="4.71213">
        <ele>318.99099731445</ele>
        <time>2011-02-06T14:20:59Z</time>
      </trkpt>
      <trkpt lat="45.09977" lon="4.71223">
        <ele>320.0119934082</ele>
        <time>2011-02-06T14:21:04Z</time>
      </trkpt>
      <trkpt lat="45.09974" lon="4.7123">
        <ele>320.60501098633</ele>
        <time>2011-02-06T14:21:07Z</time>
      </trkpt>
      <trkpt lat="45.09965" lon="4.71244">
        <ele>322.24600219727</ele>
        <time>2011-02-06T14:21:14Z</time>
      </trkpt>
      <trkpt lat="45.09963" lon="4.71248">
        <ele>322.59298706055</ele>
        <time>2011-02-06T14:21:16Z</time>
      </trkpt>
      <trkpt lat="45.09955" lon="4.71266">
        <ele>324.34100341797</ele>
        <time>2011-02-06T14:21:24Z</time>
      </trkpt>
      <trkpt lat="45.09953" lon="4.71285">
        <ele>325.70999145508</ele>
        <time>2011-02-06T14:21:31Z</time>
      </trkpt>
      <trkpt lat="45.09953" lon="4.71292">
        <ele>326.39801025391</ele>
        <time>2011-02-06T14:21:34Z</time>
      </trkpt>
      <trkpt lat="45.09948" lon="4.7131">
        <ele>327.82299804688</ele>
        <time>2011-02-06T14:21:41Z</time>
      </trkpt>
      <trkpt lat="45.09942" lon="4.71325">
        <ele>327.75698852539</ele>
        <time>2011-02-06T14:21:46Z</time>
      </trkpt>
      <trkpt lat="45.09935" lon="4.71347">
        <ele>327.40899658203</ele>
        <time>2011-02-06T14:21:51Z</time>
      </trkpt>
      <trkpt lat="45.09929" lon="4.71378">
        <ele>327.39001464844</ele>
        <time>2011-02-06T14:21:57Z</time>
      </trkpt>
      <trkpt lat="45.09927" lon="4.71392">
        <ele>326.23098754883</ele>
        <time>2011-02-06T14:22:00Z</time>
      </trkpt>
      <trkpt lat="45.09922" lon="4.71404">
        <ele>325.04901123047</ele>
        <time>2011-02-06T14:22:02Z</time>
      </trkpt>
      <trkpt lat="45.09918" lon="4.71444">
        <ele>322.51400756836</ele>
        <time>2011-02-06T14:22:06Z</time>
      </trkpt>
      <trkpt lat="45.0992" lon="4.71455">
        <ele>322.22100830078</ele>
        <time>2011-02-06T14:22:07Z</time>
      </trkpt>
      <trkpt lat="45.09924" lon="4.71466">
        <ele>321.62200927734</ele>
        <time>2011-02-06T14:22:08Z</time>
      </trkpt>
      <trkpt lat="45.09935" lon="4.71497">
        <ele>321.35198974609</ele>
        <time>2011-02-06T14:22:11Z</time>
      </trkpt>
      <trkpt lat="45.09942" lon="4.71541">
        <ele>322.58700561523</ele>
        <time>2011-02-06T14:22:16Z</time>
      </trkpt>
      <trkpt lat="45.09943" lon="4.71565">
        <ele>324.55899047852</ele>
        <time>2011-02-06T14:22:21Z</time>
      </trkpt>
      <trkpt lat="45.09943" lon="4.71586">
        <ele>327.18399047852</ele>
        <time>2011-02-06T14:22:27Z</time>
      </trkpt>
      <trkpt lat="45.09945" lon="4.716">
        <ele>328.47698974609</ele>
        <time>2011-02-06T14:22:31Z</time>
      </trkpt>
      <trkpt lat="45.0995" lon="4.71623">
        <ele>330.14498901367</ele>
        <time>2011-02-06T14:22:37Z</time>
      </trkpt>
      <trkpt lat="45.09957" lon="4.71652">
        <ele>332.13500976562</ele>
        <time>2011-02-06T14:22:43Z</time>
      </trkpt>
      <trkpt lat="45.09959" lon="4.71657">
        <ele>332.41900634766</ele>
        <time>2011-02-06T14:22:44Z</time>
      </trkpt>
      <trkpt lat="45.09961" lon="4.71672">
        <ele>334.11599731445</ele>
        <time>2011-02-06T14:22:47Z</time>
      </trkpt>
      <trkpt lat="45.09956" lon="4.71701">
        <ele>333.35000610352</ele>
        <time>2011-02-06T14:22:51Z</time>
      </trkpt>
      <trkpt lat="45.09944" lon="4.71732">
        <ele>332.1780090332</ele>
        <time>2011-02-06T14:22:55Z</time>
      </trkpt>
      <trkpt lat="45.09918" lon="4.71773">
        <ele>334.52499389648</ele>
        <time>2011-02-06T14:23:02Z</time>
      </trkpt>
      <trkpt lat="45.09901" lon="4.71806">
        <ele>338.27499389648</ele>
        <time>2011-02-06T14:23:07Z</time>
      </trkpt>
      <trkpt lat="45.09893" lon="4.71837">
        <ele>340.2380065918</ele>
        <time>2011-02-06T14:23:11Z</time>
      </trkpt>
      <trkpt lat="45.09892" lon="4.71844">
        <ele>340.34899902344</ele>
        <time>2011-02-06T14:23:12Z</time>
      </trkpt>
      <trkpt lat="45.09894" lon="4.71878">
        <ele>341.06298828125</ele>
        <time>2011-02-06T14:23:18Z</time>
      </trkpt>
      <trkpt lat="45.09892" lon="4.7192">
        <ele>341.67001342773</ele>
        <time>2011-02-06T14:23:26Z</time>
      </trkpt>
      <trkpt lat="45.09887" lon="4.71948">
        <ele>341.38900756836</ele>
        <time>2011-02-06T14:23:31Z</time>
      </trkpt>
      <trkpt lat="45.09886" lon="4.71975">
        <ele>340.83599853516</ele>
        <time>2011-02-06T14:23:35Z</time>
      </trkpt>
      <trkpt lat="45.09892" lon="4.72014">
        <ele>340.28201293945</ele>
        <time>2011-02-06T14:23:41Z</time>
      </trkpt>
      <trkpt lat="45.09899" lon="4.72064">
        <ele>337.98901367188</ele>
        <time>2011-02-06T14:23:47Z</time>
      </trkpt>
      <trkpt lat="45.09903" lon="4.72096">
        <ele>337.10101318359</ele>
        <time>2011-02-06T14:23:50Z</time>
      </trkpt>
      <trkpt lat="45.09908" lon="4.72153">
        <ele>336.68899536133</ele>
        <time>2011-02-06T14:23:56Z</time>
      </trkpt>
      <trkpt lat="45.09912" lon="4.7219">
        <ele>337.10000610352</ele>
        <time>2011-02-06T14:24:01Z</time>
      </trkpt>
      <trkpt lat="45.09915" lon="4.72203">
        <ele>337.71301269531</ele>
        <time>2011-02-06T14:24:03Z</time>
      </trkpt>
      <trkpt lat="45.09929" lon="4.72243">
        <ele>338.56799316406</ele>
        <time>2011-02-06T14:24:10Z</time>
      </trkpt>
      <trkpt lat="45.09945" lon="4.72289">
        <ele>337.94000244141</ele>
        <time>2011-02-06T14:24:17Z</time>
      </trkpt>
      <trkpt lat="45.09961" lon="4.72336">
        <ele>335.87100219727</ele>
        <time>2011-02-06T14:24:23Z</time>
      </trkpt>
      <trkpt lat="45.09964" lon="4.72346">
        <ele>335.57998657227</ele>
        <time>2011-02-06T14:24:24Z</time>
      </trkpt>
      <trkpt lat="45.09988" lon="4.72387">
        <ele>333.75799560547</ele>
        <time>2011-02-06T14:24:29Z</time>
      </trkpt>
      <trkpt lat="45.09995" lon="4.72394">
        <ele>333.60699462891</ele>
        <time>2011-02-06T14:24:30Z</time>
      </trkpt>
      <trkpt lat="45.10001" lon="4.72402">
        <ele>333.48699951172</ele>
        <time>2011-02-06T14:24:31Z</time>
      </trkpt>
      <trkpt lat="45.10014" lon="4.72417">
        <ele>332.75698852539</ele>
        <time>2011-02-06T14:24:33Z</time>
      </trkpt>
      <trkpt lat="45.10031" lon="4.72455">
        <ele>332.47399902344</ele>
        <time>2011-02-06T14:24:37Z</time>
      </trkpt>
      <trkpt lat="45.10034" lon="4.72464">
        <ele>331.47698974609</ele>
        <time>2011-02-06T14:24:38Z</time>
      </trkpt>
      <trkpt lat="45.10051" lon="4.72486">
        <ele>327.89300537109</ele>
        <time>2011-02-06T14:24:42Z</time>
      </trkpt>
      <trkpt lat="45.10069" lon="4.72501">
        <ele>327.90399169922</ele>
        <time>2011-02-06T14:24:45Z</time>
      </trkpt>
      <trkpt lat="45.1011" lon="4.72524">
        <ele>327.12701416016</ele>
        <time>2011-02-06T14:24:51Z</time>
      </trkpt>
      <trkpt lat="45.1013" lon="4.72549">
        <ele>325.95700073242</ele>
        <time>2011-02-06T14:24:55Z</time>
      </trkpt>
      <trkpt lat="45.10133" lon="4.7258">
        <ele>325.35400390625</ele>
        <time>2011-02-06T14:24:58Z</time>
      </trkpt>
      <trkpt lat="45.10136" lon="4.72624">
        <ele>325.08401489258</ele>
        <time>2011-02-06T14:25:02Z</time>
      </trkpt>
      <trkpt lat="45.10144" lon="4.72654">
        <ele>323.88400268555</ele>
        <time>2011-02-06T14:25:05Z</time>
      </trkpt>
      <trkpt lat="45.10181" lon="4.72723">
        <ele>319.42700195312</ele>
        <time>2011-02-06T14:25:12Z</time>
      </trkpt>
      <trkpt lat="45.10218" lon="4.72774">
        <ele>315.38800048828</ele>
        <time>2011-02-06T14:25:17Z</time>
      </trkpt>
      <trkpt lat="45.10268" lon="4.72842">
        <ele>310.55801391602</ele>
        <time>2011-02-06T14:25:23Z</time>
      </trkpt>
      <trkpt lat="45.10287" lon="4.72863">
        <ele>308.99899291992</ele>
        <time>2011-02-06T14:25:25Z</time>
      </trkpt>
      <trkpt lat="45.10328" lon="4.72927">
        <ele>303.71798706055</ele>
        <time>2011-02-06T14:25:30Z</time>
      </trkpt>
      <trkpt lat="45.10352" lon="4.72989">
        <ele>300.34600830078</ele>
        <time>2011-02-06T14:25:34Z</time>
      </trkpt>
      <trkpt lat="45.10358" lon="4.73004">
        <ele>300.07800292969</ele>
        <time>2011-02-06T14:25:35Z</time>
      </trkpt>
      <trkpt lat="45.10395" lon="4.73103">
        <ele>297.14001464844</ele>
        <time>2011-02-06T14:25:42Z</time>
      </trkpt>
      <trkpt lat="45.10414" lon="4.73153">
        <ele>295.78100585938</ele>
        <time>2011-02-06T14:25:46Z</time>
      </trkpt>
      <trkpt lat="45.10424" lon="4.73225">
        <ele>292.00399780273</ele>
        <time>2011-02-06T14:25:51Z</time>
      </trkpt>
      <trkpt lat="45.10424" lon="4.73287">
        <ele>289.5719909668</ele>
        <time>2011-02-06T14:25:55Z</time>
      </trkpt>
      <trkpt lat="45.10424" lon="4.73367">
        <ele>285.49798583984</ele>
        <time>2011-02-06T14:26:00Z</time>
      </trkpt>
      <trkpt lat="45.10424" lon="4.73383">
        <ele>284.68701171875</ele>
        <time>2011-02-06T14:26:01Z</time>
      </trkpt>
      <trkpt lat="45.10443" lon="4.73442">
        <ele>281.90100097656</ele>
        <time>2011-02-06T14:26:05Z</time>
      </trkpt>
      <trkpt lat="45.10473" lon="4.73515">
        <ele>277.70901489258</ele>
        <time>2011-02-06T14:26:10Z</time>
      </trkpt>
      <trkpt lat="45.1048" lon="4.73541">
        <ele>277.21301269531</ele>
        <time>2011-02-06T14:26:12Z</time>
      </trkpt>
      <trkpt lat="45.10475" lon="4.73568">
        <ele>276.89498901367</ele>
        <time>2011-02-06T14:26:15Z</time>
      </trkpt>
      <trkpt lat="45.10463" lon="4.73577">
        <ele>276.63900756836</ele>
        <time>2011-02-06T14:26:17Z</time>
      </trkpt>
      <trkpt lat="45.10451" lon="4.73585">
        <ele>277.03900146484</ele>
        <time>2011-02-06T14:26:19Z</time>
      </trkpt>
      <trkpt lat="45.10431" lon="4.73614">
        <ele>278.17401123047</ele>
        <time>2011-02-06T14:26:24Z</time>
      </trkpt>
      <trkpt lat="45.10414" lon="4.73659">
        <ele>279.20498657227</ele>
        <time>2011-02-06T14:26:30Z</time>
      </trkpt>
      <trkpt lat="45.10403" lon="4.7369">
        <ele>279.5530090332</ele>
        <time>2011-02-06T14:26:34Z</time>
      </trkpt>
      <trkpt lat="45.10394" lon="4.73712">
        <ele>280.29501342773</ele>
        <time>2011-02-06T14:26:37Z</time>
      </trkpt>
      <trkpt lat="45.10366" lon="4.73749">
        <ele>282.10900878906</ele>
        <time>2011-02-06T14:26:43Z</time>
      </trkpt>
      <trkpt lat="45.10349" lon="4.73769">
        <ele>282.06298828125</ele>
        <time>2011-02-06T14:26:46Z</time>
      </trkpt>
      <trkpt lat="45.10333" lon="4.73801">
        <ele>280.72299194336</ele>
        <time>2011-02-06T14:26:50Z</time>
      </trkpt>
      <trkpt lat="45.10345" lon="4.73822">
        <ele>279.45901489258</ele>
        <time>2011-02-06T14:26:52Z</time>
      </trkpt>
      <trkpt lat="45.10365" lon="4.7385">
        <ele>278.14700317383</ele>
        <time>2011-02-06T14:26:55Z</time>
      </trkpt>
      <trkpt lat="45.10364" lon="4.73886">
        <ele>276.84100341797</ele>
        <time>2011-02-06T14:26:58Z</time>
      </trkpt>
      <trkpt lat="45.10354" lon="4.73942">
        <ele>277.93899536133</ele>
        <time>2011-02-06T14:27:03Z</time>
      </trkpt>
      <trkpt lat="45.10339" lon="4.73981">
        <ele>279.05999755859</ele>
        <time>2011-02-06T14:27:07Z</time>
      </trkpt>
      <trkpt lat="45.10331" lon="4.74">
        <ele>279.85800170898</ele>
        <time>2011-02-06T14:27:09Z</time>
      </trkpt>
      <trkpt lat="45.10327" lon="4.7404">
        <ele>283.08099365234</ele>
        <time>2011-02-06T14:27:13Z</time>
      </trkpt>
      <trkpt lat="45.10332" lon="4.7406">
        <ele>284.35000610352</ele>
        <time>2011-02-06T14:27:15Z</time>
      </trkpt>
      <trkpt lat="45.10344" lon="4.74109">
        <ele>286.36700439453</ele>
        <time>2011-02-06T14:27:20Z</time>
      </trkpt>
      <trkpt lat="45.10348" lon="4.74179">
        <ele>288.89599609375</ele>
        <time>2011-02-06T14:27:27Z</time>
      </trkpt>
      <trkpt lat="45.10349" lon="4.74198">
        <ele>289.44100952148</ele>
        <time>2011-02-06T14:27:29Z</time>
      </trkpt>
      <trkpt lat="45.1035" lon="4.74206">
        <ele>289.85299682617</ele>
        <time>2011-02-06T14:27:30Z</time>
      </trkpt>
      <trkpt lat="45.10366" lon="4.74256">
        <ele>290.18701171875</ele>
        <time>2011-02-06T14:27:37Z</time>
      </trkpt>
      <trkpt lat="45.10393" lon="4.74312">
        <ele>289.97198486328</ele>
        <time>2011-02-06T14:27:45Z</time>
      </trkpt>
      <trkpt lat="45.10416" lon="4.74363">
        <ele>290.66500854492</ele>
        <time>2011-02-06T14:27:53Z</time>
      </trkpt>
      <trkpt lat="45.1043" lon="4.7439">
        <ele>292.0119934082</ele>
        <time>2011-02-06T14:27:59Z</time>
      </trkpt>
      <trkpt lat="45.10454" lon="4.74422">
        <ele>293.36898803711</ele>
        <time>2011-02-06T14:28:08Z</time>
      </trkpt>
      <trkpt lat="45.10479" lon="4.74451">
        <ele>295.1669921875</ele>
        <time>2011-02-06T14:28:17Z</time>
      </trkpt>
      <trkpt lat="45.10489" lon="4.74472">
        <ele>296.56600952148</ele>
        <time>2011-02-06T14:28:23Z</time>
      </trkpt>
      <trkpt lat="45.10496" lon="4.74504">
        <ele>297.71701049805</ele>
        <time>2011-02-06T14:28:30Z</time>
      </trkpt>
      <trkpt lat="45.10504" lon="4.74547">
        <ele>298.59799194336</ele>
        <time>2011-02-06T14:28:38Z</time>
      </trkpt>
      <trkpt lat="45.10515" lon="4.74587">
        <ele>297.95999145508</ele>
        <time>2011-02-06T14:28:44Z</time>
      </trkpt>
      <trkpt lat="45.10528" lon="4.74633">
        <ele>297.43798828125</ele>
        <time>2011-02-06T14:28:50Z</time>
      </trkpt>
      <trkpt lat="45.10537" lon="4.74656">
        <ele>297.01998901367</ele>
        <time>2011-02-06T14:28:53Z</time>
      </trkpt>
      <trkpt lat="45.10541" lon="4.74673">
        <ele>296.64300537109</ele>
        <time>2011-02-06T14:28:55Z</time>
      </trkpt>
      <trkpt lat="45.10563" lon="4.74718">
        <ele>295.05999755859</ele>
        <time>2011-02-06T14:29:01Z</time>
      </trkpt>
      <trkpt lat="45.1058" lon="4.74741">
        <ele>293.51901245117</ele>
        <time>2011-02-06T14:29:04Z</time>
      </trkpt>
      <trkpt lat="45.10611" lon="4.74787">
        <ele>290.03601074219</ele>
        <time>2011-02-06T14:29:09Z</time>
      </trkpt>
      <trkpt lat="45.1063" lon="4.74828">
        <ele>289.05499267578</ele>
        <time>2011-02-06T14:29:13Z</time>
      </trkpt>
      <trkpt lat="45.10643" lon="4.74856">
        <ele>289.05599975586</ele>
        <time>2011-02-06T14:29:16Z</time>
      </trkpt>
      <trkpt lat="45.10673" lon="4.74922">
        <ele>289.26501464844</ele>
        <time>2011-02-06T14:29:24Z</time>
      </trkpt>
      <trkpt lat="45.10673" lon="4.74955">
        <ele>289.81201171875</ele>
        <time>2011-02-06T14:29:28Z</time>
      </trkpt>
      <trkpt lat="45.10649" lon="4.75012">
        <ele>289.98199462891</ele>
        <time>2011-02-06T14:29:35Z</time>
      </trkpt>
      <trkpt lat="45.1062" lon="4.75079">
        <ele>290.73599243164</ele>
        <time>2011-02-06T14:29:43Z</time>
      </trkpt>
      <trkpt lat="45.1059" lon="4.7515">
        <ele>291.31698608398</ele>
        <time>2011-02-06T14:29:52Z</time>
      </trkpt>
      <trkpt lat="45.10571" lon="4.75206">
        <ele>292.43701171875</ele>
        <time>2011-02-06T14:29:59Z</time>
      </trkpt>
      <trkpt lat="45.10557" lon="4.75278">
        <ele>292.79299926758</ele>
        <time>2011-02-06T14:30:07Z</time>
      </trkpt>
      <trkpt lat="45.10555" lon="4.75287">
        <ele>292.93798828125</ele>
        <time>2011-02-06T14:30:08Z</time>
      </trkpt>
      <trkpt lat="45.10532" lon="4.75334">
        <ele>293.83700561523</ele>
        <time>2011-02-06T14:30:14Z</time>
      </trkpt>
      <trkpt lat="45.10481" lon="4.75398">
        <ele>296.01400756836</ele>
        <time>2011-02-06T14:30:25Z</time>
      </trkpt>
      <trkpt lat="45.10454" lon="4.75452">
        <ele>296.42401123047</ele>
        <time>2011-02-06T14:30:32Z</time>
      </trkpt>
      <trkpt lat="45.10429" lon="4.75518">
        <ele>295.55099487305</ele>
        <time>2011-02-06T14:30:39Z</time>
      </trkpt>
      <trkpt lat="45.10387" lon="4.75625">
        <ele>296.09899902344</ele>
        <time>2011-02-06T14:30:50Z</time>
      </trkpt>
      <trkpt lat="45.10353" lon="4.75706">
        <ele>294.56399536133</ele>
        <time>2011-02-06T14:30:58Z</time>
      </trkpt>
      <trkpt lat="45.10308" lon="4.7578">
        <ele>294.43798828125</ele>
        <time>2011-02-06T14:31:06Z</time>
      </trkpt>
      <trkpt lat="45.10288" lon="4.75834">
        <ele>293.64700317383</ele>
        <time>2011-02-06T14:31:11Z</time>
      </trkpt>
      <trkpt lat="45.10266" lon="4.75895">
        <ele>291.39199829102</ele>
        <time>2011-02-06T14:31:16Z</time>
      </trkpt>
      <trkpt lat="45.10239" lon="4.75939">
        <ele>290.19799804688</ele>
        <time>2011-02-06T14:31:20Z</time>
      </trkpt>
      <trkpt lat="45.10173" lon="4.76016">
        <ele>288.47500610352</ele>
        <time>2011-02-06T14:31:28Z</time>
      </trkpt>
      <trkpt lat="45.10128" lon="4.7606">
        <ele>287.18899536133</ele>
        <time>2011-02-06T14:31:33Z</time>
      </trkpt>
      <trkpt lat="45.10077" lon="4.76089">
        <ele>286.42300415039</ele>
        <time>2011-02-06T14:31:38Z</time>
      </trkpt>
      <trkpt lat="45.10044" lon="4.761">
        <ele>285.92599487305</ele>
        <time>2011-02-06T14:31:41Z</time>
      </trkpt>
      <trkpt lat="45.09991" lon="4.76098">
        <ele>284.64401245117</ele>
        <time>2011-02-06T14:31:46Z</time>
      </trkpt>
      <trkpt lat="45.09953" lon="4.76085">
        <ele>285.22900390625</ele>
        <time>2011-02-06T14:31:50Z</time>
      </trkpt>
      <trkpt lat="45.09902" lon="4.7605">
        <ele>286.77200317383</ele>
        <time>2011-02-06T14:31:56Z</time>
      </trkpt>
      <trkpt lat="45.09823" lon="4.75994">
        <ele>285.92300415039</ele>
        <time>2011-02-06T14:32:05Z</time>
      </trkpt>
      <trkpt lat="45.09772" lon="4.75966">
        <ele>283.97198486328</ele>
        <time>2011-02-06T14:32:10Z</time>
      </trkpt>
      <trkpt lat="45.09715" lon="4.7595">
        <ele>281.90701293945</ele>
        <time>2011-02-06T14:32:15Z</time>
      </trkpt>
      <trkpt lat="45.09692" lon="4.75945">
        <ele>280.92498779297</ele>
        <time>2011-02-06T14:32:17Z</time>
      </trkpt>
      <trkpt lat="45.0962" lon="4.75941">
        <ele>278.35598754883</ele>
        <time>2011-02-06T14:32:23Z</time>
      </trkpt>
      <trkpt lat="45.09583" lon="4.75951">
        <ele>277.3039855957</ele>
        <time>2011-02-06T14:32:26Z</time>
      </trkpt>
      <trkpt lat="45.09541" lon="4.75984">
        <ele>275.84600830078</ele>
        <time>2011-02-06T14:32:30Z</time>
      </trkpt>
      <trkpt lat="45.09512" lon="4.76039">
        <ele>273.86700439453</ele>
        <time>2011-02-06T14:32:34Z</time>
      </trkpt>
      <trkpt lat="45.09501" lon="4.76071">
        <ele>273.07901000977</ele>
        <time>2011-02-06T14:32:36Z</time>
      </trkpt>
      <trkpt lat="45.09459" lon="4.76196">
        <ele>269.37799072266</ele>
        <time>2011-02-06T14:32:44Z</time>
      </trkpt>
      <trkpt lat="45.09425" lon="4.76246">
        <ele>266.88101196289</ele>
        <time>2011-02-06T14:32:48Z</time>
      </trkpt>
      <trkpt lat="45.09402" lon="4.7626">
        <ele>265.80999755859</ele>
        <time>2011-02-06T14:32:50Z</time>
      </trkpt>
      <trkpt lat="45.09378" lon="4.76267">
        <ele>264.81799316406</ele>
        <time>2011-02-06T14:32:52Z</time>
      </trkpt>
      <trkpt lat="45.09336" lon="4.76298">
        <ele>263.16299438477</ele>
        <time>2011-02-06T14:32:56Z</time>
      </trkpt>
      <trkpt lat="45.09333" lon="4.76331">
        <ele>262.11898803711</ele>
        <time>2011-02-06T14:32:58Z</time>
      </trkpt>
      <trkpt lat="45.09334" lon="4.76348">
        <ele>261.83898925781</ele>
        <time>2011-02-06T14:32:59Z</time>
      </trkpt>
      <trkpt lat="45.09329" lon="4.76396">
        <ele>259.64700317383</ele>
        <time>2011-02-06T14:33:02Z</time>
      </trkpt>
      <trkpt lat="45.09314" lon="4.76417">
        <ele>258.44000244141</ele>
        <time>2011-02-06T14:33:04Z</time>
      </trkpt>
      <trkpt lat="45.09304" lon="4.76425">
        <ele>257.8330078125</ele>
        <time>2011-02-06T14:33:05Z</time>
      </trkpt>
      <trkpt lat="45.09252" lon="4.7646">
        <ele>255.62699890137</ele>
        <time>2011-02-06T14:33:10Z</time>
      </trkpt>
      <trkpt lat="45.09216" lon="4.76464">
        <ele>254.04100036621</ele>
        <time>2011-02-06T14:33:13Z</time>
      </trkpt>
      <trkpt lat="45.09204" lon="4.7646">
        <ele>253.42599487305</ele>
        <time>2011-02-06T14:33:14Z</time>
      </trkpt>
      <trkpt lat="45.09168" lon="4.7645">
        <ele>252.05799865723</ele>
        <time>2011-02-06T14:33:17Z</time>
      </trkpt>
      <trkpt lat="45.09144" lon="4.76459">
        <ele>250.85499572754</ele>
        <time>2011-02-06T14:33:19Z</time>
      </trkpt>
      <trkpt lat="45.09126" lon="4.76485">
        <ele>249.73199462891</ele>
        <time>2011-02-06T14:33:21Z</time>
      </trkpt>
      <trkpt lat="45.09122" lon="4.76519">
        <ele>248.74800109863</ele>
        <time>2011-02-06T14:33:23Z</time>
      </trkpt>
      <trkpt lat="45.09131" lon="4.76551">
        <ele>247.51300048828</ele>
        <time>2011-02-06T14:33:25Z</time>
      </trkpt>
      <trkpt lat="45.09138" lon="4.76565">
        <ele>247.02299499512</ele>
        <time>2011-02-06T14:33:26Z</time>
      </trkpt>
      <trkpt lat="45.09177" lon="4.76628">
        <ele>245.0359954834</ele>
        <time>2011-02-06T14:33:31Z</time>
      </trkpt>
      <trkpt lat="45.09187" lon="4.76673">
        <ele>243.51600646973</ele>
        <time>2011-02-06T14:33:34Z</time>
      </trkpt>
      <trkpt lat="45.0918" lon="4.76702">
        <ele>242.92399597168</ele>
        <time>2011-02-06T14:33:36Z</time>
      </trkpt>
      <trkpt lat="45.09174" lon="4.76715">
        <ele>242.16700744629</ele>
        <time>2011-02-06T14:33:37Z</time>
      </trkpt>
      <trkpt lat="45.09162" lon="4.76741">
        <ele>240.80200195312</ele>
        <time>2011-02-06T14:33:39Z</time>
      </trkpt>
      <trkpt lat="45.09142" lon="4.76814">
        <ele>238.55000305176</ele>
        <time>2011-02-06T14:33:44Z</time>
      </trkpt>
      <trkpt lat="45.09137" lon="4.76863">
        <ele>237.4880065918</ele>
        <time>2011-02-06T14:33:47Z</time>
      </trkpt>
      <trkpt lat="45.09112" lon="4.76939">
        <ele>234.92999267578</ele>
        <time>2011-02-06T14:33:52Z</time>
      </trkpt>
      <trkpt lat="45.09093" lon="4.76982">
        <ele>233.69900512695</ele>
        <time>2011-02-06T14:33:55Z</time>
      </trkpt>
      <trkpt lat="45.0906" lon="4.77056">
        <ele>231.45399475098</ele>
        <time>2011-02-06T14:34:00Z</time>
      </trkpt>
      <trkpt lat="45.09047" lon="4.77087">
        <ele>229.97900390625</ele>
        <time>2011-02-06T14:34:02Z</time>
      </trkpt>
      <trkpt lat="45.09039" lon="4.77121">
        <ele>228.99800109863</ele>
        <time>2011-02-06T14:34:04Z</time>
      </trkpt>
      <trkpt lat="45.09034" lon="4.77156">
        <ele>228.15800476074</ele>
        <time>2011-02-06T14:34:06Z</time>
      </trkpt>
      <trkpt lat="45.09018" lon="4.77205">
        <ele>225.82200622559</ele>
        <time>2011-02-06T14:34:09Z</time>
      </trkpt>
      <trkpt lat="45.08994" lon="4.77223">
        <ele>223.87199401856</ele>
        <time>2011-02-06T14:34:11Z</time>
      </trkpt>
      <trkpt lat="45.08968" lon="4.77226">
        <ele>222.63499450684</ele>
        <time>2011-02-06T14:34:13Z</time>
      </trkpt>
      <trkpt lat="45.08944" lon="4.77218">
        <ele>221.77900695801</ele>
        <time>2011-02-06T14:34:15Z</time>
      </trkpt>
      <trkpt lat="45.08864" lon="4.77182">
        <ele>221.125</ele>
        <time>2011-02-06T14:34:22Z</time>
      </trkpt>
      <trkpt lat="45.08805" lon="4.77156">
        <ele>221.77600097656</ele>
        <time>2011-02-06T14:34:28Z</time>
      </trkpt>
      <trkpt lat="45.08766" lon="4.7714">
        <ele>222.81799316406</ele>
        <time>2011-02-06T14:34:33Z</time>
      </trkpt>
      <trkpt lat="45.08741" lon="4.77132">
        <ele>223.69799804688</ele>
        <time>2011-02-06T14:34:37Z</time>
      </trkpt>
      <trkpt lat="45.0873" lon="4.77125">
        <ele>224.07299804688</ele>
        <time>2011-02-06T14:34:41Z</time>
      </trkpt>
      <trkpt lat="45.08718" lon="4.77122">
        <ele>224.39799499512</ele>
        <time>2011-02-06T14:34:45Z</time>
      </trkpt>
      <trkpt lat="45.08694" lon="4.77123">
        <ele>225.625</ele>
        <time>2011-02-06T14:34:52Z</time>
      </trkpt>
      <trkpt lat="45.08674" lon="4.77132">
        <ele>226.97500610352</ele>
        <time>2011-02-06T14:34:58Z</time>
      </trkpt>
      <trkpt lat="45.08651" lon="4.77148">
        <ele>228.98399353027</ele>
        <time>2011-02-06T14:35:06Z</time>
      </trkpt>
      <trkpt lat="45.0863" lon="4.77162">
        <ele>231.16299438477</ele>
        <time>2011-02-06T14:35:15Z</time>
      </trkpt>
      <trkpt lat="45.08607" lon="4.77178">
        <ele>232.83000183106</ele>
        <time>2011-02-06T14:35:24Z</time>
      </trkpt>
      <trkpt lat="45.08587" lon="4.77194">
        <ele>235.03300476074</ele>
        <time>2011-02-06T14:35:33Z</time>
      </trkpt>
      <trkpt lat="45.08568" lon="4.77208">
        <ele>236.43099975586</ele>
        <time>2011-02-06T14:35:41Z</time>
      </trkpt>
      <trkpt lat="45.08549" lon="4.77223">
        <ele>237.45799255371</ele>
        <time>2011-02-06T14:35:48Z</time>
      </trkpt>
      <trkpt lat="45.08526" lon="4.77237">
        <ele>238.47599792481</ele>
        <time>2011-02-06T14:35:56Z</time>
      </trkpt>
      <trkpt lat="45.08524" lon="4.77238">
        <ele>238.66799926758</ele>
        <time>2011-02-06T14:35:57Z</time>
      </trkpt>
      <trkpt lat="45.08521" lon="4.77254">
        <ele>239.74600219727</ele>
        <time>2011-02-06T14:36:03Z</time>
      </trkpt>
      <trkpt lat="45.08517" lon="4.77268">
        <ele>240.64300537109</ele>
        <time>2011-02-06T14:36:09Z</time>
      </trkpt>
      <trkpt lat="45.08517" lon="4.77274">
        <ele>240.82800292969</ele>
        <time>2011-02-06T14:36:11Z</time>
      </trkpt>
      <trkpt lat="45.08524" lon="4.77274">
        <ele>240.8690032959</ele>
        <time>2011-02-06T14:36:16Z</time>
      </trkpt>
      <trkpt lat="45.08528" lon="4.77277">
        <ele>240.65100097656</ele>
        <time>2011-02-06T14:36:18Z</time>
      </trkpt>
      <trkpt lat="45.08531" lon="4.77277">
        <ele>240.72900390625</ele>
        <time>2011-02-06T14:36:20Z</time>
      </trkpt>
      <trkpt lat="45.08533" lon="4.77275">
        <ele>240.68299865723</ele>
        <time>2011-02-06T14:36:24Z</time>
      </trkpt>
      <trkpt lat="45.08532" lon="4.77278">
        <ele>240.67500305176</ele>
        <time>2011-02-06T14:36:31Z</time>
      </trkpt>
      <trkpt lat="45.08532" lon="4.77278">
        <ele>240.66999816894</ele>
        <time>2011-02-06T14:36:32Z</time>
      </trkpt>
      <trkpt lat="45.08532" lon="4.77278">
        <ele>240.60699462891</ele>
        <time>2011-02-06T14:36:33Z</time>
      </trkpt>
      <trkpt lat="45.08529" lon="4.77281">
        <ele>242.28999328613</ele>
        <time>2011-02-06T14:55:58Z</time>
      </trkpt>
      <trkpt lat="45.08525" lon="4.77282">
        <ele>242.33599853516</ele>
        <time>2011-02-06T14:56:02Z</time>
      </trkpt>
      <trkpt lat="45.08518" lon="4.77275">
        <ele>242.83999633789</ele>
        <time>2011-02-06T14:56:08Z</time>
      </trkpt>
      <trkpt lat="45.0852" lon="4.77259">
        <ele>242.71499633789</ele>
        <time>2011-02-06T14:56:13Z</time>
      </trkpt>
      <trkpt lat="45.08523" lon="4.77251">
        <ele>242.08500671387</ele>
        <time>2011-02-06T14:56:18Z</time>
      </trkpt>
      <trkpt lat="45.08523" lon="4.77245">
        <ele>241.39399719238</ele>
        <time>2011-02-06T14:56:23Z</time>
      </trkpt>
      <trkpt lat="45.08519" lon="4.77239">
        <ele>241.05299377441</ele>
        <time>2011-02-06T14:56:28Z</time>
      </trkpt>
      <trkpt lat="45.08517" lon="4.7724">
        <ele>241.09700012207</ele>
        <time>2011-02-06T14:56:29Z</time>
      </trkpt>
      <trkpt lat="45.08507" lon="4.77246">
        <ele>241.37600708008</ele>
        <time>2011-02-06T14:56:35Z</time>
      </trkpt>
      <trkpt lat="45.08487" lon="4.77255">
        <ele>242.25399780273</ele>
        <time>2011-02-06T14:56:41Z</time>
      </trkpt>
      <trkpt lat="45.08456" lon="4.77257">
        <ele>244.12100219727</ele>
        <time>2011-02-06T14:56:49Z</time>
      </trkpt>
      <trkpt lat="45.08427" lon="4.77254">
        <ele>245.64199829102</ele>
        <time>2011-02-06T14:56:57Z</time>
      </trkpt>
      <trkpt lat="45.08399" lon="4.77248">
        <ele>245.72200012207</ele>
        <time>2011-02-06T14:57:03Z</time>
      </trkpt>
      <trkpt lat="45.08355" lon="4.77236">
        <ele>245.82099914551</ele>
        <time>2011-02-06T14:57:11Z</time>
      </trkpt>
      <trkpt lat="45.08314" lon="4.77228">
        <ele>245.82299804688</ele>
        <time>2011-02-06T14:57:18Z</time>
      </trkpt>
      <trkpt lat="45.08269" lon="4.77219">
        <ele>245.10299682617</ele>
        <time>2011-02-06T14:57:26Z</time>
      </trkpt>
      <trkpt lat="45.08232" lon="4.77214">
        <ele>244.76300048828</ele>
        <time>2011-02-06T14:57:33Z</time>
      </trkpt>
      <trkpt lat="45.08208" lon="4.77212">
        <ele>244.94500732422</ele>
        <time>2011-02-06T14:57:39Z</time>
      </trkpt>
      <trkpt lat="45.08201" lon="4.7723">
        <ele>244.50900268555</ele>
        <time>2011-02-06T14:57:44Z</time>
      </trkpt>
      <trkpt lat="45.08187" lon="4.77245">
        <ele>243.41999816894</ele>
        <time>2011-02-06T14:57:48Z</time>
      </trkpt>
      <trkpt lat="45.08155" lon="4.77262">
        <ele>242.39399719238</ele>
        <time>2011-02-06T14:57:54Z</time>
      </trkpt>
      <trkpt lat="45.08136" lon="4.77274">
        <ele>240.88900756836</ele>
        <time>2011-02-06T14:57:57Z</time>
      </trkpt>
      <trkpt lat="45.08121" lon="4.77287">
        <ele>240.14100646973</ele>
        <time>2011-02-06T14:57:59Z</time>
      </trkpt>
      <trkpt lat="45.08099" lon="4.7731">
        <ele>238.14199829102</ele>
        <time>2011-02-06T14:58:02Z</time>
      </trkpt>
      <trkpt lat="45.08088" lon="4.77328">
        <ele>237.30799865723</ele>
        <time>2011-02-06T14:58:04Z</time>
      </trkpt>
      <trkpt lat="45.08081" lon="4.77358">
        <ele>235.8390045166</ele>
        <time>2011-02-06T14:58:07Z</time>
      </trkpt>
      <trkpt lat="45.08089" lon="4.77382">
        <ele>236.20799255371</ele>
        <time>2011-02-06T14:58:10Z</time>
      </trkpt>
      <trkpt lat="45.08108" lon="4.77435">
        <ele>236.94099426269</ele>
        <time>2011-02-06T14:58:17Z</time>
      </trkpt>
      <trkpt lat="45.08117" lon="4.77489">
        <ele>234.39599609375</ele>
        <time>2011-02-06T14:58:22Z</time>
      </trkpt>
      <trkpt lat="45.08125" lon="4.77528">
        <ele>231.70700073242</ele>
        <time>2011-02-06T14:58:25Z</time>
      </trkpt>
      <trkpt lat="45.0815" lon="4.77595">
        <ele>226.50700378418</ele>
        <time>2011-02-06T14:58:30Z</time>
      </trkpt>
      <trkpt lat="45.08163" lon="4.77633">
        <ele>223.19000244141</ele>
        <time>2011-02-06T14:58:33Z</time>
      </trkpt>
      <trkpt lat="45.08167" lon="4.77655">
        <ele>221.24899291992</ele>
        <time>2011-02-06T14:58:35Z</time>
      </trkpt>
      <trkpt lat="45.08169" lon="4.77678">
        <ele>220.07099914551</ele>
        <time>2011-02-06T14:58:39Z</time>
      </trkpt>
      <trkpt lat="45.0818" lon="4.77696">
        <ele>218.86500549316</ele>
        <time>2011-02-06T14:58:43Z</time>
      </trkpt>
      <trkpt lat="45.08179" lon="4.77708">
        <ele>218.25300598144</ele>
        <time>2011-02-06T14:58:45Z</time>
      </trkpt>
      <trkpt lat="45.08169" lon="4.77761">
        <ele>216.39700317383</ele>
        <time>2011-02-06T14:58:50Z</time>
      </trkpt>
      <trkpt lat="45.08152" lon="4.77824">
        <ele>213.9880065918</ele>
        <time>2011-02-06T14:58:55Z</time>
      </trkpt>
      <trkpt lat="45.0812" lon="4.77863">
        <ele>211.43699645996</ele>
        <time>2011-02-06T14:58:59Z</time>
      </trkpt>
      <trkpt lat="45.08109" lon="4.77867">
        <ele>210.74299621582</ele>
        <time>2011-02-06T14:59:00Z</time>
      </trkpt>
      <trkpt lat="45.08076" lon="4.77883">
        <ele>208.41499328613</ele>
        <time>2011-02-06T14:59:03Z</time>
      </trkpt>
      <trkpt lat="45.0804" lon="4.77928">
        <ele>205.3450012207</ele>
        <time>2011-02-06T14:59:07Z</time>
      </trkpt>
      <trkpt lat="45.08002" lon="4.77979">
        <ele>201.34199523926</ele>
        <time>2011-02-06T14:59:11Z</time>
      </trkpt>
      <trkpt lat="45.07988" lon="4.77986">
        <ele>200.75700378418</ele>
        <time>2011-02-06T14:59:12Z</time>
      </trkpt>
      <trkpt lat="45.07908" lon="4.78028">
        <ele>194.91499328613</ele>
        <time>2011-02-06T14:59:18Z</time>
      </trkpt>
      <trkpt lat="45.07851" lon="4.78045">
        <ele>191.60200500488</ele>
        <time>2011-02-06T14:59:22Z</time>
      </trkpt>
      <trkpt lat="45.07822" lon="4.7805">
        <ele>189.58000183106</ele>
        <time>2011-02-06T14:59:24Z</time>
      </trkpt>
      <trkpt lat="45.07761" lon="4.78045">
        <ele>186.22999572754</ele>
        <time>2011-02-06T14:59:28Z</time>
      </trkpt>
      <trkpt lat="45.077" lon="4.78023">
        <ele>182.27699279785</ele>
        <time>2011-02-06T14:59:32Z</time>
      </trkpt>
      <trkpt lat="45.07654" lon="4.77997">
        <ele>178.51800537109</ele>
        <time>2011-02-06T14:59:35Z</time>
      </trkpt>
      <trkpt lat="45.07624" lon="4.77977">
        <ele>176.36999511719</ele>
        <time>2011-02-06T14:59:37Z</time>
      </trkpt>
      <trkpt lat="45.07538" lon="4.77909">
        <ele>169.80200195312</ele>
        <time>2011-02-06T14:59:43Z</time>
      </trkpt>
      <trkpt lat="45.0748" lon="4.77861">
        <ele>165.33399963379</ele>
        <time>2011-02-06T14:59:47Z</time>
      </trkpt>
      <trkpt lat="45.07467" lon="4.77849">
        <ele>164.21600341797</ele>
        <time>2011-02-06T14:59:48Z</time>
      </trkpt>
      <trkpt lat="45.07418" lon="4.77842">
        <ele>161.77299499512</ele>
        <time>2011-02-06T14:59:51Z</time>
      </trkpt>
      <trkpt lat="45.07401" lon="4.7785">
        <ele>160.79200744629</ele>
        <time>2011-02-06T14:59:52Z</time>
      </trkpt>
      <trkpt lat="45.07321" lon="4.77876">
        <ele>154.84700012207</ele>
        <time>2011-02-06T14:59:57Z</time>
      </trkpt>
      <trkpt lat="45.07187" lon="4.77894">
        <ele>145.96299743652</ele>
        <time>2011-02-06T15:00:05Z</time>
      </trkpt>
      <trkpt lat="45.0714" lon="4.77917">
        <ele>142.31399536133</ele>
        <time>2011-02-06T15:00:08Z</time>
      </trkpt>
      <trkpt lat="45.07092" lon="4.77932">
        <ele>138.67100524902</ele>
        <time>2011-02-06T15:00:11Z</time>
      </trkpt>
      <trkpt lat="45.07056" lon="4.77959">
        <ele>136.07499694824</ele>
        <time>2011-02-06T15:00:14Z</time>
      </trkpt>
      <trkpt lat="45.07055" lon="4.77997">
        <ele>134.5359954834</ele>
        <time>2011-02-06T15:00:16Z</time>
      </trkpt>
      <trkpt lat="45.07073" lon="4.78046">
        <ele>133.53399658203</ele>
        <time>2011-02-06T15:00:19Z</time>
      </trkpt>
      <trkpt lat="45.07083" lon="4.78061">
        <ele>132.9049987793</ele>
        <time>2011-02-06T15:00:20Z</time>
      </trkpt>
      <trkpt lat="45.07116" lon="4.78131">
        <ele>128.2140045166</ele>
        <time>2011-02-06T15:00:24Z</time>
      </trkpt>
      <trkpt lat="45.07161" lon="4.78184">
        <ele>124.48999786377</ele>
        <time>2011-02-06T15:00:28Z</time>
      </trkpt>
      <trkpt lat="45.07188" lon="4.78205">
        <ele>121.96499633789</ele>
        <time>2011-02-06T15:00:30Z</time>
      </trkpt>
      <trkpt lat="45.07244" lon="4.78278">
        <ele>116.53399658203</ele>
        <time>2011-02-06T15:00:35Z</time>
      </trkpt>
      <trkpt lat="45.07289" lon="4.78336">
        <ele>112.54699707031</ele>
        <time>2011-02-06T15:00:39Z</time>
      </trkpt>
      <trkpt lat="45.073" lon="4.78394">
        <ele>110.24299621582</ele>
        <time>2011-02-06T15:00:42Z</time>
      </trkpt>
      <trkpt lat="45.07291" lon="4.78419">
        <ele>108.03299713135</ele>
        <time>2011-02-06T15:00:44Z</time>
      </trkpt>
      <trkpt lat="45.0727" lon="4.78422">
        <ele>106.67099761963</ele>
        <time>2011-02-06T15:00:46Z</time>
      </trkpt>
      <trkpt lat="45.07249" lon="4.78406">
        <ele>104.87300109863</ele>
        <time>2011-02-06T15:00:48Z</time>
      </trkpt>
      <trkpt lat="45.07187" lon="4.78374">
        <ele>100.63899993897</ele>
        <time>2011-02-06T15:00:53Z</time>
      </trkpt>
      <trkpt lat="45.07128" lon="4.78366">
        <ele>96.804000854492</ele>
        <time>2011-02-06T15:00:57Z</time>
      </trkpt>
      <trkpt lat="45.07085" lon="4.78389">
        <ele>94.072998046875</ele>
        <time>2011-02-06T15:01:00Z</time>
      </trkpt>
      <trkpt lat="45.0707" lon="4.78427">
        <ele>92.126998901367</ele>
        <time>2011-02-06T15:01:02Z</time>
      </trkpt>
      <trkpt lat="45.07065" lon="4.78471">
        <ele>90.373001098633</ele>
        <time>2011-02-06T15:01:04Z</time>
      </trkpt>
      <trkpt lat="45.07058" lon="4.78512">
        <ele>88.324996948242</ele>
        <time>2011-02-06T15:01:06Z</time>
      </trkpt>
      <trkpt lat="45.07037" lon="4.78542">
        <ele>86.023002624512</ele>
        <time>2011-02-06T15:01:08Z</time>
      </trkpt>
      <trkpt lat="45.07" lon="4.78577">
        <ele>82.999000549316</ele>
        <time>2011-02-06T15:01:11Z</time>
      </trkpt>
      <trkpt lat="45.06989" lon="4.78617">
        <ele>81.208999633789</ele>
        <time>2011-02-06T15:01:13Z</time>
      </trkpt>
      <trkpt lat="45.06991" lon="4.78661">
        <ele>79.928001403809</ele>
        <time>2011-02-06T15:01:15Z</time>
      </trkpt>
      <trkpt lat="45.07008" lon="4.78697">
        <ele>77.444000244141</ele>
        <time>2011-02-06T15:01:17Z</time>
      </trkpt>
      <trkpt lat="45.07021" lon="4.78758">
        <ele>73.307998657227</ele>
        <time>2011-02-06T15:01:20Z</time>
      </trkpt>
      <trkpt lat="45.07012" lon="4.78797">
        <ele>71.608001708984</ele>
        <time>2011-02-06T15:01:22Z</time>
      </trkpt>
      <trkpt lat="45.07014" lon="4.78839">
        <ele>69.403999328613</ele>
        <time>2011-02-06T15:01:24Z</time>
      </trkpt>
      <trkpt lat="45.07032" lon="4.78892">
        <ele>67.122001647949</ele>
        <time>2011-02-06T15:01:27Z</time>
      </trkpt>
      <trkpt lat="45.0703" lon="4.78925">
        <ele>65.386001586914</ele>
        <time>2011-02-06T15:01:29Z</time>
      </trkpt>
      <trkpt lat="45.07011" lon="4.78941">
        <ele>64.468002319336</ele>
        <time>2011-02-06T15:01:31Z</time>
      </trkpt>
      <trkpt lat="45.06963" lon="4.79001">
        <ele>60.590000152588</ele>
        <time>2011-02-06T15:01:36Z</time>
      </trkpt>
      <trkpt lat="45.06963" lon="4.79042">
        <ele>58.526000976562</ele>
        <time>2011-02-06T15:01:38Z</time>
      </trkpt>
      <trkpt lat="45.06979" lon="4.79075">
        <ele>55.909000396729</ele>
        <time>2011-02-06T15:01:40Z</time>
      </trkpt>
      <trkpt lat="45.07002" lon="4.79095">
        <ele>54.478000640869</ele>
        <time>2011-02-06T15:01:42Z</time>
      </trkpt>
      <trkpt lat="45.07017" lon="4.79109">
        <ele>53.033000946045</ele>
        <time>2011-02-06T15:01:44Z</time>
      </trkpt>
      <trkpt lat="45.0701" lon="4.79121">
        <ele>51.923000335693</ele>
        <time>2011-02-06T15:01:46Z</time>
      </trkpt>
      <trkpt lat="45.06993" lon="4.79109">
        <ele>50.305000305176</ele>
        <time>2011-02-06T15:01:48Z</time>
      </trkpt>
      <trkpt lat="45.06969" lon="4.79086">
        <ele>48.59700012207</ele>
        <time>2011-02-06T15:01:51Z</time>
      </trkpt>
      <trkpt lat="45.06943" lon="4.79049">
        <ele>46.182998657227</ele>
        <time>2011-02-06T15:01:54Z</time>
      </trkpt>
      <trkpt lat="45.06937" lon="4.79013">
        <ele>44.090999603271</ele>
        <time>2011-02-06T15:01:56Z</time>
      </trkpt>
      <trkpt lat="45.06941" lon="4.78955">
        <ele>41.486999511719</ele>
        <time>2011-02-06T15:01:59Z</time>
      </trkpt>
      <trkpt lat="45.06961" lon="4.78922">
        <ele>38.493999481201</ele>
        <time>2011-02-06T15:02:01Z</time>
      </trkpt>
      <trkpt lat="45.06977" lon="4.78892">
        <ele>36.707000732422</ele>
        <time>2011-02-06T15:02:03Z</time>
      </trkpt>
      <trkpt lat="45.06971" lon="4.78857">
        <ele>35.004001617432</ele>
        <time>2011-02-06T15:02:05Z</time>
      </trkpt>
      <trkpt lat="45.06958" lon="4.78782">
        <ele>30.792999267578</ele>
        <time>2011-02-06T15:02:09Z</time>
      </trkpt>
      <trkpt lat="45.06944" lon="4.78744">
        <ele>28.753000259399</ele>
        <time>2011-02-06T15:02:11Z</time>
      </trkpt>
      <trkpt lat="45.06916" lon="4.78697">
        <ele>26.096000671387</ele>
        <time>2011-02-06T15:02:14Z</time>
      </trkpt>
      <trkpt lat="45.06907" lon="4.78658">
        <ele>23.624000549316</ele>
        <time>2011-02-06T15:02:16Z</time>
      </trkpt>
      <trkpt lat="45.06884" lon="4.78512">
        <ele>15.609000205994</ele>
        <time>2011-02-06T15:02:23Z</time>
      </trkpt>
      <trkpt lat="45.0688" lon="4.78491">
        <ele>14.312000274658</ele>
        <time>2011-02-06T15:02:24Z</time>
      </trkpt>
      <trkpt lat="45.06889" lon="4.78429">
        <ele>10.890000343323</ele>
        <time>2011-02-06T15:02:27Z</time>
      </trkpt>
      <trkpt lat="45.069" lon="4.78415">
        <ele>9.7810001373291</ele>
        <time>2011-02-06T15:02:28Z</time>
      </trkpt>
      <trkpt lat="45.06909" lon="4.78359">
        <ele>5.7020001411438</ele>
        <time>2011-02-06T15:02:32Z</time>
      </trkpt>
      <trkpt lat="45.06884" lon="4.78346">
        <ele>3.3959999084473</ele>
        <time>2011-02-06T15:02:34Z</time>
      </trkpt>
      <trkpt lat="45.06871" lon="4.78345">
        <ele>2.5009999275208</ele>
        <time>2011-02-06T15:02:35Z</time>
      </trkpt>
      <trkpt lat="45.0683" lon="4.78337">
        <ele>0.059000000357628</ele>
        <time>2011-02-06T15:02:38Z</time>
      </trkpt>
      <trkpt lat="45.06778" lon="4.78299">
        <ele>-3.9270000457764</ele>
        <time>2011-02-06T15:02:42Z</time>
      </trkpt>
      <trkpt lat="45.06753" lon="4.78245">
        <ele>-6.4730000495911</ele>
        <time>2011-02-06T15:02:45Z</time>
      </trkpt>
      <trkpt lat="45.06736" lon="4.78164">
        <ele>-13.894000053406</ele>
        <time>2011-02-06T15:02:49Z</time>
      </trkpt>
      <trkpt lat="45.06734" lon="4.78143">
        <ele>-14.352000236511</ele>
        <time>2011-02-06T15:02:50Z</time>
      </trkpt>
      <trkpt lat="45.06712" lon="4.78096">
        <ele>-16.104000091553</ele>
        <time>2011-02-06T15:02:53Z</time>
      </trkpt>
      <trkpt lat="45.06687" lon="4.78097">
        <ele>-16.856000900269</ele>
        <time>2011-02-06T15:02:55Z</time>
      </trkpt>
      <trkpt lat="45.06676" lon="4.78102">
        <ele>-16.867000579834</ele>
        <time>2011-02-06T15:02:56Z</time>
      </trkpt>
      <trkpt lat="45.06643" lon="4.78119">
        <ele>-15.9390001297</ele>
        <time>2011-02-06T15:02:59Z</time>
      </trkpt>
      <trkpt lat="45.06609" lon="4.78151">
        <ele>-17.745000839233</ele>
        <time>2011-02-06T15:03:03Z</time>
      </trkpt>
      <trkpt lat="45.06602" lon="4.78181">
        <ele>-18.798999786377</ele>
        <time>2011-02-06T15:03:07Z</time>
      </trkpt>
      <trkpt lat="45.06607" lon="4.78202">
        <ele>-19.106000900269</ele>
        <time>2011-02-06T15:03:09Z</time>
      </trkpt>
      <trkpt lat="45.06622" lon="4.78256">
        <ele>-19.771999359131</ele>
        <time>2011-02-06T15:03:13Z</time>
      </trkpt>
      <trkpt lat="45.06622" lon="4.78352">
        <ele>-21.229999542236</ele>
        <time>2011-02-06T15:03:19Z</time>
      </trkpt>
      <trkpt lat="45.06622" lon="4.78384">
        <ele>-21.711000442505</ele>
        <time>2011-02-06T15:03:21Z</time>
      </trkpt>
      <trkpt lat="45.06633" lon="4.78465">
        <ele>-23.436000823975</ele>
        <time>2011-02-06T15:03:26Z</time>
      </trkpt>
      <trkpt lat="45.0663" lon="4.7853">
        <ele>-24.312000274658</ele>
        <time>2011-02-06T15:03:30Z</time>
      </trkpt>
      <trkpt lat="45.06626" lon="4.78545">
        <ele>-24.516000747681</ele>
        <time>2011-02-06T15:03:31Z</time>
      </trkpt>
      <trkpt lat="45.06599" lon="4.78651">
        <ele>-26.231000900269</ele>
        <time>2011-02-06T15:03:38Z</time>
      </trkpt>
      <trkpt lat="45.06572" lon="4.78703">
        <ele>-27.120000839233</ele>
        <time>2011-02-06T15:03:42Z</time>
      </trkpt>
      <trkpt lat="45.06524" lon="4.78794">
        <ele>-28.693000793457</ele>
        <time>2011-02-06T15:03:49Z</time>
      </trkpt>
      <trkpt lat="45.06503" lon="4.78885">
        <ele>-29.761999130249</ele>
        <time>2011-02-06T15:03:55Z</time>
      </trkpt>
      <trkpt lat="45.06478" lon="4.79004">
        <ele>-30.986999511719</ele>
        <time>2011-02-06T15:04:03Z</time>
      </trkpt>
      <trkpt lat="45.06451" lon="4.79085">
        <ele>-31.57200050354</ele>
        <time>2011-02-06T15:04:09Z</time>
      </trkpt>
      <trkpt lat="45.06433" lon="4.79138">
        <ele>-31.795000076294</ele>
        <time>2011-02-06T15:04:13Z</time>
      </trkpt>
      <trkpt lat="45.06427" lon="4.79193">
        <ele>-32.208000183105</ele>
        <time>2011-02-06T15:04:17Z</time>
      </trkpt>
      <trkpt lat="45.06433" lon="4.79233">
        <ele>-31.941999435425</ele>
        <time>2011-02-06T15:04:20Z</time>
      </trkpt>
      <trkpt lat="45.06443" lon="4.79258">
        <ele>-31.891000747681</ele>
        <time>2011-02-06T15:04:22Z</time>
      </trkpt>
      <trkpt lat="45.06459" lon="4.79292">
        <ele>-31.840000152588</ele>
        <time>2011-02-06T15:04:25Z</time>
      </trkpt>
      <trkpt lat="45.06508" lon="4.79347">
        <ele>-32.766998291016</ele>
        <time>2011-02-06T15:04:31Z</time>
      </trkpt>
      <trkpt lat="45.06517" lon="4.79356">
        <ele>-32.833000183105</ele>
        <time>2011-02-06T15:04:32Z</time>
      </trkpt>
      <trkpt lat="45.06548" lon="4.7941">
        <ele>-33.169998168945</ele>
        <time>2011-02-06T15:04:37Z</time>
      </trkpt>
      <trkpt lat="45.06585" lon="4.79515">
        <ele>-34.21900177002</ele>
        <time>2011-02-06T15:04:45Z</time>
      </trkpt>
      <trkpt lat="45.06623" lon="4.79629">
        <ele>-34.610000610352</ele>
        <time>2011-02-06T15:04:54Z</time>
      </trkpt>
      <trkpt lat="45.0666" lon="4.79711">
        <ele>-36.486000061035</ele>
        <time>2011-02-06T15:05:01Z</time>
      </trkpt>
      <trkpt lat="45.06684" lon="4.79774">
        <ele>-37.93399810791</ele>
        <time>2011-02-06T15:05:06Z</time>
      </trkpt>
      <trkpt lat="45.06694" lon="4.79831">
        <ele>-38.909000396729</ele>
        <time>2011-02-06T15:05:10Z</time>
      </trkpt>
      <trkpt lat="45.06694" lon="4.79952">
        <ele>-39.53099822998</ele>
        <time>2011-02-06T15:05:19Z</time>
      </trkpt>
      <trkpt lat="45.06691" lon="4.8008">
        <ele>-39.759998321533</ele>
        <time>2011-02-06T15:05:29Z</time>
      </trkpt>
      <trkpt lat="45.06688" lon="4.80208">
        <ele>-40.544998168945</ele>
        <time>2011-02-06T15:05:39Z</time>
      </trkpt>
      <trkpt lat="45.06685" lon="4.80346">
        <ele>-39.970001220703</ele>
        <time>2011-02-06T15:05:49Z</time>
      </trkpt>
      <trkpt lat="45.06684" lon="4.80469">
        <ele>-39.580001831055</ele>
        <time>2011-02-06T15:05:58Z</time>
      </trkpt>
      <trkpt lat="45.06685" lon="4.80496">
        <ele>-39.587001800537</ele>
        <time>2011-02-06T15:06:00Z</time>
      </trkpt>
      <trkpt lat="45.06685" lon="4.80588">
        <ele>-39.270999908447</ele>
        <time>2011-02-06T15:06:07Z</time>
      </trkpt>
      <trkpt lat="45.06686" lon="4.80674">
        <ele>-38.612998962402</ele>
        <time>2011-02-06T15:06:14Z</time>
      </trkpt>
      <trkpt lat="45.06691" lon="4.80752">
        <ele>-37.523998260498</ele>
        <time>2011-02-06T15:06:21Z</time>
      </trkpt>
      <trkpt lat="45.06694" lon="4.80783">
        <ele>-37.361999511719</ele>
        <time>2011-02-06T15:06:24Z</time>
      </trkpt>
      <trkpt lat="45.06696" lon="4.80803">
        <ele>-37.146999359131</ele>
        <time>2011-02-06T15:06:26Z</time>
      </trkpt>
      <trkpt lat="45.06697" lon="4.80821">
        <ele>-37.244998931885</ele>
        <time>2011-02-06T15:06:28Z</time>
      </trkpt>
      <trkpt lat="45.06693" lon="4.80846">
        <ele>-37.270999908447</ele>
        <time>2011-02-06T15:06:31Z</time>
      </trkpt>
      <trkpt lat="45.06698" lon="4.80878">
        <ele>-36.757999420166</ele>
        <time>2011-02-06T15:06:35Z</time>
      </trkpt>
      <trkpt lat="45.06711" lon="4.80917">
        <ele>-36.533000946045</ele>
        <time>2011-02-06T15:06:40Z</time>
      </trkpt>
      <trkpt lat="45.06717" lon="4.80979">
        <ele>-35.722999572754</ele>
        <time>2011-02-06T15:06:47Z</time>
      </trkpt>
      <trkpt lat="45.06728" lon="4.81066">
        <ele>-34.735000610352</ele>
        <time>2011-02-06T15:06:57Z</time>
      </trkpt>
      <trkpt lat="45.06744" lon="4.81125">
        <ele>-34.34700012207</ele>
        <time>2011-02-06T15:07:04Z</time>
      </trkpt>
      <trkpt lat="45.06768" lon="4.81187">
        <ele>-35.055999755859</ele>
        <time>2011-02-06T15:07:12Z</time>
      </trkpt>
      <trkpt lat="45.0678" lon="4.81223">
        <ele>-35.377998352051</ele>
        <time>2011-02-06T15:07:17Z</time>
      </trkpt>
      <trkpt lat="45.06784" lon="4.81238">
        <ele>-35.367000579834</ele>
        <time>2011-02-06T15:07:19Z</time>
      </trkpt>
      <trkpt lat="45.06807" lon="4.81291">
        <ele>-36.182998657227</ele>
        <time>2011-02-06T15:07:27Z</time>
      </trkpt>
      <trkpt lat="45.06814" lon="4.81304">
        <ele>-36.31600189209</ele>
        <time>2011-02-06T15:07:29Z</time>
      </trkpt>
      <trkpt lat="45.06834" lon="4.81356">
        <ele>-36.884998321533</ele>
        <time>2011-02-06T15:07:35Z</time>
      </trkpt>
      <trkpt lat="45.0686" lon="4.81423">
        <ele>-37.409000396729</ele>
        <time>2011-02-06T15:07:42Z</time>
      </trkpt>
      <trkpt lat="45.06887" lon="4.81513">
        <ele>-38.118000030518</ele>
        <time>2011-02-06T15:07:50Z</time>
      </trkpt>
      <trkpt lat="45.06921" lon="4.81632">
        <ele>-38.867000579834</ele>
        <time>2011-02-06T15:08:00Z</time>
      </trkpt>
      <trkpt lat="45.06956" lon="4.81751">
        <ele>-39.243000030518</ele>
        <time>2011-02-06T15:08:10Z</time>
      </trkpt>
      <trkpt lat="45.06987" lon="4.81857">
        <ele>-38.926998138428</ele>
        <time>2011-02-06T15:08:19Z</time>
      </trkpt>
      <trkpt lat="45.07013" lon="4.81928">
        <ele>-40.179000854492</ele>
        <time>2011-02-06T15:08:25Z</time>
      </trkpt>
      <trkpt lat="45.07044" lon="4.8198">
        <ele>-40.98099899292</ele>
        <time>2011-02-06T15:08:30Z</time>
      </trkpt>
      <trkpt lat="45.07095" lon="4.82037">
        <ele>-41.85599899292</ele>
        <time>2011-02-06T15:08:37Z</time>
      </trkpt>
      <trkpt lat="45.07147" lon="4.82093">
        <ele>-42.925998687744</ele>
        <time>2011-02-06T15:08:44Z</time>
      </trkpt>
      <trkpt lat="45.07201" lon="4.82141">
        <ele>-43.436000823975</ele>
        <time>2011-02-06T15:08:51Z</time>
      </trkpt>
      <trkpt lat="45.07225" lon="4.82175">
        <ele>-43.554000854492</ele>
        <time>2011-02-06T15:08:55Z</time>
      </trkpt>
      <trkpt lat="45.07233" lon="4.82215">
        <ele>-43.193000793457</ele>
        <time>2011-02-06T15:08:59Z</time>
      </trkpt>
      <trkpt lat="45.07227" lon="4.82248">
        <ele>-43.095001220703</ele>
        <time>2011-02-06T15:09:02Z</time>
      </trkpt>
      <trkpt lat="45.07219" lon="4.82269">
        <ele>-43.351001739502</ele>
        <time>2011-02-06T15:09:04Z</time>
      </trkpt>
      <trkpt lat="45.0719" lon="4.82365">
        <ele>-44.601001739502</ele>
        <time>2011-02-06T15:09:12Z</time>
      </trkpt>
      <trkpt lat="45.07153" lon="4.82474">
        <ele>-45.845001220703</ele>
        <time>2011-02-06T15:09:21Z</time>
      </trkpt>
      <trkpt lat="45.07122" lon="4.82556">
        <ele>-46.257999420166</ele>
        <time>2011-02-06T15:09:28Z</time>
      </trkpt>
      <trkpt lat="45.07086" lon="4.82671">
        <ele>-46.257999420166</ele>
        <time>2011-02-06T15:09:38Z</time>
      </trkpt>
      <trkpt lat="45.0706" lon="4.82745">
        <ele>-46.45299911499</ele>
        <time>2011-02-06T15:09:45Z</time>
      </trkpt>
      <trkpt lat="45.07055" lon="4.82755">
        <ele>-46.46900177002</ele>
        <time>2011-02-06T15:09:46Z</time>
      </trkpt>
      <trkpt lat="45.07013" lon="4.82816">
        <ele>-46.351001739502</ele>
        <time>2011-02-06T15:09:53Z</time>
      </trkpt>
      <trkpt lat="45.06978" lon="4.82865">
        <ele>-46.643001556396</ele>
        <time>2011-02-06T15:09:59Z</time>
      </trkpt>
      <trkpt lat="45.06933" lon="4.82923">
        <ele>-46.675998687744</ele>
        <time>2011-02-06T15:10:06Z</time>
      </trkpt>
      <trkpt lat="45.06896" lon="4.8298">
        <ele>-46.35599899292</ele>
        <time>2011-02-06T15:10:12Z</time>
      </trkpt>
      <trkpt lat="45.06878" lon="4.83042">
        <ele>-46.055999755859</ele>
        <time>2011-02-06T15:10:17Z</time>
      </trkpt>
      <trkpt lat="45.06872" lon="4.83117">
        <ele>-45.138999938965</ele>
        <time>2011-02-06T15:10:23Z</time>
      </trkpt>
      <trkpt lat="45.06877" lon="4.83192">
        <ele>-45.432998657227</ele>
        <time>2011-02-06T15:10:29Z</time>
      </trkpt>
      <trkpt lat="45.06884" lon="4.8323">
        <ele>-44.962001800537</ele>
        <time>2011-02-06T15:10:32Z</time>
      </trkpt>
      <trkpt lat="45.06861" lon="4.83307">
        <ele>-45.59700012207</ele>
        <time>2011-02-06T15:10:38Z</time>
      </trkpt>
      <trkpt lat="45.06856" lon="4.83319">
        <ele>-45.553001403809</ele>
        <time>2011-02-06T15:10:39Z</time>
      </trkpt>
      <trkpt lat="45.06822" lon="4.83384">
        <ele>-45.623001098633</ele>
        <time>2011-02-06T15:10:45Z</time>
      </trkpt>
      <trkpt lat="45.06784" lon="4.83452">
        <ele>-44.423999786377</ele>
        <time>2011-02-06T15:10:51Z</time>
      </trkpt>
      <trkpt lat="45.06773" lon="4.83474">
        <ele>-43.694999694824</ele>
        <time>2011-02-06T15:10:53Z</time>
      </trkpt>
      <trkpt lat="45.06739" lon="4.83551">
        <ele>-44.013000488281</ele>
        <time>2011-02-06T15:11:00Z</time>
      </trkpt>
      <trkpt lat="45.06683" lon="4.83671">
        <ele>-44.465000152588</ele>
        <time>2011-02-06T15:11:11Z</time>
      </trkpt>
      <trkpt lat="45.06651" lon="4.83742">
        <ele>-44.499000549316</ele>
        <time>2011-02-06T15:11:17Z</time>
      </trkpt>
      <trkpt lat="45.0661" lon="4.83835">
        <ele>-44.49100112915</ele>
        <time>2011-02-06T15:11:25Z</time>
      </trkpt>
      <trkpt lat="45.06581" lon="4.83906">
        <ele>-44.882999420166</ele>
        <time>2011-02-06T15:11:31Z</time>
      </trkpt>
      <trkpt lat="45.06561" lon="4.83951">
        <ele>-44.544998168945</ele>
        <time>2011-02-06T15:11:35Z</time>
      </trkpt>
      <trkpt lat="45.06548" lon="4.83968">
        <ele>-44.257999420166</ele>
        <time>2011-02-06T15:11:37Z</time>
      </trkpt>
      <trkpt lat="45.06532" lon="4.83994">
        <ele>-44.30899810791</ele>
        <time>2011-02-06T15:11:40Z</time>
      </trkpt>
      <trkpt lat="45.06536" lon="4.84018">
        <ele>-44.284000396729</ele>
        <time>2011-02-06T15:11:43Z</time>
      </trkpt>
      <trkpt lat="45.0655" lon="4.8402">
        <ele>-44.060001373291</ele>
        <time>2011-02-06T15:11:45Z</time>
      </trkpt>
      <trkpt lat="45.06583" lon="4.84026">
        <ele>-43.118000030518</ele>
        <time>2011-02-06T15:11:50Z</time>
      </trkpt>
      <trkpt lat="45.06646" lon="4.84064">
        <ele>-41.214000701904</ele>
        <time>2011-02-06T15:11:59Z</time>
      </trkpt>
      <trkpt lat="45.06722" lon="4.84111">
        <ele>-41.444999694824</ele>
        <time>2011-02-06T15:12:10Z</time>
      </trkpt>
      <trkpt lat="45.06784" lon="4.84149">
        <ele>-42.522998809814</ele>
        <time>2011-02-06T15:12:18Z</time>
      </trkpt>
      <trkpt lat="45.0685" lon="4.8419">
        <ele>-44.918998718262</ele>
        <time>2011-02-06T15:12:26Z</time>
      </trkpt>
      <trkpt lat="45.06882" lon="4.84211">
        <ele>-46.395999908447</ele>
        <time>2011-02-06T15:12:30Z</time>
      </trkpt>
      <trkpt lat="45.06897" lon="4.84243">
        <ele>-46.851001739502</ele>
        <time>2011-02-06T15:12:33Z</time>
      </trkpt>
      <trkpt lat="45.06892" lon="4.84269">
        <ele>-47.134998321533</ele>
        <time>2011-02-06T15:12:35Z</time>
      </trkpt>
      <trkpt lat="45.06889" lon="4.8428">
        <ele>-47.34700012207</ele>
        <time>2011-02-06T15:12:36Z</time>
      </trkpt>
      <trkpt lat="45.06862" lon="4.84383">
        <ele>-47.860000610352</ele>
        <time>2011-02-06T15:12:45Z</time>
      </trkpt>
      <trkpt lat="45.0686" lon="4.84395">
        <ele>-47.84400177002</ele>
        <time>2011-02-06T15:12:46Z</time>
      </trkpt>
      <trkpt lat="45.06859" lon="4.84426">
        <ele>-47.791000366211</ele>
        <time>2011-02-06T15:12:49Z</time>
      </trkpt>
      <trkpt lat="45.06872" lon="4.84434">
        <ele>-47.951000213623</ele>
        <time>2011-02-06T15:12:51Z</time>
      </trkpt>
      <trkpt lat="45.06879" lon="4.84431">
        <ele>-47.835998535156</ele>
        <time>2011-02-06T15:12:52Z</time>
      </trkpt>
      <trkpt lat="45.06945" lon="4.84423">
        <ele>-47.527000427246</ele>
        <time>2011-02-06T15:13:01Z</time>
      </trkpt>
      <trkpt lat="45.06994" lon="4.84419">
        <ele>-47.506999969482</ele>
        <time>2011-02-06T15:13:08Z</time>
      </trkpt>
      <trkpt lat="45.07007" lon="4.84419">
        <ele>-47.561000823975</ele>
        <time>2011-02-06T15:13:10Z</time>
      </trkpt>
      <trkpt lat="45.07029" lon="4.8442">
        <ele>-47.483001708984</ele>
        <time>2011-02-06T15:13:14Z</time>
      </trkpt>
      <trkpt lat="45.07037" lon="4.84431">
        <ele>-47.22200012207</ele>
        <time>2011-02-06T15:13:17Z</time>
      </trkpt>
      <trkpt lat="45.07032" lon="4.84463">
        <ele>-46.727001190186</ele>
        <time>2011-02-06T15:13:21Z</time>
      </trkpt>
      <trkpt lat="45.07025" lon="4.84529">
        <ele>-46.706001281738</ele>
        <time>2011-02-06T15:13:28Z</time>
      </trkpt>
      <trkpt lat="45.0702" lon="4.84592">
        <ele>-46.231998443604</ele>
        <time>2011-02-06T15:13:34Z</time>
      </trkpt>
      <trkpt lat="45.07027" lon="4.84644">
        <ele>-46.029998779297</ele>
        <time>2011-02-06T15:13:39Z</time>
      </trkpt>
      <trkpt lat="45.07045" lon="4.84736">
        <ele>-45.09400177002</ele>
        <time>2011-02-06T15:13:48Z</time>
      </trkpt>
      <trkpt lat="45.07051" lon="4.84804">
        <ele>-45.276000976562</ele>
        <time>2011-02-06T15:13:54Z</time>
      </trkpt>
      <trkpt lat="45.0706" lon="4.84864">
        <ele>-47.015998840332</ele>
        <time>2011-02-06T15:13:59Z</time>
      </trkpt>
      <trkpt lat="45.07073" lon="4.84906">
        <ele>-48.255001068115</ele>
        <time>2011-02-06T15:14:02Z</time>
      </trkpt>
      <trkpt lat="45.07077" lon="4.84919">
        <ele>-48.400001525879</ele>
        <time>2011-02-06T15:14:03Z</time>
      </trkpt>
      <trkpt lat="45.07087" lon="4.84985">
        <ele>-48.314998626709</ele>
        <time>2011-02-06T15:14:08Z</time>
      </trkpt>
      <trkpt lat="45.07079" lon="4.85048">
        <ele>-45.86600112915</ele>
        <time>2011-02-06T15:14:14Z</time>
      </trkpt>
      <trkpt lat="45.07077" lon="4.85091">
        <ele>-45.340999603271</ele>
        <time>2011-02-06T15:14:18Z</time>
      </trkpt>
      <trkpt lat="45.07088" lon="4.85215">
        <ele>-44.73099899292</ele>
        <time>2011-02-06T15:14:29Z</time>
      </trkpt>
      <trkpt lat="45.07092" lon="4.85292">
        <ele>-44.358001708984</ele>
        <time>2011-02-06T15:14:36Z</time>
      </trkpt>
      <trkpt lat="45.07093" lon="4.85397">
        <ele>-43.580001831055</ele>
        <time>2011-02-06T15:14:46Z</time>
      </trkpt>
      <trkpt lat="45.07097" lon="4.85469">
        <ele>-43.00899887085</ele>
        <time>2011-02-06T15:14:53Z</time>
      </trkpt>
      <trkpt lat="45.07097" lon="4.85541">
        <ele>-42.393001556396</ele>
        <time>2011-02-06T15:15:00Z</time>
      </trkpt>
      <trkpt lat="45.07092" lon="4.85636">
        <ele>-41.398998260498</ele>
        <time>2011-02-06T15:15:09Z</time>
      </trkpt>
      <trkpt lat="45.07089" lon="4.85715">
        <ele>-40.567001342773</ele>
        <time>2011-02-06T15:15:17Z</time>
      </trkpt>
      <trkpt lat="45.07085" lon="4.85776">
        <ele>-38.833999633789</ele>
        <time>2011-02-06T15:15:24Z</time>
      </trkpt>
      <trkpt lat="45.07078" lon="4.85823">
        <ele>-37.554000854492</ele>
        <time>2011-02-06T15:15:30Z</time>
      </trkpt>
      <trkpt lat="45.07077" lon="4.85856">
        <ele>-36.963001251221</ele>
        <time>2011-02-06T15:15:34Z</time>
      </trkpt>
      <trkpt lat="45.07074" lon="4.85873">
        <ele>-36.921001434326</ele>
        <time>2011-02-06T15:15:36Z</time>
      </trkpt>
      <trkpt lat="45.07066" lon="4.85953">
        <ele>-37.541000366211</ele>
        <time>2011-02-06T15:15:44Z</time>
      </trkpt>
      <trkpt lat="45.07068" lon="4.86028">
        <ele>-37.652000427246</ele>
        <time>2011-02-06T15:15:51Z</time>
      </trkpt>
      <trkpt lat="45.07075" lon="4.8615">
        <ele>-37.623001098633</ele>
        <time>2011-02-06T15:16:03Z</time>
      </trkpt>
      <trkpt lat="45.07074" lon="4.86231">
        <ele>-37.187000274658</ele>
        <time>2011-02-06T15:16:11Z</time>
      </trkpt>
      <trkpt lat="45.07066" lon="4.86278">
        <ele>-36.631999969482</ele>
        <time>2011-02-06T15:16:16Z</time>
      </trkpt>
      <trkpt lat="45.07027" lon="4.8637">
        <ele>-36.264999389648</ele>
        <time>2011-02-06T15:16:27Z</time>
      </trkpt>
      <trkpt lat="45.07024" lon="4.86378">
        <ele>-36.159000396729</ele>
        <time>2011-02-06T15:16:28Z</time>
      </trkpt>
      <trkpt lat="45.07001" lon="4.8641">
        <ele>-36.122001647949</ele>
        <time>2011-02-06T15:16:33Z</time>
      </trkpt>
      <trkpt lat="45.06995" lon="4.86437">
        <ele>-35.988998413086</ele>
        <time>2011-02-06T15:16:36Z</time>
      </trkpt>
      <trkpt lat="45.07001" lon="4.86464">
        <ele>-35.506999969482</ele>
        <time>2011-02-06T15:16:39Z</time>
      </trkpt>
      <trkpt lat="45.07017" lon="4.86482">
        <ele>-35.346000671387</ele>
        <time>2011-02-06T15:16:42Z</time>
      </trkpt>
      <trkpt lat="45.07038" lon="4.86486">
        <ele>-35.31600189209</ele>
        <time>2011-02-06T15:16:45Z</time>
      </trkpt>
      <trkpt lat="45.07072" lon="4.86498">
        <ele>-35.444999694824</ele>
        <time>2011-02-06T15:16:50Z</time>
      </trkpt>
      <trkpt lat="45.07089" lon="4.86529">
        <ele>-35.451999664307</ele>
        <time>2011-02-06T15:16:54Z</time>
      </trkpt>
      <trkpt lat="45.07095" lon="4.86562">
        <ele>-34.209999084473</ele>
        <time>2011-02-06T15:16:58Z</time>
      </trkpt>
      <trkpt lat="45.07092" lon="4.86592">
        <ele>-33.673999786377</ele>
        <time>2011-02-06T15:17:02Z</time>
      </trkpt>
      <trkpt lat="45.07074" lon="4.86637">
        <ele>-31.627000808716</ele>
        <time>2011-02-06T15:17:09Z</time>
      </trkpt>
      <trkpt lat="45.07046" lon="4.86688">
        <ele>-29.930999755859</ele>
        <time>2011-02-06T15:17:18Z</time>
      </trkpt>
      <trkpt lat="45.07032" lon="4.86735">
        <ele>-28.514999389648</ele>
        <time>2011-02-06T15:17:25Z</time>
      </trkpt>
      <trkpt lat="45.07027" lon="4.86777">
        <ele>-27.148000717163</ele>
        <time>2011-02-06T15:17:31Z</time>
      </trkpt>
      <trkpt lat="45.07021" lon="4.86853">
        <ele>-25.583000183106</ele>
        <time>2011-02-06T15:17:41Z</time>
      </trkpt>
      <trkpt lat="45.07009" lon="4.86919">
        <ele>-24.204999923706</ele>
        <time>2011-02-06T15:17:50Z</time>
      </trkpt>
      <trkpt lat="45.06992" lon="4.86995">
        <ele>-23.913000106811</ele>
        <time>2011-02-06T15:17:59Z</time>
      </trkpt>
      <trkpt lat="45.06973" lon="4.87046">
        <ele>-24.038000106811</ele>
        <time>2011-02-06T15:18:05Z</time>
      </trkpt>
      <trkpt lat="45.06943" lon="4.87105">
        <ele>-24.070999145508</ele>
        <time>2011-02-06T15:18:12Z</time>
      </trkpt>
      <trkpt lat="45.06911" lon="4.87163">
        <ele>-23.570999145508</ele>
        <time>2011-02-06T15:18:19Z</time>
      </trkpt>
      <trkpt lat="45.06885" lon="4.87229">
        <ele>-23.266000747681</ele>
        <time>2011-02-06T15:18:26Z</time>
      </trkpt>
      <trkpt lat="45.06866" lon="4.87301">
        <ele>-22.933000564575</ele>
        <time>2011-02-06T15:18:33Z</time>
      </trkpt>
      <trkpt lat="45.0685" lon="4.87411">
        <ele>-22.80299949646</ele>
        <time>2011-02-06T15:18:43Z</time>
      </trkpt>
      <trkpt lat="45.0685" lon="4.87455">
        <ele>-22.693000793457</ele>
        <time>2011-02-06T15:18:47Z</time>
      </trkpt>
      <trkpt lat="45.06847" lon="4.87495">
        <ele>-22.252000808716</ele>
        <time>2011-02-06T15:18:51Z</time>
      </trkpt>
      <trkpt lat="45.06857" lon="4.87507">
        <ele>-22.188999176025</ele>
        <time>2011-02-06T15:18:53Z</time>
      </trkpt>
      <trkpt lat="45.06877" lon="4.87501">
        <ele>-21.781999588013</ele>
        <time>2011-02-06T15:18:56Z</time>
      </trkpt>
      <trkpt lat="45.06897" lon="4.87501">
        <ele>-21.563999176025</ele>
        <time>2011-02-06T15:18:59Z</time>
      </trkpt>
      <trkpt lat="45.06913" lon="4.87518">
        <ele>-22.073999404907</ele>
        <time>2011-02-06T15:19:02Z</time>
      </trkpt>
      <trkpt lat="45.06918" lon="4.87524">
        <ele>-21.985000610352</ele>
        <time>2011-02-06T15:19:03Z</time>
      </trkpt>
      <trkpt lat="45.06951" lon="4.87584">
        <ele>-20.673999786377</ele>
        <time>2011-02-06T15:19:12Z</time>
      </trkpt>
      <trkpt lat="45.06968" lon="4.87636">
        <ele>-19.660999298096</ele>
        <time>2011-02-06T15:19:19Z</time>
      </trkpt>
      <trkpt lat="45.06995" lon="4.87737">
        <ele>-17.763000488281</ele>
        <time>2011-02-06T15:19:32Z</time>
      </trkpt>
      <trkpt lat="45.07016" lon="4.8781">
        <ele>-16.826000213623</ele>
        <time>2011-02-06T15:19:41Z</time>
      </trkpt>
      <trkpt lat="45.07039" lon="4.87891">
        <ele>-15.946999549866</ele>
        <time>2011-02-06T15:19:51Z</time>
      </trkpt>
      <trkpt lat="45.07066" lon="4.87977">
        <ele>-15.942999839783</ele>
        <time>2011-02-06T15:20:01Z</time>
      </trkpt>
      <trkpt lat="45.07095" lon="4.88058">
        <ele>-15.977999687195</ele>
        <time>2011-02-06T15:20:10Z</time>
      </trkpt>
      <trkpt lat="45.07129" lon="4.88125">
        <ele>-15.598999977112</ele>
        <time>2011-02-06T15:20:18Z</time>
      </trkpt>
      <trkpt lat="45.07159" lon="4.88176">
        <ele>-14.909000396728</ele>
        <time>2011-02-06T15:20:25Z</time>
      </trkpt>
      <trkpt lat="45.07197" lon="4.88237">
        <ele>-14.067999839783</ele>
        <time>2011-02-06T15:20:34Z</time>
      </trkpt>
      <trkpt lat="45.07229" lon="4.88291">
        <ele>-13.225999832153</ele>
        <time>2011-02-06T15:20:42Z</time>
      </trkpt>
      <trkpt lat="45.07272" lon="4.88365">
        <ele>-11.822999954224</ele>
        <time>2011-02-06T15:20:53Z</time>
      </trkpt>
      <trkpt lat="45.07296" lon="4.88426">
        <ele>-11.185000419617</ele>
        <time>2011-02-06T15:21:01Z</time>
      </trkpt>
      <trkpt lat="45.07334" lon="4.8854">
        <ele>-9.2690000534058</ele>
        <time>2011-02-06T15:21:15Z</time>
      </trkpt>
      <trkpt lat="45.07354" lon="4.88604">
        <ele>-8.8520002365112</ele>
        <time>2011-02-06T15:21:23Z</time>
      </trkpt>
      <trkpt lat="45.07365" lon="4.88665">
        <ele>-8.03600025177</ele>
        <time>2011-02-06T15:21:30Z</time>
      </trkpt>
      <trkpt lat="45.07368" lon="4.88727">
        <ele>-7.0729999542236</ele>
        <time>2011-02-06T15:21:37Z</time>
      </trkpt>
      <trkpt lat="45.07382" lon="4.8881">
        <ele>-5.7270002365112</ele>
        <time>2011-02-06T15:21:47Z</time>
      </trkpt>
      <trkpt lat="45.074" lon="4.88871">
        <ele>-4.8289999961853</ele>
        <time>2011-02-06T15:21:55Z</time>
      </trkpt>
      <trkpt lat="45.0742" lon="4.88912">
        <ele>-4.0749998092651</ele>
        <time>2011-02-06T15:22:01Z</time>
      </trkpt>
      <trkpt lat="45.07451" lon="4.88937">
        <ele>-3.2030000686645</ele>
        <time>2011-02-06T15:22:07Z</time>
      </trkpt>
      <trkpt lat="45.07513" lon="4.88964">
        <ele>-2.2349998950958</ele>
        <time>2011-02-06T15:22:18Z</time>
      </trkpt>
      <trkpt lat="45.07518" lon="4.88966">
        <ele>-2.154000043869</ele>
        <time>2011-02-06T15:22:19Z</time>
      </trkpt>
      <trkpt lat="45.07529" lon="4.88968">
        <ele>-1.8380000591278</ele>
        <time>2011-02-06T15:22:21Z</time>
      </trkpt>
      <trkpt lat="45.07556" lon="4.88984">
        <ele>-1.3940000534058</ele>
        <time>2011-02-06T15:22:26Z</time>
      </trkpt>
      <trkpt lat="45.07561" lon="4.88988">
        <ele>-1.1859999895096</ele>
        <time>2011-02-06T15:22:27Z</time>
      </trkpt>
      <trkpt lat="45.07581" lon="4.89018">
        <ele>0.10100000351667</ele>
        <time>2011-02-06T15:22:32Z</time>
      </trkpt>
      <trkpt lat="45.076" lon="4.89052">
        <ele>1.3409999608993</ele>
        <time>2011-02-06T15:22:38Z</time>
      </trkpt>
      <trkpt lat="45.07603" lon="4.89056">
        <ele>1.527999997139</ele>
        <time>2011-02-06T15:22:39Z</time>
      </trkpt>
      <trkpt lat="45.07615" lon="4.89071">
        <ele>2.305999994278</ele>
        <time>2011-02-06T15:22:43Z</time>
      </trkpt>
      <trkpt lat="45.07635" lon="4.89092">
        <ele>3.3699998855591</ele>
        <time>2011-02-06T15:22:50Z</time>
      </trkpt>
      <trkpt lat="45.07652" lon="4.89107">
        <ele>4.3319997787476</ele>
        <time>2011-02-06T15:22:55Z</time>
      </trkpt>
      <trkpt lat="45.07666" lon="4.89121">
        <ele>5.1999998092651</ele>
        <time>2011-02-06T15:23:00Z</time>
      </trkpt>
      <trkpt lat="45.07682" lon="4.89138">
        <ele>6.1630001068115</ele>
        <time>2011-02-06T15:23:06Z</time>
      </trkpt>
      <trkpt lat="45.077" lon="4.89156">
        <ele>7.8309998512268</ele>
        <time>2011-02-06T15:23:12Z</time>
      </trkpt>
      <trkpt lat="45.07704" lon="4.89162">
        <ele>8.5950002670288</ele>
        <time>2011-02-06T15:23:14Z</time>
      </trkpt>
      <trkpt lat="45.07728" lon="4.89161">
        <ele>9.3009996414185</ele>
        <time>2011-02-06T15:23:19Z</time>
      </trkpt>
      <trkpt lat="45.07735" lon="4.89163">
        <ele>9.5600004196167</ele>
        <time>2011-02-06T15:23:21Z</time>
      </trkpt>
      <trkpt lat="45.07763" lon="4.89177">
        <ele>9.5550003051758</ele>
        <time>2011-02-06T15:23:27Z</time>
      </trkpt>
      <trkpt lat="45.07781" lon="4.8919">
        <ele>10.114000320435</ele>
        <time>2011-02-06T15:23:31Z</time>
      </trkpt>
      <trkpt lat="45.07805" lon="4.89218">
        <ele>10.178000450134</ele>
        <time>2011-02-06T15:23:37Z</time>
      </trkpt>
      <trkpt lat="45.07827" lon="4.89261">
        <ele>10.005000114441</ele>
        <time>2011-02-06T15:23:44Z</time>
      </trkpt>
      <trkpt lat="45.07854" lon="4.89329">
        <ele>10.25800037384</ele>
        <time>2011-02-06T15:23:53Z</time>
      </trkpt>
      <trkpt lat="45.07875" lon="4.89401">
        <ele>9.8690004348755</ele>
        <time>2011-02-06T15:24:01Z</time>
      </trkpt>
      <trkpt lat="45.07887" lon="4.89468">
        <ele>9.2609996795654</ele>
        <time>2011-02-06T15:24:08Z</time>
      </trkpt>
      <trkpt lat="45.0789" lon="4.8955">
        <ele>8.6920003890991</ele>
        <time>2011-02-06T15:24:16Z</time>
      </trkpt>
      <trkpt lat="45.07886" lon="4.89626">
        <ele>8.4580001831055</ele>
        <time>2011-02-06T15:24:23Z</time>
      </trkpt>
      <trkpt lat="45.07878" lon="4.89712">
        <ele>9.5459995269775</ele>
        <time>2011-02-06T15:24:31Z</time>
      </trkpt>
      <trkpt lat="45.07878" lon="4.89733">
        <ele>9.8179998397827</ele>
        <time>2011-02-06T15:24:33Z</time>
      </trkpt>
      <trkpt lat="45.07866" lon="4.89784">
        <ele>10.284999847412</ele>
        <time>2011-02-06T15:24:38Z</time>
      </trkpt>
      <trkpt lat="45.07861" lon="4.89793">
        <ele>10.355999946594</ele>
        <time>2011-02-06T15:24:39Z</time>
      </trkpt>
      <trkpt lat="45.07807" lon="4.89885">
        <ele>11.774000167847</ele>
        <time>2011-02-06T15:24:50Z</time>
      </trkpt>
      <trkpt lat="45.07755" lon="4.89976">
        <ele>14.079000473023</ele>
        <time>2011-02-06T15:25:01Z</time>
      </trkpt>
      <trkpt lat="45.07747" lon="4.89993">
        <ele>14.38300037384</ele>
        <time>2011-02-06T15:25:03Z</time>
      </trkpt>
      <trkpt lat="45.07729" lon="4.90066">
        <ele>15.939999580383</ele>
        <time>2011-02-06T15:25:11Z</time>
      </trkpt>
      <trkpt lat="45.07719" lon="4.90138">
        <ele>17.002000808716</ele>
        <time>2011-02-06T15:25:19Z</time>
      </trkpt>
      <trkpt lat="45.07719" lon="4.90214">
        <ele>18.181999206543</ele>
        <time>2011-02-06T15:25:28Z</time>
      </trkpt>
      <trkpt lat="45.07718" lon="4.90273">
        <ele>20.006999969482</ele>
        <time>2011-02-06T15:25:36Z</time>
      </trkpt>
      <trkpt lat="45.07713" lon="4.90332">
        <ele>21.523000717163</ele>
        <time>2011-02-06T15:25:45Z</time>
      </trkpt>
      <trkpt lat="45.07703" lon="4.90384">
        <ele>22.607999801636</ele>
        <time>2011-02-06T15:25:53Z</time>
      </trkpt>
      <trkpt lat="45.07684" lon="4.90431">
        <ele>24.496000289917</ele>
        <time>2011-02-06T15:26:01Z</time>
      </trkpt>
      <trkpt lat="45.07663" lon="4.90477">
        <ele>26.785999298096</ele>
        <time>2011-02-06T15:26:10Z</time>
      </trkpt>
      <trkpt lat="45.07646" lon="4.90515">
        <ele>28.659999847412</ele>
        <time>2011-02-06T15:26:17Z</time>
      </trkpt>
      <trkpt lat="45.07631" lon="4.90556">
        <ele>31.069000244141</ele>
        <time>2011-02-06T15:26:25Z</time>
      </trkpt>
      <trkpt lat="45.07624" lon="4.90593">
        <ele>32.694000244141</ele>
        <time>2011-02-06T15:26:32Z</time>
      </trkpt>
      <trkpt lat="45.07623" lon="4.9062">
        <ele>33.535999298096</ele>
        <time>2011-02-06T15:26:37Z</time>
      </trkpt>
      <trkpt lat="45.07618" lon="4.90677">
        <ele>35.348999023438</ele>
        <time>2011-02-06T15:26:47Z</time>
      </trkpt>
      <trkpt lat="45.0762" lon="4.90728">
        <ele>36.381000518799</ele>
        <time>2011-02-06T15:26:55Z</time>
      </trkpt>
      <trkpt lat="45.07635" lon="4.90791">
        <ele>37.835998535156</ele>
        <time>2011-02-06T15:27:05Z</time>
      </trkpt>
      <trkpt lat="45.07659" lon="4.90861">
        <ele>38.659999847412</ele>
        <time>2011-02-06T15:27:16Z</time>
      </trkpt>
      <trkpt lat="45.07675" lon="4.90911">
        <ele>39.631999969482</ele>
        <time>2011-02-06T15:27:23Z</time>
      </trkpt>
      <trkpt lat="45.07694" lon="4.90953">
        <ele>40.430999755859</ele>
        <time>2011-02-06T15:27:29Z</time>
      </trkpt>
      <trkpt lat="45.07724" lon="4.91002">
        <ele>41.435001373291</ele>
        <time>2011-02-06T15:27:37Z</time>
      </trkpt>
      <trkpt lat="45.07754" lon="4.91042">
        <ele>42.478000640869</ele>
        <time>2011-02-06T15:27:44Z</time>
      </trkpt>
      <trkpt lat="45.07778" lon="4.91081">
        <ele>43.332000732422</ele>
        <time>2011-02-06T15:27:51Z</time>
      </trkpt>
      <trkpt lat="45.0779" lon="4.91098">
        <ele>43.318000793457</ele>
        <time>2011-02-06T15:27:54Z</time>
      </trkpt>
      <trkpt lat="45.07827" lon="4.91134">
        <ele>44.175998687744</ele>
        <time>2011-02-06T15:28:02Z</time>
      </trkpt>
      <trkpt lat="45.07859" lon="4.91166">
        <ele>44.93399810791</ele>
        <time>2011-02-06T15:28:09Z</time>
      </trkpt>
      <trkpt lat="45.07889" lon="4.91208">
        <ele>46.784999847412</ele>
        <time>2011-02-06T15:28:17Z</time>
      </trkpt>
      <trkpt lat="45.07919" lon="4.91259">
        <ele>48.057998657227</ele>
        <time>2011-02-06T15:28:27Z</time>
      </trkpt>
      <trkpt lat="45.07944" lon="4.91304">
        <ele>49.840999603271</ele>
        <time>2011-02-06T15:28:37Z</time>
      </trkpt>
      <trkpt lat="45.07972" lon="4.91345">
        <ele>51.407001495361</ele>
        <time>2011-02-06T15:28:47Z</time>
      </trkpt>
      <trkpt lat="45.07992" lon="4.91371">
        <ele>52.320999145508</ele>
        <time>2011-02-06T15:28:54Z</time>
      </trkpt>
      <trkpt lat="45.08023" lon="4.9141">
        <ele>54.529998779297</ele>
        <time>2011-02-06T15:29:05Z</time>
      </trkpt>
      <trkpt lat="45.08051" lon="4.91444">
        <ele>56.581001281738</ele>
        <time>2011-02-06T15:29:15Z</time>
      </trkpt>
      <trkpt lat="45.08075" lon="4.9147">
        <ele>58.186000823975</ele>
        <time>2011-02-06T15:29:23Z</time>
      </trkpt>
      <trkpt lat="45.08105" lon="4.915">
        <ele>60.207000732422</ele>
        <time>2011-02-06T15:29:32Z</time>
      </trkpt>
      <trkpt lat="45.08135" lon="4.91528">
        <ele>61.875999450684</ele>
        <time>2011-02-06T15:29:41Z</time>
      </trkpt>
      <trkpt lat="45.08162" lon="4.91558">
        <ele>64.287002563477</ele>
        <time>2011-02-06T15:29:50Z</time>
      </trkpt>
      <trkpt lat="45.08177" lon="4.91589">
        <ele>66.070999145508</ele>
        <time>2011-02-06T15:29:58Z</time>
      </trkpt>
      <trkpt lat="45.08183" lon="4.91617">
        <ele>67.583999633789</ele>
        <time>2011-02-06T15:30:05Z</time>
      </trkpt>
      <trkpt lat="45.08183" lon="4.91653">
        <ele>69.315002441406</ele>
        <time>2011-02-06T15:30:13Z</time>
      </trkpt>
      <trkpt lat="45.08178" lon="4.9169">
        <ele>70.88500213623</ele>
        <time>2011-02-06T15:30:21Z</time>
      </trkpt>
      <trkpt lat="45.08172" lon="4.91721">
        <ele>72.46900177002</ele>
        <time>2011-02-06T15:30:28Z</time>
      </trkpt>
      <trkpt lat="45.08168" lon="4.91747">
        <ele>73.263999938965</ele>
        <time>2011-02-06T15:30:32Z</time>
      </trkpt>
      <trkpt lat="45.08156" lon="4.91822">
        <ele>76.025001525879</ele>
        <time>2011-02-06T15:30:41Z</time>
      </trkpt>
      <trkpt lat="45.08154" lon="4.91866">
        <ele>77.871002197266</ele>
        <time>2011-02-06T15:30:46Z</time>
      </trkpt>
      <trkpt lat="45.08162" lon="4.91899">
        <ele>79.182998657227</ele>
        <time>2011-02-06T15:30:50Z</time>
      </trkpt>
      <trkpt lat="45.08183" lon="4.91957">
        <ele>80.69100189209</ele>
        <time>2011-02-06T15:30:57Z</time>
      </trkpt>
      <trkpt lat="45.08193" lon="4.91979">
        <ele>80.49299621582</ele>
        <time>2011-02-06T15:31:00Z</time>
      </trkpt>
      <trkpt lat="45.08216" lon="4.92017">
        <ele>79.307998657227</ele>
        <time>2011-02-06T15:31:05Z</time>
      </trkpt>
      <trkpt lat="45.08241" lon="4.92038">
        <ele>78.110000610352</ele>
        <time>2011-02-06T15:31:09Z</time>
      </trkpt>
      <trkpt lat="45.08273" lon="4.92043">
        <ele>76.966003417969</ele>
        <time>2011-02-06T15:31:13Z</time>
      </trkpt>
      <trkpt lat="45.0834" lon="4.92037">
        <ele>75</ele>
        <time>2011-02-06T15:31:21Z</time>
      </trkpt>
      <trkpt lat="45.08381" lon="4.92019">
        <ele>75.361999511719</ele>
        <time>2011-02-06T15:31:27Z</time>
      </trkpt>
      <trkpt lat="45.08413" lon="4.92007">
        <ele>75.902000427246</ele>
        <time>2011-02-06T15:31:32Z</time>
      </trkpt>
      <trkpt lat="45.08426" lon="4.92002">
        <ele>76.185997009277</ele>
        <time>2011-02-06T15:31:34Z</time>
      </trkpt>
      <trkpt lat="45.08484" lon="4.91978">
        <ele>77.47200012207</ele>
        <time>2011-02-06T15:31:43Z</time>
      </trkpt>
      <trkpt lat="45.08526" lon="4.91959">
        <ele>77.627998352051</ele>
        <time>2011-02-06T15:31:49Z</time>
      </trkpt>
      <trkpt lat="45.08572" lon="4.91941">
        <ele>75.712997436523</ele>
        <time>2011-02-06T15:31:55Z</time>
      </trkpt>
      <trkpt lat="45.08631" lon="4.91925">
        <ele>73.58699798584</ele>
        <time>2011-02-06T15:32:02Z</time>
      </trkpt>
      <trkpt lat="45.08703" lon="4.9192">
        <ele>69.856002807617</ele>
        <time>2011-02-06T15:32:10Z</time>
      </trkpt>
      <trkpt lat="45.08798" lon="4.91913">
        <ele>66.71199798584</ele>
        <time>2011-02-06T15:32:20Z</time>
      </trkpt>
      <trkpt lat="45.08895" lon="4.91904">
        <ele>63.326000213623</ele>
        <time>2011-02-06T15:32:30Z</time>
      </trkpt>
      <trkpt lat="45.0898" lon="4.91886">
        <ele>60.520999908447</ele>
        <time>2011-02-06T15:32:39Z</time>
      </trkpt>
      <trkpt lat="45.09054" lon="4.91869">
        <ele>57.497001647949</ele>
        <time>2011-02-06T15:32:47Z</time>
      </trkpt>
      <trkpt lat="45.09083" lon="4.91859">
        <ele>56.159999847412</ele>
        <time>2011-02-06T15:32:50Z</time>
      </trkpt>
      <trkpt lat="45.09123" lon="4.91844">
        <ele>53.846000671387</ele>
        <time>2011-02-06T15:32:54Z</time>
      </trkpt>
      <trkpt lat="45.09208" lon="4.91814">
        <ele>48.290000915527</ele>
        <time>2011-02-06T15:33:02Z</time>
      </trkpt>
      <trkpt lat="45.09241" lon="4.91809">
        <ele>45.88399887085</ele>
        <time>2011-02-06T15:33:05Z</time>
      </trkpt>
      <trkpt lat="45.09298" lon="4.91824">
        <ele>41.761001586914</ele>
        <time>2011-02-06T15:33:10Z</time>
      </trkpt>
      <trkpt lat="45.09398" lon="4.91861">
        <ele>36.542999267578</ele>
        <time>2011-02-06T15:33:19Z</time>
      </trkpt>
      <trkpt lat="45.0943" lon="4.91873">
        <ele>35.213001251221</ele>
        <time>2011-02-06T15:33:22Z</time>
      </trkpt>
      <trkpt lat="45.09484" lon="4.91891">
        <ele>31.871999740601</ele>
        <time>2011-02-06T15:33:27Z</time>
      </trkpt>
      <trkpt lat="45.09533" lon="4.91896">
        <ele>30.739999771118</ele>
        <time>2011-02-06T15:33:32Z</time>
      </trkpt>
      <trkpt lat="45.09605" lon="4.91886">
        <ele>28.981000900269</ele>
        <time>2011-02-06T15:33:40Z</time>
      </trkpt>
      <trkpt lat="45.09692" lon="4.91871">
        <ele>26.701999664307</ele>
        <time>2011-02-06T15:33:50Z</time>
      </trkpt>
      <trkpt lat="45.09795" lon="4.91852">
        <ele>24.514999389648</ele>
        <time>2011-02-06T15:34:02Z</time>
      </trkpt>
      <trkpt lat="45.09875" lon="4.91837">
        <ele>23.540000915527</ele>
        <time>2011-02-06T15:34:12Z</time>
      </trkpt>
      <trkpt lat="45.0994" lon="4.91824">
        <ele>23.663999557495</ele>
        <time>2011-02-06T15:34:21Z</time>
      </trkpt>
      <trkpt lat="45.10025" lon="4.91807">
        <ele>22.677000045776</ele>
        <time>2011-02-06T15:34:33Z</time>
      </trkpt>
      <trkpt lat="45.10111" lon="4.91792">
        <ele>22.086999893189</ele>
        <time>2011-02-06T15:34:45Z</time>
      </trkpt>
      <trkpt lat="45.10172" lon="4.91783">
        <ele>21.971000671387</ele>
        <time>2011-02-06T15:34:54Z</time>
      </trkpt>
      <trkpt lat="45.10245" lon="4.91772">
        <ele>22.349000930786</ele>
        <time>2011-02-06T15:35:05Z</time>
      </trkpt>
      <trkpt lat="45.10284" lon="4.91767">
        <ele>22.399000167847</ele>
        <time>2011-02-06T15:35:11Z</time>
      </trkpt>
      <trkpt lat="45.10309" lon="4.91778">
        <ele>22.301000595093</ele>
        <time>2011-02-06T15:35:15Z</time>
      </trkpt>
      <trkpt lat="45.10319" lon="4.91803">
        <ele>21.829999923706</ele>
        <time>2011-02-06T15:35:18Z</time>
      </trkpt>
      <trkpt lat="45.10333" lon="4.91887">
        <ele>21.018999099731</ele>
        <time>2011-02-06T15:35:26Z</time>
      </trkpt>
      <trkpt lat="45.10351" lon="4.91991">
        <ele>19.940000534058</ele>
        <time>2011-02-06T15:35:35Z</time>
      </trkpt>
      <trkpt lat="45.1037" lon="4.92102">
        <ele>18.575000762939</ele>
        <time>2011-02-06T15:35:44Z</time>
      </trkpt>
      <trkpt lat="45.10389" lon="4.9221">
        <ele>18.569999694824</ele>
        <time>2011-02-06T15:35:53Z</time>
      </trkpt>
      <trkpt lat="45.1041" lon="4.92336">
        <ele>18.767000198364</ele>
        <time>2011-02-06T15:36:04Z</time>
      </trkpt>
      <trkpt lat="45.10423" lon="4.9241">
        <ele>19.076999664307</ele>
        <time>2011-02-06T15:36:11Z</time>
      </trkpt>
      <trkpt lat="45.10435" lon="4.92475">
        <ele>20.707000732422</ele>
        <time>2011-02-06T15:36:18Z</time>
      </trkpt>
      <trkpt lat="45.10441" lon="4.9251">
        <ele>21.753000259399</ele>
        <time>2011-02-06T15:36:22Z</time>
      </trkpt>
      <trkpt lat="45.10456" lon="4.92599">
        <ele>22.826999664307</ele>
        <time>2011-02-06T15:36:32Z</time>
      </trkpt>
      <trkpt lat="45.1046" lon="4.92624">
        <ele>23.146999359131</ele>
        <time>2011-02-06T15:36:35Z</time>
      </trkpt>
      <trkpt lat="45.10474" lon="4.92689">
        <ele>23.700000762939</ele>
        <time>2011-02-06T15:36:43Z</time>
      </trkpt>
      <trkpt lat="45.10475" lon="4.92698">
        <ele>23.618999481201</ele>
        <time>2011-02-06T15:36:44Z</time>
      </trkpt>
      <trkpt lat="45.10489" lon="4.92768">
        <ele>23.155000686646</ele>
        <time>2011-02-06T15:36:52Z</time>
      </trkpt>
      <trkpt lat="45.10497" lon="4.92806">
        <ele>23.233999252319</ele>
        <time>2011-02-06T15:36:57Z</time>
      </trkpt>
      <trkpt lat="45.10506" lon="4.92858">
        <ele>23.591999053955</ele>
        <time>2011-02-06T15:37:03Z</time>
      </trkpt>
      <trkpt lat="45.10521" lon="4.92932">
        <ele>23.604999542236</ele>
        <time>2011-02-06T15:37:11Z</time>
      </trkpt>
      <trkpt lat="45.10539" lon="4.93025">
        <ele>24.232999801636</ele>
        <time>2011-02-06T15:37:21Z</time>
      </trkpt>
      <trkpt lat="45.10555" lon="4.93105">
        <ele>24.364999771118</ele>
        <time>2011-02-06T15:37:30Z</time>
      </trkpt>
      <trkpt lat="45.10571" lon="4.93184">
        <ele>24.986999511719</ele>
        <time>2011-02-06T15:37:39Z</time>
      </trkpt>
      <trkpt lat="45.10584" lon="4.93253">
        <ele>25.959999084473</ele>
        <time>2011-02-06T15:37:47Z</time>
      </trkpt>
      <trkpt lat="45.10598" lon="4.93325">
        <ele>27.191999435425</ele>
        <time>2011-02-06T15:37:56Z</time>
      </trkpt>
      <trkpt lat="45.10612" lon="4.93399">
        <ele>28.444000244141</ele>
        <time>2011-02-06T15:38:05Z</time>
      </trkpt>
      <trkpt lat="45.10624" lon="4.9346">
        <ele>29.537000656128</ele>
        <time>2011-02-06T15:38:13Z</time>
      </trkpt>
      <trkpt lat="45.10633" lon="4.93506">
        <ele>30.881999969482</ele>
        <time>2011-02-06T15:38:20Z</time>
      </trkpt>
      <trkpt lat="45.10643" lon="4.93563">
        <ele>33.701999664307</ele>
        <time>2011-02-06T15:38:30Z</time>
      </trkpt>
      <trkpt lat="45.10651" lon="4.93604">
        <ele>36.01900100708</ele>
        <time>2011-02-06T15:38:38Z</time>
      </trkpt>
      <trkpt lat="45.10656" lon="4.93633">
        <ele>37.653999328613</ele>
        <time>2011-02-06T15:38:44Z</time>
      </trkpt>
      <trkpt lat="45.10662" lon="4.93677">
        <ele>39.852001190186</ele>
        <time>2011-02-06T15:38:53Z</time>
      </trkpt>
      <trkpt lat="45.10664" lon="4.93697">
        <ele>40.686000823975</ele>
        <time>2011-02-06T15:38:57Z</time>
      </trkpt>
      <trkpt lat="45.10665" lon="4.93702">
        <ele>40.805000305176</ele>
        <time>2011-02-06T15:38:58Z</time>
      </trkpt>
      <trkpt lat="45.1067" lon="4.93753">
        <ele>42.756000518799</ele>
        <time>2011-02-06T15:39:08Z</time>
      </trkpt>
      <trkpt lat="45.10676" lon="4.93806">
        <ele>44.147998809814</ele>
        <time>2011-02-06T15:39:17Z</time>
      </trkpt>
      <trkpt lat="45.10679" lon="4.93831">
        <ele>44.752998352051</ele>
        <time>2011-02-06T15:39:21Z</time>
      </trkpt>
      <trkpt lat="45.10686" lon="4.93898">
        <ele>45.381000518799</ele>
        <time>2011-02-06T15:39:30Z</time>
      </trkpt>
      <trkpt lat="45.10696" lon="4.9396">
        <ele>45.180999755859</ele>
        <time>2011-02-06T15:39:37Z</time>
      </trkpt>
      <trkpt lat="45.10709" lon="4.94018">
        <ele>44.895000457764</ele>
        <time>2011-02-06T15:39:43Z</time>
      </trkpt>
      <trkpt lat="45.10731" lon="4.94079">
        <ele>43.674999237061</ele>
        <time>2011-02-06T15:39:49Z</time>
      </trkpt>
      <trkpt lat="45.10762" lon="4.94136">
        <ele>42.912998199463</ele>
        <time>2011-02-06T15:39:55Z</time>
      </trkpt>
      <trkpt lat="45.10807" lon="4.94195">
        <ele>41.47200012207</ele>
        <time>2011-02-06T15:40:02Z</time>
      </trkpt>
      <trkpt lat="45.1085" lon="4.94243">
        <ele>41.608001708984</ele>
        <time>2011-02-06T15:40:09Z</time>
      </trkpt>
      <trkpt lat="45.10893" lon="4.94293">
        <ele>42.182998657227</ele>
        <time>2011-02-06T15:40:17Z</time>
      </trkpt>
      <trkpt lat="45.10903" lon="4.94306">
        <ele>42.131000518799</ele>
        <time>2011-02-06T15:40:19Z</time>
      </trkpt>
      <trkpt lat="45.10918" lon="4.94347">
        <ele>42.252998352051</ele>
        <time>2011-02-06T15:40:24Z</time>
      </trkpt>
      <trkpt lat="45.10921" lon="4.94366">
        <ele>42.31600189209</ele>
        <time>2011-02-06T15:40:26Z</time>
      </trkpt>
      <trkpt lat="45.10927" lon="4.9448">
        <ele>42.351001739502</ele>
        <time>2011-02-06T15:40:37Z</time>
      </trkpt>
      <trkpt lat="45.1093" lon="4.94562">
        <ele>42.56600189209</ele>
        <time>2011-02-06T15:40:45Z</time>
      </trkpt>
      <trkpt lat="45.10923" lon="4.94631">
        <ele>42.560001373291</ele>
        <time>2011-02-06T15:40:52Z</time>
      </trkpt>
      <trkpt lat="45.10905" lon="4.94698">
        <ele>43.060001373291</ele>
        <time>2011-02-06T15:40:59Z</time>
      </trkpt>
      <trkpt lat="45.10884" lon="4.94768">
        <ele>43.06600189209</ele>
        <time>2011-02-06T15:41:06Z</time>
      </trkpt>
      <trkpt lat="45.10873" lon="4.94807">
        <ele>42.938999176025</ele>
        <time>2011-02-06T15:41:10Z</time>
      </trkpt>
      <trkpt lat="45.10864" lon="4.94835">
        <ele>42.525001525879</ele>
        <time>2011-02-06T15:41:13Z</time>
      </trkpt>
      <trkpt lat="45.10858" lon="4.94888">
        <ele>41.736000061035</ele>
        <time>2011-02-06T15:41:18Z</time>
      </trkpt>
      <trkpt lat="45.10855" lon="4.94966">
        <ele>38.833999633789</ele>
        <time>2011-02-06T15:41:24Z</time>
      </trkpt>
      <trkpt lat="45.1085" lon="4.95041">
        <ele>34.893001556396</ele>
        <time>2011-02-06T15:41:29Z</time>
      </trkpt>
      <trkpt lat="45.10849" lon="4.95089">
        <ele>33.104999542236</ele>
        <time>2011-02-06T15:41:32Z</time>
      </trkpt>
      <trkpt lat="45.10851" lon="4.95122">
        <ele>31.427000045776</ele>
        <time>2011-02-06T15:41:34Z</time>
      </trkpt>
      <trkpt lat="45.10871" lon="4.952">
        <ele>27.346000671387</ele>
        <time>2011-02-06T15:41:39Z</time>
      </trkpt>
      <trkpt lat="45.10876" lon="4.95236">
        <ele>25.565999984741</ele>
        <time>2011-02-06T15:41:42Z</time>
      </trkpt>
      <trkpt lat="45.10874" lon="4.9526">
        <ele>23.94700050354</ele>
        <time>2011-02-06T15:41:45Z</time>
      </trkpt>
      <trkpt lat="45.10883" lon="4.95282">
        <ele>23.670999526977</ele>
        <time>2011-02-06T15:41:48Z</time>
      </trkpt>
      <trkpt lat="45.10888" lon="4.95289">
        <ele>23.708999633789</ele>
        <time>2011-02-06T15:41:49Z</time>
      </trkpt>
      <trkpt lat="45.10912" lon="4.95323">
        <ele>23.659999847412</ele>
        <time>2011-02-06T15:41:54Z</time>
      </trkpt>
      <trkpt lat="45.10934" lon="4.95386">
        <ele>23.329999923706</ele>
        <time>2011-02-06T15:42:01Z</time>
      </trkpt>
      <trkpt lat="45.10952" lon="4.95464">
        <ele>23.853000640869</ele>
        <time>2011-02-06T15:42:09Z</time>
      </trkpt>
      <trkpt lat="45.10971" lon="4.95525">
        <ele>24.756999969482</ele>
        <time>2011-02-06T15:42:16Z</time>
      </trkpt>
      <trkpt lat="45.11002" lon="4.95587">
        <ele>25.617000579834</ele>
        <time>2011-02-06T15:42:24Z</time>
      </trkpt>
      <trkpt lat="45.11045" lon="4.95641">
        <ele>26.686000823975</ele>
        <time>2011-02-06T15:42:33Z</time>
      </trkpt>
      <trkpt lat="45.11091" lon="4.95685">
        <ele>26.204999923706</ele>
        <time>2011-02-06T15:42:41Z</time>
      </trkpt>
      <trkpt lat="45.11103" lon="4.95698">
        <ele>25.97200012207</ele>
        <time>2011-02-06T15:42:43Z</time>
      </trkpt>
      <trkpt lat="45.11136" lon="4.95755">
        <ele>25.625</ele>
        <time>2011-02-06T15:42:50Z</time>
      </trkpt>
      <trkpt lat="45.11174" lon="4.95822">
        <ele>25.42200088501</ele>
        <time>2011-02-06T15:42:58Z</time>
      </trkpt>
      <trkpt lat="45.11226" lon="4.95897">
        <ele>25.534000396729</ele>
        <time>2011-02-06T15:43:08Z</time>
      </trkpt>
      <trkpt lat="45.11268" lon="4.95962">
        <ele>26.118000030518</ele>
        <time>2011-02-06T15:43:17Z</time>
      </trkpt>
      <trkpt lat="45.11306" lon="4.96027">
        <ele>26.77799987793</ele>
        <time>2011-02-06T15:43:26Z</time>
      </trkpt>
      <trkpt lat="45.11344" lon="4.96091">
        <ele>27.462999343872</ele>
        <time>2011-02-06T15:43:35Z</time>
      </trkpt>
      <trkpt lat="45.11382" lon="4.96164">
        <ele>28.170000076294</ele>
        <time>2011-02-06T15:43:45Z</time>
      </trkpt>
      <trkpt lat="45.11417" lon="4.96238">
        <ele>29.08099937439</ele>
        <time>2011-02-06T15:43:55Z</time>
      </trkpt>
      <trkpt lat="45.1145" lon="4.96299">
        <ele>29.184999465942</ele>
        <time>2011-02-06T15:44:03Z</time>
      </trkpt>
      <trkpt lat="45.11486" lon="4.96354">
        <ele>28.267999649048</ele>
        <time>2011-02-06T15:44:10Z</time>
      </trkpt>
      <trkpt lat="45.11533" lon="4.96426">
        <ele>27.138000488281</ele>
        <time>2011-02-06T15:44:19Z</time>
      </trkpt>
      <trkpt lat="45.1156" lon="4.96463">
        <ele>27.145999908447</ele>
        <time>2011-02-06T15:44:24Z</time>
      </trkpt>
      <trkpt lat="45.11574" lon="4.96486">
        <ele>26.771999359131</ele>
        <time>2011-02-06T15:44:27Z</time>
      </trkpt>
      <trkpt lat="45.11583" lon="4.96487">
        <ele>26.475999832153</ele>
        <time>2011-02-06T15:44:30Z</time>
      </trkpt>
      <trkpt lat="45.11584" lon="4.96477">
        <ele>26.67799949646</ele>
        <time>2011-02-06T15:44:32Z</time>
      </trkpt>
      <trkpt lat="45.11584" lon="4.96458">
        <ele>27.143999099731</ele>
        <time>2011-02-06T15:44:36Z</time>
      </trkpt>
      <trkpt lat="45.11579" lon="4.96448">
        <ele>27.590999603271</ele>
        <time>2011-02-06T15:44:40Z</time>
      </trkpt>
      <trkpt lat="45.11578" lon="4.96448">
        <ele>27.466999053955</ele>
        <time>2011-02-06T15:44:41Z</time>
      </trkpt>
    </trkseg>
  </trk>
</gpx>